<?xml version="1.0" encoding="UTF-8" standalone="no" ?>
<gpx xmlns="http://www.topografix.com/GPX/1/1" xmlns:xsi="http://www.w3.org/2001/XMLSchema-instance" xsi:schemaLocation="http://www.topografix.com/GPX/1/1 http://www.topografix.com/GPX/1/1/gpx.xsd" version="1.1" creator="VisuGPX - https://www.visugpx.com">
  <metadata>
    <name>Sainte Christine - Cuers</name>
    <desc><![CDATA[boucle au départ de Sainte Christine via Cuers]]></desc>
  </metadata>
  <trk>
    <name><![CDATA[2020-10-11 Sainte Christine]]></name>
    <trkseg>
      <trkpt lat="43.2051" lon="6.04721">
        <ele>101.81640625</ele>
        <time>2020-10-11T07:03:25Z</time>
      </trkpt>
      <trkpt lat="43.2051" lon="6.0472">
        <ele>101.828125</ele>
        <time>2020-10-11T07:03:37Z</time>
      </trkpt>
      <trkpt lat="43.20511" lon="6.04723">
        <ele>101.765625</ele>
        <time>2020-10-11T07:03:45Z</time>
      </trkpt>
      <trkpt lat="43.20512" lon="6.04725">
        <ele>101.703125</ele>
        <time>2020-10-11T07:04:08Z</time>
      </trkpt>
      <trkpt lat="43.20511" lon="6.04724">
        <ele>101.72265625</ele>
        <time>2020-10-11T07:04:35Z</time>
      </trkpt>
      <trkpt lat="43.20511" lon="6.04724">
        <ele>101.7265625</ele>
        <time>2020-10-11T07:04:36Z</time>
      </trkpt>
      <trkpt lat="43.20512" lon="6.04723">
        <ele>101.76171875</ele>
        <time>2020-10-11T07:04:38Z</time>
      </trkpt>
      <trkpt lat="43.20512" lon="6.04726">
        <ele>101.68359375</ele>
        <time>2020-10-11T07:05:27Z</time>
      </trkpt>
      <trkpt lat="43.2051" lon="6.04727">
        <ele>101.609375</ele>
        <time>2020-10-11T07:05:54Z</time>
      </trkpt>
      <trkpt lat="43.20512" lon="6.04722">
        <ele>101.7890625</ele>
        <time>2020-10-11T07:06:11Z</time>
      </trkpt>
      <trkpt lat="43.20512" lon="6.04723">
        <ele>101.77734375</ele>
        <time>2020-10-11T07:06:39Z</time>
      </trkpt>
      <trkpt lat="43.20515" lon="6.04721">
        <ele>101.8515625</ele>
        <time>2020-10-11T07:06:54Z</time>
      </trkpt>
      <trkpt lat="43.20516" lon="6.04721">
        <ele>101.84375</ele>
        <time>2020-10-11T07:07:12Z</time>
      </trkpt>
      <trkpt lat="43.20523" lon="6.04723">
        <ele>101.8828125</ele>
        <time>2020-10-11T07:07:17Z</time>
      </trkpt>
      <trkpt lat="43.20523" lon="6.0472">
        <ele>101.9375</ele>
        <time>2020-10-11T07:07:18Z</time>
      </trkpt>
      <trkpt lat="43.20528" lon="6.04673">
        <ele>102.8984375</ele>
        <time>2020-10-11T07:07:28Z</time>
      </trkpt>
      <trkpt lat="43.20533" lon="6.04632">
        <ele>103.921875</ele>
        <time>2020-10-11T07:07:34Z</time>
      </trkpt>
      <trkpt lat="43.20533" lon="6.0459">
        <ele>103.96875</ele>
        <time>2020-10-11T07:07:45Z</time>
      </trkpt>
      <trkpt lat="43.20533" lon="6.04588">
        <ele>103.94921875</ele>
        <time>2020-10-11T07:07:46Z</time>
      </trkpt>
      <trkpt lat="43.20533" lon="6.04585">
        <ele>103.96875</ele>
        <time>2020-10-11T07:07:47Z</time>
      </trkpt>
      <trkpt lat="43.20535" lon="6.04584">
        <ele>104.01953125</ele>
        <time>2020-10-11T07:07:48Z</time>
      </trkpt>
      <trkpt lat="43.20536" lon="6.04585">
        <ele>104.07421875</ele>
        <time>2020-10-11T07:07:49Z</time>
      </trkpt>
      <trkpt lat="43.20532" lon="6.04585">
        <ele>103.9296875</ele>
        <time>2020-10-11T07:07:57Z</time>
      </trkpt>
      <trkpt lat="43.20506" lon="6.04557">
        <ele>103.6640625</ele>
        <time>2020-10-11T07:08:10Z</time>
      </trkpt>
      <trkpt lat="43.20481" lon="6.04517">
        <ele>103.08203125</ele>
        <time>2020-10-11T07:08:22Z</time>
      </trkpt>
      <trkpt lat="43.20468" lon="6.04497">
        <ele>102.62890625</ele>
        <time>2020-10-11T07:08:26Z</time>
      </trkpt>
      <trkpt lat="43.20457" lon="6.04483">
        <ele>102.21875</ele>
        <time>2020-10-11T07:08:29Z</time>
      </trkpt>
      <trkpt lat="43.20433" lon="6.04462">
        <ele>101.3203125</ele>
        <time>2020-10-11T07:08:34Z</time>
      </trkpt>
      <trkpt lat="43.20346" lon="6.04421">
        <ele>98.23828125</ele>
        <time>2020-10-11T07:08:47Z</time>
      </trkpt>
      <trkpt lat="43.20325" lon="6.0441">
        <ele>97.47265625</ele>
        <time>2020-10-11T07:08:50Z</time>
      </trkpt>
      <trkpt lat="43.20276" lon="6.04388">
        <ele>94.71484375</ele>
        <time>2020-10-11T07:08:57Z</time>
      </trkpt>
      <trkpt lat="43.20274" lon="6.04383">
        <ele>94.62890625</ele>
        <time>2020-10-11T07:08:58Z</time>
      </trkpt>
      <trkpt lat="43.20277" lon="6.04374">
        <ele>94.75</ele>
        <time>2020-10-11T07:09:00Z</time>
      </trkpt>
      <trkpt lat="43.20281" lon="6.04372">
        <ele>94.86328125</ele>
        <time>2020-10-11T07:09:01Z</time>
      </trkpt>
      <trkpt lat="43.20284" lon="6.04372">
        <ele>94.984375</ele>
        <time>2020-10-11T07:09:02Z</time>
      </trkpt>
      <trkpt lat="43.20287" lon="6.04372">
        <ele>95.1640625</ele>
        <time>2020-10-11T07:09:03Z</time>
      </trkpt>
      <trkpt lat="43.2029" lon="6.04372">
        <ele>95.35546875</ele>
        <time>2020-10-11T07:09:04Z</time>
      </trkpt>
      <trkpt lat="43.20319" lon="6.04365">
        <ele>96.63671875</ele>
        <time>2020-10-11T07:09:14Z</time>
      </trkpt>
      <trkpt lat="43.20359" lon="6.04338">
        <ele>97.703125</ele>
        <time>2020-10-11T07:09:27Z</time>
      </trkpt>
      <trkpt lat="43.20385" lon="6.04336">
        <ele>99.0234375</ele>
        <time>2020-10-11T07:09:34Z</time>
      </trkpt>
      <trkpt lat="43.20388" lon="6.04336">
        <ele>99.23046875</ele>
        <time>2020-10-11T07:09:35Z</time>
      </trkpt>
      <trkpt lat="43.20443" lon="6.04341">
        <ele>102.0546875</ele>
        <time>2020-10-11T07:09:51Z</time>
      </trkpt>
      <trkpt lat="43.2049" lon="6.04333">
        <ele>104.171875</ele>
        <time>2020-10-11T07:10:06Z</time>
      </trkpt>
      <trkpt lat="43.2052" lon="6.04334">
        <ele>105.22265625</ele>
        <time>2020-10-11T07:10:16Z</time>
      </trkpt>
      <trkpt lat="43.20549" lon="6.04326">
        <ele>107.08203125</ele>
        <time>2020-10-11T07:10:28Z</time>
      </trkpt>
      <trkpt lat="43.20579" lon="6.04309">
        <ele>109.234375</ele>
        <time>2020-10-11T07:10:41Z</time>
      </trkpt>
      <trkpt lat="43.20582" lon="6.04308">
        <ele>109.3671875</ele>
        <time>2020-10-11T07:10:42Z</time>
      </trkpt>
      <trkpt lat="43.20604" lon="6.04304">
        <ele>110.30078125</ele>
        <time>2020-10-11T07:10:51Z</time>
      </trkpt>
      <trkpt lat="43.2063" lon="6.04309">
        <ele>111.078125</ele>
        <time>2020-10-11T07:11:01Z</time>
      </trkpt>
      <trkpt lat="43.20636" lon="6.04311">
        <ele>111.2265625</ele>
        <time>2020-10-11T07:11:03Z</time>
      </trkpt>
      <trkpt lat="43.20678" lon="6.04319">
        <ele>112.45703125</ele>
        <time>2020-10-11T07:11:19Z</time>
      </trkpt>
      <trkpt lat="43.20692" lon="6.04322">
        <ele>112.8359375</ele>
        <time>2020-10-11T07:11:24Z</time>
      </trkpt>
      <trkpt lat="43.20728" lon="6.0433">
        <ele>113.828125</ele>
        <time>2020-10-11T07:11:37Z</time>
      </trkpt>
      <trkpt lat="43.20742" lon="6.04333">
        <ele>114.34765625</ele>
        <time>2020-10-11T07:11:42Z</time>
      </trkpt>
      <trkpt lat="43.20745" lon="6.04334">
        <ele>114.45703125</ele>
        <time>2020-10-11T07:11:43Z</time>
      </trkpt>
      <trkpt lat="43.20747" lon="6.04335">
        <ele>114.5703125</ele>
        <time>2020-10-11T07:11:44Z</time>
      </trkpt>
      <trkpt lat="43.20797" lon="6.04343">
        <ele>115.8359375</ele>
        <time>2020-10-11T07:12:02Z</time>
      </trkpt>
      <trkpt lat="43.20836" lon="6.04346">
        <ele>116.51171875</ele>
        <time>2020-10-11T07:12:19Z</time>
      </trkpt>
      <trkpt lat="43.20841" lon="6.04346">
        <ele>116.6640625</ele>
        <time>2020-10-11T07:12:34Z</time>
      </trkpt>
      <trkpt lat="43.2086" lon="6.04345">
        <ele>117.66015625</ele>
        <time>2020-10-11T07:12:49Z</time>
      </trkpt>
      <trkpt lat="43.20892" lon="6.04357">
        <ele>118.86328125</ele>
        <time>2020-10-11T07:13:04Z</time>
      </trkpt>
      <trkpt lat="43.20902" lon="6.04369">
        <ele>119.50390625</ele>
        <time>2020-10-11T07:13:09Z</time>
      </trkpt>
      <trkpt lat="43.20905" lon="6.04369">
        <ele>119.6796875</ele>
        <time>2020-10-11T07:13:10Z</time>
      </trkpt>
      <trkpt lat="43.20907" lon="6.04369">
        <ele>119.828125</ele>
        <time>2020-10-11T07:13:11Z</time>
      </trkpt>
      <trkpt lat="43.20909" lon="6.04367">
        <ele>119.98046875</ele>
        <time>2020-10-11T07:13:12Z</time>
      </trkpt>
      <trkpt lat="43.20911" lon="6.04365">
        <ele>120.11328125</ele>
        <time>2020-10-11T07:13:13Z</time>
      </trkpt>
      <trkpt lat="43.20913" lon="6.04363">
        <ele>120.2578125</ele>
        <time>2020-10-11T07:13:14Z</time>
      </trkpt>
      <trkpt lat="43.20914" lon="6.04361">
        <ele>120.3984375</ele>
        <time>2020-10-11T07:13:15Z</time>
      </trkpt>
      <trkpt lat="43.20916" lon="6.04358">
        <ele>120.53125</ele>
        <time>2020-10-11T07:13:16Z</time>
      </trkpt>
      <trkpt lat="43.20918" lon="6.04357">
        <ele>120.66015625</ele>
        <time>2020-10-11T07:13:17Z</time>
      </trkpt>
      <trkpt lat="43.20938" lon="6.04325">
        <ele>123.1015625</ele>
        <time>2020-10-11T07:13:31Z</time>
      </trkpt>
      <trkpt lat="43.20937" lon="6.04322">
        <ele>123.04296875</ele>
        <time>2020-10-11T07:13:32Z</time>
      </trkpt>
      <trkpt lat="43.20943" lon="6.04278">
        <ele>123.64453125</ele>
        <time>2020-10-11T07:13:46Z</time>
      </trkpt>
      <trkpt lat="43.20965" lon="6.04246">
        <ele>125.0546875</ele>
        <time>2020-10-11T07:14:01Z</time>
      </trkpt>
      <trkpt lat="43.20992" lon="6.04258">
        <ele>126.98046875</ele>
        <time>2020-10-11T07:14:14Z</time>
      </trkpt>
      <trkpt lat="43.2102" lon="6.04216">
        <ele>129.03125</ele>
        <time>2020-10-11T07:14:31Z</time>
      </trkpt>
      <trkpt lat="43.21042" lon="6.0419">
        <ele>130.59375</ele>
        <time>2020-10-11T07:14:44Z</time>
      </trkpt>
      <trkpt lat="43.21074" lon="6.04183">
        <ele>132.859375</ele>
        <time>2020-10-11T07:14:59Z</time>
      </trkpt>
      <trkpt lat="43.21107" lon="6.04197">
        <ele>134.640625</ele>
        <time>2020-10-11T07:15:14Z</time>
      </trkpt>
      <trkpt lat="43.21143" lon="6.04197">
        <ele>137.1875</ele>
        <time>2020-10-11T07:15:29Z</time>
      </trkpt>
      <trkpt lat="43.21177" lon="6.04205">
        <ele>139.84765625</ele>
        <time>2020-10-11T07:15:44Z</time>
      </trkpt>
      <trkpt lat="43.21205" lon="6.04201">
        <ele>141.33203125</ele>
        <time>2020-10-11T07:15:58Z</time>
      </trkpt>
      <trkpt lat="43.21241" lon="6.04223">
        <ele>144.796875</ele>
        <time>2020-10-11T07:16:14Z</time>
      </trkpt>
      <trkpt lat="43.21266" lon="6.04237">
        <ele>147.48046875</ele>
        <time>2020-10-11T07:16:27Z</time>
      </trkpt>
      <trkpt lat="43.21296" lon="6.04251">
        <ele>150.35546875</ele>
        <time>2020-10-11T07:16:41Z</time>
      </trkpt>
      <trkpt lat="43.21337" lon="6.0426">
        <ele>151.9609375</ele>
        <time>2020-10-11T07:16:58Z</time>
      </trkpt>
      <trkpt lat="43.21378" lon="6.04281">
        <ele>157.6015625</ele>
        <time>2020-10-11T07:17:15Z</time>
      </trkpt>
      <trkpt lat="43.21415" lon="6.04275">
        <ele>160.38671875</ele>
        <time>2020-10-11T07:17:31Z</time>
      </trkpt>
      <trkpt lat="43.21432" lon="6.04265">
        <ele>161.28125</ele>
        <time>2020-10-11T07:17:40Z</time>
      </trkpt>
      <trkpt lat="43.21464" lon="6.0426">
        <ele>164.41015625</ele>
        <time>2020-10-11T07:17:56Z</time>
      </trkpt>
      <trkpt lat="43.21498" lon="6.04267">
        <ele>167.05078125</ele>
        <time>2020-10-11T07:18:13Z</time>
      </trkpt>
      <trkpt lat="43.21522" lon="6.04266">
        <ele>170.7421875</ele>
        <time>2020-10-11T07:18:26Z</time>
      </trkpt>
      <trkpt lat="43.21545" lon="6.04263">
        <ele>176.13671875</ele>
        <time>2020-10-11T07:18:39Z</time>
      </trkpt>
      <trkpt lat="43.21564" lon="6.04257">
        <ele>180.9609375</ele>
        <time>2020-10-11T07:18:52Z</time>
      </trkpt>
      <trkpt lat="43.2158" lon="6.04252">
        <ele>186.31640625</ele>
        <time>2020-10-11T07:19:01Z</time>
      </trkpt>
      <trkpt lat="43.21582" lon="6.04253">
        <ele>187.2265625</ele>
        <time>2020-10-11T07:19:02Z</time>
      </trkpt>
      <trkpt lat="43.21582" lon="6.04254">
        <ele>187.99609375</ele>
        <time>2020-10-11T07:19:03Z</time>
      </trkpt>
      <trkpt lat="43.21582" lon="6.04258">
        <ele>188.87109375</ele>
        <time>2020-10-11T07:19:05Z</time>
      </trkpt>
      <trkpt lat="43.21581" lon="6.0426">
        <ele>188.8125</ele>
        <time>2020-10-11T07:19:06Z</time>
      </trkpt>
      <trkpt lat="43.2158" lon="6.04261">
        <ele>188.6875</ele>
        <time>2020-10-11T07:19:07Z</time>
      </trkpt>
      <trkpt lat="43.21579" lon="6.04263">
        <ele>188.61328125</ele>
        <time>2020-10-11T07:19:08Z</time>
      </trkpt>
      <trkpt lat="43.21578" lon="6.04264">
        <ele>188.6328125</ele>
        <time>2020-10-11T07:19:09Z</time>
      </trkpt>
      <trkpt lat="43.21577" lon="6.04266">
        <ele>188.5</ele>
        <time>2020-10-11T07:19:10Z</time>
      </trkpt>
      <trkpt lat="43.21573" lon="6.04272">
        <ele>188.23828125</ele>
        <time>2020-10-11T07:19:14Z</time>
      </trkpt>
      <trkpt lat="43.21563" lon="6.04306">
        <ele>189.0625</ele>
        <time>2020-10-11T07:19:32Z</time>
      </trkpt>
      <trkpt lat="43.21562" lon="6.04335">
        <ele>192.28125</ele>
        <time>2020-10-11T07:19:47Z</time>
      </trkpt>
      <trkpt lat="43.21564" lon="6.0436">
        <ele>196.08203125</ele>
        <time>2020-10-11T07:20:00Z</time>
      </trkpt>
      <trkpt lat="43.21568" lon="6.04382">
        <ele>200.4609375</ele>
        <time>2020-10-11T07:20:12Z</time>
      </trkpt>
      <trkpt lat="43.21569" lon="6.04383">
        <ele>200.984375</ele>
        <time>2020-10-11T07:20:13Z</time>
      </trkpt>
      <trkpt lat="43.2157" lon="6.04383">
        <ele>201.53515625</ele>
        <time>2020-10-11T07:20:14Z</time>
      </trkpt>
      <trkpt lat="43.21572" lon="6.04383">
        <ele>201.98046875</ele>
        <time>2020-10-11T07:20:15Z</time>
      </trkpt>
      <trkpt lat="43.21573" lon="6.0438">
        <ele>202.10546875</ele>
        <time>2020-10-11T07:20:17Z</time>
      </trkpt>
      <trkpt lat="43.21574" lon="6.04376">
        <ele>202</ele>
        <time>2020-10-11T07:20:18Z</time>
      </trkpt>
      <trkpt lat="43.21575" lon="6.04374">
        <ele>201.86328125</ele>
        <time>2020-10-11T07:20:19Z</time>
      </trkpt>
      <trkpt lat="43.21575" lon="6.04371">
        <ele>201.578125</ele>
        <time>2020-10-11T07:20:20Z</time>
      </trkpt>
      <trkpt lat="43.21575" lon="6.04368">
        <ele>201.31640625</ele>
        <time>2020-10-11T07:20:21Z</time>
      </trkpt>
      <trkpt lat="43.21575" lon="6.04365">
        <ele>201.10546875</ele>
        <time>2020-10-11T07:20:22Z</time>
      </trkpt>
      <trkpt lat="43.21576" lon="6.04359">
        <ele>200.828125</ele>
        <time>2020-10-11T07:20:24Z</time>
      </trkpt>
      <trkpt lat="43.21582" lon="6.04342">
        <ele>202.01953125</ele>
        <time>2020-10-11T07:20:32Z</time>
      </trkpt>
      <trkpt lat="43.21585" lon="6.04337">
        <ele>202.75390625</ele>
        <time>2020-10-11T07:20:34Z</time>
      </trkpt>
      <trkpt lat="43.21588" lon="6.04331">
        <ele>203.8828125</ele>
        <time>2020-10-11T07:20:37Z</time>
      </trkpt>
      <trkpt lat="43.21605" lon="6.04306">
        <ele>208.69921875</ele>
        <time>2020-10-11T07:20:52Z</time>
      </trkpt>
      <trkpt lat="43.21621" lon="6.04293">
        <ele>213.76171875</ele>
        <time>2020-10-11T07:21:05Z</time>
      </trkpt>
      <trkpt lat="43.21637" lon="6.04276">
        <ele>216.6171875</ele>
        <time>2020-10-11T07:21:19Z</time>
      </trkpt>
      <trkpt lat="43.21649" lon="6.04258">
        <ele>216.79296875</ele>
        <time>2020-10-11T07:21:33Z</time>
      </trkpt>
      <trkpt lat="43.2165" lon="6.04256">
        <ele>216.44140625</ele>
        <time>2020-10-11T07:21:34Z</time>
      </trkpt>
      <trkpt lat="43.2165" lon="6.04254">
        <ele>216.09765625</ele>
        <time>2020-10-11T07:21:35Z</time>
      </trkpt>
      <trkpt lat="43.21651" lon="6.04253">
        <ele>216.015625</ele>
        <time>2020-10-11T07:21:36Z</time>
      </trkpt>
      <trkpt lat="43.21652" lon="6.04252">
        <ele>216.06640625</ele>
        <time>2020-10-11T07:21:37Z</time>
      </trkpt>
      <trkpt lat="43.21654" lon="6.04251">
        <ele>216.11328125</ele>
        <time>2020-10-11T07:21:38Z</time>
      </trkpt>
      <trkpt lat="43.21655" lon="6.04251">
        <ele>216.26171875</ele>
        <time>2020-10-11T07:21:39Z</time>
      </trkpt>
      <trkpt lat="43.21656" lon="6.0425">
        <ele>216.375</ele>
        <time>2020-10-11T07:21:40Z</time>
      </trkpt>
      <trkpt lat="43.21657" lon="6.0425">
        <ele>216.52734375</ele>
        <time>2020-10-11T07:21:41Z</time>
      </trkpt>
      <trkpt lat="43.21659" lon="6.04249">
        <ele>216.67578125</ele>
        <time>2020-10-11T07:21:42Z</time>
      </trkpt>
      <trkpt lat="43.2166" lon="6.04248">
        <ele>216.7265625</ele>
        <time>2020-10-11T07:21:43Z</time>
      </trkpt>
      <trkpt lat="43.21661" lon="6.04247">
        <ele>216.6171875</ele>
        <time>2020-10-11T07:21:44Z</time>
      </trkpt>
      <trkpt lat="43.21662" lon="6.04246">
        <ele>216.58984375</ele>
        <time>2020-10-11T07:21:45Z</time>
      </trkpt>
      <trkpt lat="43.21663" lon="6.04245">
        <ele>216.57421875</ele>
        <time>2020-10-11T07:21:46Z</time>
      </trkpt>
      <trkpt lat="43.21665" lon="6.04244">
        <ele>216.5859375</ele>
        <time>2020-10-11T07:21:47Z</time>
      </trkpt>
      <trkpt lat="43.21666" lon="6.04243">
        <ele>216.59375</ele>
        <time>2020-10-11T07:21:48Z</time>
      </trkpt>
      <trkpt lat="43.21667" lon="6.04242">
        <ele>216.578125</ele>
        <time>2020-10-11T07:21:49Z</time>
      </trkpt>
      <trkpt lat="43.21668" lon="6.04241">
        <ele>216.57421875</ele>
        <time>2020-10-11T07:21:50Z</time>
      </trkpt>
      <trkpt lat="43.2167" lon="6.0424">
        <ele>216.66015625</ele>
        <time>2020-10-11T07:21:51Z</time>
      </trkpt>
      <trkpt lat="43.21673" lon="6.04239">
        <ele>217.08203125</ele>
        <time>2020-10-11T07:22:04Z</time>
      </trkpt>
      <trkpt lat="43.21673" lon="6.04237">
        <ele>216.25390625</ele>
        <time>2020-10-11T07:22:31Z</time>
      </trkpt>
      <trkpt lat="43.21679" lon="6.04231">
        <ele>215.18359375</ele>
        <time>2020-10-11T07:22:47Z</time>
      </trkpt>
      <trkpt lat="43.21701" lon="6.04228">
        <ele>216.734375</ele>
        <time>2020-10-11T07:23:01Z</time>
      </trkpt>
      <trkpt lat="43.21709" lon="6.04233">
        <ele>217.40234375</ele>
        <time>2020-10-11T07:23:05Z</time>
      </trkpt>
      <trkpt lat="43.21711" lon="6.04234">
        <ele>217.7421875</ele>
        <time>2020-10-11T07:23:06Z</time>
      </trkpt>
      <trkpt lat="43.21712" lon="6.04236">
        <ele>218.203125</ele>
        <time>2020-10-11T07:23:07Z</time>
      </trkpt>
      <trkpt lat="43.21713" lon="6.04238">
        <ele>218.65625</ele>
        <time>2020-10-11T07:23:08Z</time>
      </trkpt>
      <trkpt lat="43.21712" lon="6.04242">
        <ele>219.87109375</ele>
        <time>2020-10-11T07:23:22Z</time>
      </trkpt>
      <trkpt lat="43.2171" lon="6.04242">
        <ele>220.09375</ele>
        <time>2020-10-11T07:23:36Z</time>
      </trkpt>
      <trkpt lat="43.21709" lon="6.04242">
        <ele>220.1328125</ele>
        <time>2020-10-11T07:23:37Z</time>
      </trkpt>
      <trkpt lat="43.2169" lon="6.04258">
        <ele>224.53125</ele>
        <time>2020-10-11T07:23:54Z</time>
      </trkpt>
      <trkpt lat="43.21685" lon="6.04264">
        <ele>225.83984375</ele>
        <time>2020-10-11T07:23:59Z</time>
      </trkpt>
      <trkpt lat="43.21684" lon="6.04268">
        <ele>226.87890625</ele>
        <time>2020-10-11T07:24:01Z</time>
      </trkpt>
      <trkpt lat="43.21678" lon="6.0428">
        <ele>228.93359375</ele>
        <time>2020-10-11T07:24:08Z</time>
      </trkpt>
      <trkpt lat="43.21678" lon="6.04282">
        <ele>229.28125</ele>
        <time>2020-10-11T07:24:09Z</time>
      </trkpt>
      <trkpt lat="43.21678" lon="6.04284">
        <ele>229.68359375</ele>
        <time>2020-10-11T07:24:10Z</time>
      </trkpt>
      <trkpt lat="43.21677" lon="6.04286">
        <ele>230.078125</ele>
        <time>2020-10-11T07:24:11Z</time>
      </trkpt>
      <trkpt lat="43.21676" lon="6.04289">
        <ele>230.43359375</ele>
        <time>2020-10-11T07:24:12Z</time>
      </trkpt>
      <trkpt lat="43.21676" lon="6.04291">
        <ele>230.80078125</ele>
        <time>2020-10-11T07:24:13Z</time>
      </trkpt>
      <trkpt lat="43.21675" lon="6.04292">
        <ele>231.0234375</ele>
        <time>2020-10-11T07:24:14Z</time>
      </trkpt>
      <trkpt lat="43.21675" lon="6.04294">
        <ele>231.3046875</ele>
        <time>2020-10-11T07:24:15Z</time>
      </trkpt>
      <trkpt lat="43.21674" lon="6.04295">
        <ele>231.58203125</ele>
        <time>2020-10-11T07:24:16Z</time>
      </trkpt>
      <trkpt lat="43.21673" lon="6.04297">
        <ele>231.7734375</ele>
        <time>2020-10-11T07:24:17Z</time>
      </trkpt>
      <trkpt lat="43.21673" lon="6.04298">
        <ele>231.97265625</ele>
        <time>2020-10-11T07:24:18Z</time>
      </trkpt>
      <trkpt lat="43.21672" lon="6.043">
        <ele>232.09375</ele>
        <time>2020-10-11T07:24:19Z</time>
      </trkpt>
      <trkpt lat="43.21671" lon="6.04301">
        <ele>232.22265625</ele>
        <time>2020-10-11T07:24:20Z</time>
      </trkpt>
      <trkpt lat="43.21671" lon="6.04303">
        <ele>232.40625</ele>
        <time>2020-10-11T07:24:21Z</time>
      </trkpt>
      <trkpt lat="43.2167" lon="6.04305">
        <ele>232.61328125</ele>
        <time>2020-10-11T07:24:22Z</time>
      </trkpt>
      <trkpt lat="43.21665" lon="6.04331">
        <ele>235.4296875</ele>
        <time>2020-10-11T07:24:36Z</time>
      </trkpt>
      <trkpt lat="43.21659" lon="6.04363">
        <ele>235.69140625</ele>
        <time>2020-10-11T07:24:53Z</time>
      </trkpt>
      <trkpt lat="43.21659" lon="6.04366">
        <ele>235.69140625</ele>
        <time>2020-10-11T07:24:55Z</time>
      </trkpt>
      <trkpt lat="43.21659" lon="6.04368">
        <ele>235.72265625</ele>
        <time>2020-10-11T07:24:56Z</time>
      </trkpt>
      <trkpt lat="43.2166" lon="6.0437">
        <ele>235.80078125</ele>
        <time>2020-10-11T07:24:57Z</time>
      </trkpt>
      <trkpt lat="43.21667" lon="6.04393">
        <ele>237.17578125</ele>
        <time>2020-10-11T07:25:09Z</time>
      </trkpt>
      <trkpt lat="43.21676" lon="6.04412">
        <ele>238.69140625</ele>
        <time>2020-10-11T07:25:19Z</time>
      </trkpt>
      <trkpt lat="43.21688" lon="6.0443">
        <ele>241.61328125</ele>
        <time>2020-10-11T07:25:30Z</time>
      </trkpt>
      <trkpt lat="43.2169" lon="6.0443">
        <ele>241.91015625</ele>
        <time>2020-10-11T07:25:31Z</time>
      </trkpt>
      <trkpt lat="43.21692" lon="6.04429">
        <ele>242.21484375</ele>
        <time>2020-10-11T07:25:32Z</time>
      </trkpt>
      <trkpt lat="43.21694" lon="6.04428">
        <ele>242.55078125</ele>
        <time>2020-10-11T07:25:33Z</time>
      </trkpt>
      <trkpt lat="43.21705" lon="6.04427">
        <ele>243.8515625</ele>
        <time>2020-10-11T07:25:39Z</time>
      </trkpt>
      <trkpt lat="43.21708" lon="6.04425">
        <ele>243.88671875</ele>
        <time>2020-10-11T07:25:41Z</time>
      </trkpt>
      <trkpt lat="43.21707" lon="6.04418">
        <ele>243.47265625</ele>
        <time>2020-10-11T07:25:44Z</time>
      </trkpt>
      <trkpt lat="43.21704" lon="6.04409">
        <ele>242.99609375</ele>
        <time>2020-10-11T07:25:48Z</time>
      </trkpt>
      <trkpt lat="43.21699" lon="6.04388">
        <ele>242.80859375</ele>
        <time>2020-10-11T07:25:56Z</time>
      </trkpt>
      <trkpt lat="43.21698" lon="6.04379">
        <ele>242.62890625</ele>
        <time>2020-10-11T07:25:59Z</time>
      </trkpt>
      <trkpt lat="43.21693" lon="6.04373">
        <ele>241.73046875</ele>
        <time>2020-10-11T07:26:05Z</time>
      </trkpt>
      <trkpt lat="43.21693" lon="6.04375">
        <ele>241.77734375</ele>
        <time>2020-10-11T07:26:29Z</time>
      </trkpt>
      <trkpt lat="43.21693" lon="6.04375">
        <ele>241.74609375</ele>
        <time>2020-10-11T07:26:30Z</time>
      </trkpt>
      <trkpt lat="43.21692" lon="6.04372">
        <ele>241.5546875</ele>
        <time>2020-10-11T07:26:56Z</time>
      </trkpt>
      <trkpt lat="43.21692" lon="6.04373">
        <ele>241.55078125</ele>
        <time>2020-10-11T07:27:08Z</time>
      </trkpt>
      <trkpt lat="43.21692" lon="6.04372">
        <ele>241.5234375</ele>
        <time>2020-10-11T07:27:12Z</time>
      </trkpt>
      <trkpt lat="43.21692" lon="6.04372">
        <ele>241.5234375</ele>
        <time>2020-10-11T07:27:30Z</time>
      </trkpt>
      <trkpt lat="43.21691" lon="6.04373">
        <ele>241.4140625</ele>
        <time>2020-10-11T07:27:37Z</time>
      </trkpt>
      <trkpt lat="43.21691" lon="6.04373">
        <ele>241.4375</ele>
        <time>2020-10-11T07:27:39Z</time>
      </trkpt>
      <trkpt lat="43.21691" lon="6.04373">
        <ele>241.51171875</ele>
        <time>2020-10-11T07:27:41Z</time>
      </trkpt>
      <trkpt lat="43.21692" lon="6.04374">
        <ele>241.5625</ele>
        <time>2020-10-11T07:27:43Z</time>
      </trkpt>
      <trkpt lat="43.21691" lon="6.04374">
        <ele>241.49609375</ele>
        <time>2020-10-11T07:28:12Z</time>
      </trkpt>
      <trkpt lat="43.21691" lon="6.04374">
        <ele>241.45703125</ele>
        <time>2020-10-11T07:28:18Z</time>
      </trkpt>
      <trkpt lat="43.21691" lon="6.04373">
        <ele>241.484375</ele>
        <time>2020-10-11T07:28:27Z</time>
      </trkpt>
      <trkpt lat="43.2169" lon="6.04374">
        <ele>241.36328125</ele>
        <time>2020-10-11T07:29:01Z</time>
      </trkpt>
      <trkpt lat="43.21692" lon="6.04376">
        <ele>241.6875</ele>
        <time>2020-10-11T07:29:22Z</time>
      </trkpt>
      <trkpt lat="43.21694" lon="6.04386">
        <ele>242.14453125</ele>
        <time>2020-10-11T07:29:35Z</time>
      </trkpt>
      <trkpt lat="43.21695" lon="6.04388">
        <ele>242.22265625</ele>
        <time>2020-10-11T07:29:36Z</time>
      </trkpt>
      <trkpt lat="43.21698" lon="6.04395">
        <ele>242.625</ele>
        <time>2020-10-11T07:29:39Z</time>
      </trkpt>
      <trkpt lat="43.21699" lon="6.04398">
        <ele>242.8671875</ele>
        <time>2020-10-11T07:29:40Z</time>
      </trkpt>
      <trkpt lat="43.21701" lon="6.04401">
        <ele>242.98828125</ele>
        <time>2020-10-11T07:29:41Z</time>
      </trkpt>
      <trkpt lat="43.21702" lon="6.04406">
        <ele>242.98828125</ele>
        <time>2020-10-11T07:29:42Z</time>
      </trkpt>
      <trkpt lat="43.21705" lon="6.04423">
        <ele>243.64453125</ele>
        <time>2020-10-11T07:29:48Z</time>
      </trkpt>
      <trkpt lat="43.21706" lon="6.04424">
        <ele>243.74609375</ele>
        <time>2020-10-11T07:29:49Z</time>
      </trkpt>
      <trkpt lat="43.21707" lon="6.04425">
        <ele>243.8515625</ele>
        <time>2020-10-11T07:29:50Z</time>
      </trkpt>
      <trkpt lat="43.21708" lon="6.04426">
        <ele>243.9296875</ele>
        <time>2020-10-11T07:29:51Z</time>
      </trkpt>
      <trkpt lat="43.21712" lon="6.04425">
        <ele>244.0390625</ele>
        <time>2020-10-11T07:29:54Z</time>
      </trkpt>
      <trkpt lat="43.21713" lon="6.04425">
        <ele>244.06640625</ele>
        <time>2020-10-11T07:29:55Z</time>
      </trkpt>
      <trkpt lat="43.21719" lon="6.04425">
        <ele>244.2890625</ele>
        <time>2020-10-11T07:29:58Z</time>
      </trkpt>
      <trkpt lat="43.21721" lon="6.04424">
        <ele>244.3046875</ele>
        <time>2020-10-11T07:29:59Z</time>
      </trkpt>
      <trkpt lat="43.21723" lon="6.04423">
        <ele>244.265625</ele>
        <time>2020-10-11T07:30:00Z</time>
      </trkpt>
      <trkpt lat="43.21725" lon="6.04421">
        <ele>244.15625</ele>
        <time>2020-10-11T07:30:01Z</time>
      </trkpt>
      <trkpt lat="43.21726" lon="6.04419">
        <ele>244.0078125</ele>
        <time>2020-10-11T07:30:02Z</time>
      </trkpt>
      <trkpt lat="43.21728" lon="6.04418">
        <ele>243.9375</ele>
        <time>2020-10-11T07:30:03Z</time>
      </trkpt>
      <trkpt lat="43.2173" lon="6.04418">
        <ele>243.75390625</ele>
        <time>2020-10-11T07:30:04Z</time>
      </trkpt>
      <trkpt lat="43.21733" lon="6.04419">
        <ele>243.57421875</ele>
        <time>2020-10-11T07:30:05Z</time>
      </trkpt>
      <trkpt lat="43.21736" lon="6.04422">
        <ele>243.76171875</ele>
        <time>2020-10-11T07:30:13Z</time>
      </trkpt>
      <trkpt lat="43.21737" lon="6.04425">
        <ele>243.984375</ele>
        <time>2020-10-11T07:30:14Z</time>
      </trkpt>
      <trkpt lat="43.21739" lon="6.04428">
        <ele>244.296875</ele>
        <time>2020-10-11T07:30:15Z</time>
      </trkpt>
      <trkpt lat="43.2174" lon="6.0443">
        <ele>244.61328125</ele>
        <time>2020-10-11T07:30:16Z</time>
      </trkpt>
      <trkpt lat="43.21741" lon="6.04432">
        <ele>244.80859375</ele>
        <time>2020-10-11T07:30:17Z</time>
      </trkpt>
      <trkpt lat="43.21757" lon="6.04446">
        <ele>246.41015625</ele>
        <time>2020-10-11T07:30:27Z</time>
      </trkpt>
      <trkpt lat="43.21762" lon="6.04446">
        <ele>246.20703125</ele>
        <time>2020-10-11T07:30:29Z</time>
      </trkpt>
      <trkpt lat="43.21765" lon="6.04446">
        <ele>245.92578125</ele>
        <time>2020-10-11T07:30:30Z</time>
      </trkpt>
      <trkpt lat="43.21797" lon="6.04448">
        <ele>247.3359375</ele>
        <time>2020-10-11T07:30:36Z</time>
      </trkpt>
      <trkpt lat="43.21803" lon="6.04451">
        <ele>248.87109375</ele>
        <time>2020-10-11T07:30:37Z</time>
      </trkpt>
      <trkpt lat="43.21809" lon="6.04455">
        <ele>250.51171875</ele>
        <time>2020-10-11T07:30:38Z</time>
      </trkpt>
      <trkpt lat="43.21815" lon="6.04457">
        <ele>251.75390625</ele>
        <time>2020-10-11T07:30:39Z</time>
      </trkpt>
      <trkpt lat="43.21821" lon="6.04456">
        <ele>252.32421875</ele>
        <time>2020-10-11T07:30:40Z</time>
      </trkpt>
      <trkpt lat="43.21826" lon="6.04453">
        <ele>252.25</ele>
        <time>2020-10-11T07:30:41Z</time>
      </trkpt>
      <trkpt lat="43.2183" lon="6.04448">
        <ele>251.75</ele>
        <time>2020-10-11T07:30:42Z</time>
      </trkpt>
      <trkpt lat="43.21834" lon="6.04441">
        <ele>251.0390625</ele>
        <time>2020-10-11T07:30:43Z</time>
      </trkpt>
      <trkpt lat="43.21837" lon="6.04434">
        <ele>250.2890625</ele>
        <time>2020-10-11T07:30:44Z</time>
      </trkpt>
      <trkpt lat="43.2184" lon="6.04426">
        <ele>249.56640625</ele>
        <time>2020-10-11T07:30:45Z</time>
      </trkpt>
      <trkpt lat="43.21843" lon="6.04418">
        <ele>248.6171875</ele>
        <time>2020-10-11T07:30:46Z</time>
      </trkpt>
      <trkpt lat="43.21848" lon="6.04402">
        <ele>246.30859375</ele>
        <time>2020-10-11T07:30:48Z</time>
      </trkpt>
      <trkpt lat="43.21855" lon="6.04387">
        <ele>243.6875</ele>
        <time>2020-10-11T07:30:50Z</time>
      </trkpt>
      <trkpt lat="43.2186" lon="6.0438">
        <ele>242.4609375</ele>
        <time>2020-10-11T07:30:51Z</time>
      </trkpt>
      <trkpt lat="43.21864" lon="6.04374">
        <ele>241.33984375</ele>
        <time>2020-10-11T07:30:52Z</time>
      </trkpt>
      <trkpt lat="43.21869" lon="6.0437">
        <ele>240.10546875</ele>
        <time>2020-10-11T07:30:53Z</time>
      </trkpt>
      <trkpt lat="43.21875" lon="6.04367">
        <ele>238.89453125</ele>
        <time>2020-10-11T07:30:54Z</time>
      </trkpt>
      <trkpt lat="43.21881" lon="6.04366">
        <ele>238</ele>
        <time>2020-10-11T07:30:55Z</time>
      </trkpt>
      <trkpt lat="43.21888" lon="6.04367">
        <ele>237.49609375</ele>
        <time>2020-10-11T07:30:56Z</time>
      </trkpt>
      <trkpt lat="43.21894" lon="6.04369">
        <ele>237.33203125</ele>
        <time>2020-10-11T07:30:57Z</time>
      </trkpt>
      <trkpt lat="43.21899" lon="6.04372">
        <ele>236.65625</ele>
        <time>2020-10-11T07:30:58Z</time>
      </trkpt>
      <trkpt lat="43.21905" lon="6.04376">
        <ele>236</ele>
        <time>2020-10-11T07:30:59Z</time>
      </trkpt>
      <trkpt lat="43.2191" lon="6.0438">
        <ele>235.62890625</ele>
        <time>2020-10-11T07:31:00Z</time>
      </trkpt>
      <trkpt lat="43.21926" lon="6.04394">
        <ele>234.1640625</ele>
        <time>2020-10-11T07:31:03Z</time>
      </trkpt>
      <trkpt lat="43.21952" lon="6.04427">
        <ele>231.55078125</ele>
        <time>2020-10-11T07:31:10Z</time>
      </trkpt>
      <trkpt lat="43.21967" lon="6.04451">
        <ele>231.96484375</ele>
        <time>2020-10-11T07:31:15Z</time>
      </trkpt>
      <trkpt lat="43.2197" lon="6.04457">
        <ele>232.4375</ele>
        <time>2020-10-11T07:31:16Z</time>
      </trkpt>
      <trkpt lat="43.21972" lon="6.04464">
        <ele>232.9921875</ele>
        <time>2020-10-11T07:31:17Z</time>
      </trkpt>
      <trkpt lat="43.21975" lon="6.0447">
        <ele>233.40234375</ele>
        <time>2020-10-11T07:31:18Z</time>
      </trkpt>
      <trkpt lat="43.21978" lon="6.04477">
        <ele>233.9375</ele>
        <time>2020-10-11T07:31:19Z</time>
      </trkpt>
      <trkpt lat="43.21981" lon="6.04484">
        <ele>234.48046875</ele>
        <time>2020-10-11T07:31:20Z</time>
      </trkpt>
      <trkpt lat="43.21985" lon="6.0449">
        <ele>234.7265625</ele>
        <time>2020-10-11T07:31:21Z</time>
      </trkpt>
      <trkpt lat="43.21993" lon="6.04503">
        <ele>234.37109375</ele>
        <time>2020-10-11T07:31:23Z</time>
      </trkpt>
      <trkpt lat="43.2203" lon="6.04559">
        <ele>232.7109375</ele>
        <time>2020-10-11T07:31:32Z</time>
      </trkpt>
      <trkpt lat="43.22033" lon="6.04566">
        <ele>233.2421875</ele>
        <time>2020-10-11T07:31:33Z</time>
      </trkpt>
      <trkpt lat="43.2204" lon="6.04582">
        <ele>235.62890625</ele>
        <time>2020-10-11T07:31:35Z</time>
      </trkpt>
      <trkpt lat="43.22044" lon="6.0459">
        <ele>236.84765625</ele>
        <time>2020-10-11T07:31:36Z</time>
      </trkpt>
      <trkpt lat="43.2205" lon="6.04597">
        <ele>237.94921875</ele>
        <time>2020-10-11T07:31:37Z</time>
      </trkpt>
      <trkpt lat="43.22056" lon="6.04601">
        <ele>238.70703125</ele>
        <time>2020-10-11T07:31:38Z</time>
      </trkpt>
      <trkpt lat="43.22061" lon="6.04604">
        <ele>239.0625</ele>
        <time>2020-10-11T07:31:39Z</time>
      </trkpt>
      <trkpt lat="43.22067" lon="6.04603">
        <ele>239.28125</ele>
        <time>2020-10-11T07:31:40Z</time>
      </trkpt>
      <trkpt lat="43.22072" lon="6.04599">
        <ele>238.703125</ele>
        <time>2020-10-11T07:31:41Z</time>
      </trkpt>
      <trkpt lat="43.22077" lon="6.04593">
        <ele>237.59375</ele>
        <time>2020-10-11T07:31:42Z</time>
      </trkpt>
      <trkpt lat="43.22092" lon="6.04574">
        <ele>233.9296875</ele>
        <time>2020-10-11T07:31:45Z</time>
      </trkpt>
      <trkpt lat="43.22097" lon="6.04569">
        <ele>233.08203125</ele>
        <time>2020-10-11T07:31:46Z</time>
      </trkpt>
      <trkpt lat="43.22102" lon="6.04565">
        <ele>232.421875</ele>
        <time>2020-10-11T07:31:47Z</time>
      </trkpt>
      <trkpt lat="43.22112" lon="6.04559">
        <ele>231.66015625</ele>
        <time>2020-10-11T07:31:49Z</time>
      </trkpt>
      <trkpt lat="43.22118" lon="6.04557">
        <ele>231.45703125</ele>
        <time>2020-10-11T07:31:50Z</time>
      </trkpt>
      <trkpt lat="43.22123" lon="6.04556">
        <ele>231.109375</ele>
        <time>2020-10-11T07:31:51Z</time>
      </trkpt>
      <trkpt lat="43.22128" lon="6.04556">
        <ele>231.03125</ele>
        <time>2020-10-11T07:31:52Z</time>
      </trkpt>
      <trkpt lat="43.22133" lon="6.04556">
        <ele>231.01953125</ele>
        <time>2020-10-11T07:31:53Z</time>
      </trkpt>
      <trkpt lat="43.22158" lon="6.04565">
        <ele>233.16796875</ele>
        <time>2020-10-11T07:32:03Z</time>
      </trkpt>
      <trkpt lat="43.22181" lon="6.04578">
        <ele>234.65625</ele>
        <time>2020-10-11T07:32:16Z</time>
      </trkpt>
      <trkpt lat="43.22189" lon="6.04586">
        <ele>235.3828125</ele>
        <time>2020-10-11T07:32:29Z</time>
      </trkpt>
      <trkpt lat="43.222" lon="6.046">
        <ele>236.40234375</ele>
        <time>2020-10-11T07:32:38Z</time>
      </trkpt>
      <trkpt lat="43.22223" lon="6.04622">
        <ele>238.64453125</ele>
        <time>2020-10-11T07:32:56Z</time>
      </trkpt>
      <trkpt lat="43.22234" lon="6.04636">
        <ele>240.46484375</ele>
        <time>2020-10-11T07:33:05Z</time>
      </trkpt>
      <trkpt lat="43.22238" lon="6.04642">
        <ele>241.3046875</ele>
        <time>2020-10-11T07:33:09Z</time>
      </trkpt>
      <trkpt lat="43.22247" lon="6.0467">
        <ele>244.23046875</ele>
        <time>2020-10-11T07:33:23Z</time>
      </trkpt>
      <trkpt lat="43.22251" lon="6.04682">
        <ele>244.9921875</ele>
        <time>2020-10-11T07:33:30Z</time>
      </trkpt>
      <trkpt lat="43.22252" lon="6.04683">
        <ele>245.015625</ele>
        <time>2020-10-11T07:33:31Z</time>
      </trkpt>
      <trkpt lat="43.22253" lon="6.04686">
        <ele>245.140625</ele>
        <time>2020-10-11T07:33:32Z</time>
      </trkpt>
      <trkpt lat="43.22254" lon="6.04688">
        <ele>245.29296875</ele>
        <time>2020-10-11T07:33:33Z</time>
      </trkpt>
      <trkpt lat="43.22254" lon="6.04689">
        <ele>245.44921875</ele>
        <time>2020-10-11T07:33:34Z</time>
      </trkpt>
      <trkpt lat="43.22255" lon="6.04691">
        <ele>245.51953125</ele>
        <time>2020-10-11T07:33:35Z</time>
      </trkpt>
      <trkpt lat="43.22256" lon="6.04693">
        <ele>245.640625</ele>
        <time>2020-10-11T07:33:36Z</time>
      </trkpt>
      <trkpt lat="43.22256" lon="6.04695">
        <ele>245.9609375</ele>
        <time>2020-10-11T07:33:37Z</time>
      </trkpt>
      <trkpt lat="43.22258" lon="6.04698">
        <ele>246.55859375</ele>
        <time>2020-10-11T07:33:39Z</time>
      </trkpt>
      <trkpt lat="43.22258" lon="6.04699">
        <ele>246.828125</ele>
        <time>2020-10-11T07:33:40Z</time>
      </trkpt>
      <trkpt lat="43.22259" lon="6.04701">
        <ele>247.15625</ele>
        <time>2020-10-11T07:33:41Z</time>
      </trkpt>
      <trkpt lat="43.2226" lon="6.04703">
        <ele>247.51171875</ele>
        <time>2020-10-11T07:33:42Z</time>
      </trkpt>
      <trkpt lat="43.22261" lon="6.04705">
        <ele>247.87109375</ele>
        <time>2020-10-11T07:33:43Z</time>
      </trkpt>
      <trkpt lat="43.2227" lon="6.04729">
        <ele>251.703125</ele>
        <time>2020-10-11T07:33:59Z</time>
      </trkpt>
      <trkpt lat="43.2227" lon="6.0473">
        <ele>251.73046875</ele>
        <time>2020-10-11T07:34:19Z</time>
      </trkpt>
      <trkpt lat="43.2227" lon="6.04731">
        <ele>251.85546875</ele>
        <time>2020-10-11T07:34:27Z</time>
      </trkpt>
      <trkpt lat="43.22271" lon="6.04738">
        <ele>252.4453125</ele>
        <time>2020-10-11T07:34:56Z</time>
      </trkpt>
      <trkpt lat="43.22275" lon="6.04758">
        <ele>255.64453125</ele>
        <time>2020-10-11T07:35:11Z</time>
      </trkpt>
      <trkpt lat="43.22275" lon="6.04776">
        <ele>258.3359375</ele>
        <time>2020-10-11T07:35:23Z</time>
      </trkpt>
      <trkpt lat="43.22275" lon="6.04781">
        <ele>258.90625</ele>
        <time>2020-10-11T07:35:26Z</time>
      </trkpt>
      <trkpt lat="43.22275" lon="6.04782">
        <ele>259.1484375</ele>
        <time>2020-10-11T07:35:27Z</time>
      </trkpt>
      <trkpt lat="43.22276" lon="6.04783">
        <ele>259.453125</ele>
        <time>2020-10-11T07:35:28Z</time>
      </trkpt>
      <trkpt lat="43.22274" lon="6.04796">
        <ele>260.83984375</ele>
        <time>2020-10-11T07:35:37Z</time>
      </trkpt>
      <trkpt lat="43.22274" lon="6.04806">
        <ele>261.7578125</ele>
        <time>2020-10-11T07:35:43Z</time>
      </trkpt>
      <trkpt lat="43.22274" lon="6.04823">
        <ele>263.859375</ele>
        <time>2020-10-11T07:35:55Z</time>
      </trkpt>
      <trkpt lat="43.22274" lon="6.04825">
        <ele>264</ele>
        <time>2020-10-11T07:35:56Z</time>
      </trkpt>
      <trkpt lat="43.22275" lon="6.04827">
        <ele>264.25390625</ele>
        <time>2020-10-11T07:35:57Z</time>
      </trkpt>
      <trkpt lat="43.22274" lon="6.0484">
        <ele>265.97265625</ele>
        <time>2020-10-11T07:36:05Z</time>
      </trkpt>
      <trkpt lat="43.22274" lon="6.04842">
        <ele>266.1484375</ele>
        <time>2020-10-11T07:36:06Z</time>
      </trkpt>
      <trkpt lat="43.22274" lon="6.04843">
        <ele>266.3671875</ele>
        <time>2020-10-11T07:36:07Z</time>
      </trkpt>
      <trkpt lat="43.22274" lon="6.04845">
        <ele>266.57421875</ele>
        <time>2020-10-11T07:36:08Z</time>
      </trkpt>
      <trkpt lat="43.22274" lon="6.04847">
        <ele>266.78515625</ele>
        <time>2020-10-11T07:36:09Z</time>
      </trkpt>
      <trkpt lat="43.22274" lon="6.04849">
        <ele>266.98046875</ele>
        <time>2020-10-11T07:36:10Z</time>
      </trkpt>
      <trkpt lat="43.2227" lon="6.04869">
        <ele>269.046875</ele>
        <time>2020-10-11T07:36:22Z</time>
      </trkpt>
      <trkpt lat="43.2227" lon="6.04871">
        <ele>269.265625</ele>
        <time>2020-10-11T07:36:23Z</time>
      </trkpt>
      <trkpt lat="43.22268" lon="6.04879">
        <ele>269.8828125</ele>
        <time>2020-10-11T07:36:36Z</time>
      </trkpt>
      <trkpt lat="43.22267" lon="6.04886">
        <ele>270.53515625</ele>
        <time>2020-10-11T07:36:44Z</time>
      </trkpt>
      <trkpt lat="43.22265" lon="6.04888">
        <ele>270.47265625</ele>
        <time>2020-10-11T07:36:46Z</time>
      </trkpt>
      <trkpt lat="43.22264" lon="6.04889">
        <ele>270.3203125</ele>
        <time>2020-10-11T07:36:47Z</time>
      </trkpt>
      <trkpt lat="43.22263" lon="6.04892">
        <ele>270.453125</ele>
        <time>2020-10-11T07:36:48Z</time>
      </trkpt>
      <trkpt lat="43.22255" lon="6.04915">
        <ele>271.58203125</ele>
        <time>2020-10-11T07:37:01Z</time>
      </trkpt>
      <trkpt lat="43.22247" lon="6.0494">
        <ele>273.62890625</ele>
        <time>2020-10-11T07:37:16Z</time>
      </trkpt>
      <trkpt lat="43.22242" lon="6.04951">
        <ele>274.5</ele>
        <time>2020-10-11T07:37:23Z</time>
      </trkpt>
      <trkpt lat="43.22241" lon="6.04952">
        <ele>274.5625</ele>
        <time>2020-10-11T07:37:24Z</time>
      </trkpt>
      <trkpt lat="43.2224" lon="6.04953">
        <ele>274.58984375</ele>
        <time>2020-10-11T07:37:25Z</time>
      </trkpt>
      <trkpt lat="43.22239" lon="6.04955">
        <ele>274.60546875</ele>
        <time>2020-10-11T07:37:26Z</time>
      </trkpt>
      <trkpt lat="43.22238" lon="6.04956">
        <ele>274.62890625</ele>
        <time>2020-10-11T07:37:27Z</time>
      </trkpt>
      <trkpt lat="43.22237" lon="6.04957">
        <ele>274.6171875</ele>
        <time>2020-10-11T07:37:28Z</time>
      </trkpt>
      <trkpt lat="43.22234" lon="6.04962">
        <ele>274.83984375</ele>
        <time>2020-10-11T07:37:32Z</time>
      </trkpt>
      <trkpt lat="43.22234" lon="6.04965">
        <ele>275.16015625</ele>
        <time>2020-10-11T07:37:33Z</time>
      </trkpt>
      <trkpt lat="43.22234" lon="6.04967">
        <ele>275.37890625</ele>
        <time>2020-10-11T07:37:34Z</time>
      </trkpt>
      <trkpt lat="43.22234" lon="6.04969">
        <ele>275.5</ele>
        <time>2020-10-11T07:37:35Z</time>
      </trkpt>
      <trkpt lat="43.22233" lon="6.0497">
        <ele>275.56640625</ele>
        <time>2020-10-11T07:37:36Z</time>
      </trkpt>
      <trkpt lat="43.22232" lon="6.04972">
        <ele>275.62109375</ele>
        <time>2020-10-11T07:37:37Z</time>
      </trkpt>
      <trkpt lat="43.22232" lon="6.04973">
        <ele>275.65625</ele>
        <time>2020-10-11T07:37:38Z</time>
      </trkpt>
      <trkpt lat="43.22231" lon="6.04975">
        <ele>275.72265625</ele>
        <time>2020-10-11T07:37:39Z</time>
      </trkpt>
      <trkpt lat="43.2223" lon="6.04977">
        <ele>275.796875</ele>
        <time>2020-10-11T07:37:40Z</time>
      </trkpt>
      <trkpt lat="43.2223" lon="6.04979">
        <ele>275.9296875</ele>
        <time>2020-10-11T07:37:41Z</time>
      </trkpt>
      <trkpt lat="43.22229" lon="6.04981">
        <ele>276.08984375</ele>
        <time>2020-10-11T07:37:42Z</time>
      </trkpt>
      <trkpt lat="43.22229" lon="6.04983">
        <ele>276.3125</ele>
        <time>2020-10-11T07:37:43Z</time>
      </trkpt>
      <trkpt lat="43.2223" lon="6.04985">
        <ele>276.5703125</ele>
        <time>2020-10-11T07:37:44Z</time>
      </trkpt>
      <trkpt lat="43.2223" lon="6.04987">
        <ele>276.8203125</ele>
        <time>2020-10-11T07:37:45Z</time>
      </trkpt>
      <trkpt lat="43.2223" lon="6.04989">
        <ele>277.078125</ele>
        <time>2020-10-11T07:37:46Z</time>
      </trkpt>
      <trkpt lat="43.22231" lon="6.04995">
        <ele>278.03125</ele>
        <time>2020-10-11T07:37:50Z</time>
      </trkpt>
      <trkpt lat="43.22227" lon="6.05021">
        <ele>280.92578125</ele>
        <time>2020-10-11T07:38:04Z</time>
      </trkpt>
      <trkpt lat="43.22227" lon="6.05024">
        <ele>281.453125</ele>
        <time>2020-10-11T07:38:06Z</time>
      </trkpt>
      <trkpt lat="43.22222" lon="6.05049">
        <ele>284.59375</ele>
        <time>2020-10-11T07:38:19Z</time>
      </trkpt>
      <trkpt lat="43.22222" lon="6.05051">
        <ele>284.73046875</ele>
        <time>2020-10-11T07:38:20Z</time>
      </trkpt>
      <trkpt lat="43.22213" lon="6.05067">
        <ele>286.47265625</ele>
        <time>2020-10-11T07:38:29Z</time>
      </trkpt>
      <trkpt lat="43.22213" lon="6.05068">
        <ele>286.6953125</ele>
        <time>2020-10-11T07:38:30Z</time>
      </trkpt>
      <trkpt lat="43.22212" lon="6.0507">
        <ele>286.8828125</ele>
        <time>2020-10-11T07:38:31Z</time>
      </trkpt>
      <trkpt lat="43.2221" lon="6.05072">
        <ele>287.0546875</ele>
        <time>2020-10-11T07:38:32Z</time>
      </trkpt>
      <trkpt lat="43.22209" lon="6.05073">
        <ele>287.16015625</ele>
        <time>2020-10-11T07:38:33Z</time>
      </trkpt>
      <trkpt lat="43.22207" lon="6.05074">
        <ele>287.265625</ele>
        <time>2020-10-11T07:38:34Z</time>
      </trkpt>
      <trkpt lat="43.22206" lon="6.05076">
        <ele>287.41015625</ele>
        <time>2020-10-11T07:38:35Z</time>
      </trkpt>
      <trkpt lat="43.22205" lon="6.05077">
        <ele>287.50390625</ele>
        <time>2020-10-11T07:38:36Z</time>
      </trkpt>
      <trkpt lat="43.22204" lon="6.05078">
        <ele>287.58984375</ele>
        <time>2020-10-11T07:38:37Z</time>
      </trkpt>
      <trkpt lat="43.22197" lon="6.05089">
        <ele>288.359375</ele>
        <time>2020-10-11T07:38:44Z</time>
      </trkpt>
      <trkpt lat="43.22197" lon="6.05091">
        <ele>288.53125</ele>
        <time>2020-10-11T07:38:45Z</time>
      </trkpt>
      <trkpt lat="43.22196" lon="6.05093">
        <ele>288.70703125</ele>
        <time>2020-10-11T07:38:46Z</time>
      </trkpt>
      <trkpt lat="43.22195" lon="6.05094">
        <ele>288.81640625</ele>
        <time>2020-10-11T07:38:47Z</time>
      </trkpt>
      <trkpt lat="43.22194" lon="6.05096">
        <ele>288.9453125</ele>
        <time>2020-10-11T07:38:48Z</time>
      </trkpt>
      <trkpt lat="43.22186" lon="6.05109">
        <ele>290.140625</ele>
        <time>2020-10-11T07:38:56Z</time>
      </trkpt>
      <trkpt lat="43.22183" lon="6.05117">
        <ele>290.8828125</ele>
        <time>2020-10-11T07:39:01Z</time>
      </trkpt>
      <trkpt lat="43.22182" lon="6.05119">
        <ele>290.9765625</ele>
        <time>2020-10-11T07:39:02Z</time>
      </trkpt>
      <trkpt lat="43.22169" lon="6.05132">
        <ele>291.90234375</ele>
        <time>2020-10-11T07:39:15Z</time>
      </trkpt>
      <trkpt lat="43.22155" lon="6.05156">
        <ele>292.28515625</ele>
        <time>2020-10-11T07:39:28Z</time>
      </trkpt>
      <trkpt lat="43.22155" lon="6.05163">
        <ele>292.4296875</ele>
        <time>2020-10-11T07:39:43Z</time>
      </trkpt>
      <trkpt lat="43.22154" lon="6.05165">
        <ele>292.42578125</ele>
        <time>2020-10-11T07:40:07Z</time>
      </trkpt>
      <trkpt lat="43.22153" lon="6.05164">
        <ele>292.37109375</ele>
        <time>2020-10-11T07:40:38Z</time>
      </trkpt>
      <trkpt lat="43.22152" lon="6.05163">
        <ele>292.31640625</ele>
        <time>2020-10-11T07:41:07Z</time>
      </trkpt>
      <trkpt lat="43.22156" lon="6.05164">
        <ele>292.49609375</ele>
        <time>2020-10-11T07:41:32Z</time>
      </trkpt>
      <trkpt lat="43.22154" lon="6.05164">
        <ele>292.40625</ele>
        <time>2020-10-11T07:42:00Z</time>
      </trkpt>
      <trkpt lat="43.22156" lon="6.05182">
        <ele>292.77734375</ele>
        <time>2020-10-11T07:42:12Z</time>
      </trkpt>
      <trkpt lat="43.22159" lon="6.05207">
        <ele>293.7734375</ele>
        <time>2020-10-11T07:42:20Z</time>
      </trkpt>
      <trkpt lat="43.22164" lon="6.05225">
        <ele>294.31640625</ele>
        <time>2020-10-11T07:42:26Z</time>
      </trkpt>
      <trkpt lat="43.22165" lon="6.05228">
        <ele>294.37109375</ele>
        <time>2020-10-11T07:42:27Z</time>
      </trkpt>
      <trkpt lat="43.22172" lon="6.05244">
        <ele>295</ele>
        <time>2020-10-11T07:42:33Z</time>
      </trkpt>
      <trkpt lat="43.22191" lon="6.05278">
        <ele>297.671875</ele>
        <time>2020-10-11T07:42:46Z</time>
      </trkpt>
      <trkpt lat="43.22206" lon="6.05292">
        <ele>300.265625</ele>
        <time>2020-10-11T07:42:57Z</time>
      </trkpt>
      <trkpt lat="43.22209" lon="6.05292">
        <ele>300.9375</ele>
        <time>2020-10-11T07:43:13Z</time>
      </trkpt>
      <trkpt lat="43.2221" lon="6.05292">
        <ele>301.2734375</ele>
        <time>2020-10-11T07:43:14Z</time>
      </trkpt>
      <trkpt lat="43.22212" lon="6.05292">
        <ele>301.6328125</ele>
        <time>2020-10-11T07:43:15Z</time>
      </trkpt>
      <trkpt lat="43.22223" lon="6.05292">
        <ele>304.109375</ele>
        <time>2020-10-11T07:43:21Z</time>
      </trkpt>
      <trkpt lat="43.22226" lon="6.05293">
        <ele>304.65625</ele>
        <time>2020-10-11T07:43:22Z</time>
      </trkpt>
      <trkpt lat="43.22228" lon="6.05295">
        <ele>305.2265625</ele>
        <time>2020-10-11T07:43:23Z</time>
      </trkpt>
      <trkpt lat="43.22233" lon="6.05302">
        <ele>306.88671875</ele>
        <time>2020-10-11T07:43:27Z</time>
      </trkpt>
      <trkpt lat="43.22234" lon="6.05303">
        <ele>307.11328125</ele>
        <time>2020-10-11T07:43:28Z</time>
      </trkpt>
      <trkpt lat="43.22234" lon="6.05305">
        <ele>307.22265625</ele>
        <time>2020-10-11T07:43:29Z</time>
      </trkpt>
      <trkpt lat="43.22234" lon="6.05306">
        <ele>307.13671875</ele>
        <time>2020-10-11T07:43:30Z</time>
      </trkpt>
      <trkpt lat="43.22232" lon="6.05313">
        <ele>306.39453125</ele>
        <time>2020-10-11T07:43:34Z</time>
      </trkpt>
      <trkpt lat="43.22231" lon="6.05315">
        <ele>306.1875</ele>
        <time>2020-10-11T07:43:35Z</time>
      </trkpt>
      <trkpt lat="43.22231" lon="6.05316">
        <ele>305.96875</ele>
        <time>2020-10-11T07:43:36Z</time>
      </trkpt>
      <trkpt lat="43.2223" lon="6.05318">
        <ele>305.703125</ele>
        <time>2020-10-11T07:43:37Z</time>
      </trkpt>
      <trkpt lat="43.22229" lon="6.0532">
        <ele>305.45703125</ele>
        <time>2020-10-11T07:43:38Z</time>
      </trkpt>
      <trkpt lat="43.22228" lon="6.05323">
        <ele>305.09765625</ele>
        <time>2020-10-11T07:43:39Z</time>
      </trkpt>
      <trkpt lat="43.22227" lon="6.05327">
        <ele>304.75390625</ele>
        <time>2020-10-11T07:43:40Z</time>
      </trkpt>
      <trkpt lat="43.22227" lon="6.05331">
        <ele>304.3984375</ele>
        <time>2020-10-11T07:43:41Z</time>
      </trkpt>
      <trkpt lat="43.22227" lon="6.05334">
        <ele>304.15234375</ele>
        <time>2020-10-11T07:43:42Z</time>
      </trkpt>
      <trkpt lat="43.22232" lon="6.05362">
        <ele>303.7890625</ele>
        <time>2020-10-11T07:43:53Z</time>
      </trkpt>
      <trkpt lat="43.22237" lon="6.05378">
        <ele>304.3828125</ele>
        <time>2020-10-11T07:44:04Z</time>
      </trkpt>
      <trkpt lat="43.22239" lon="6.05383">
        <ele>304.625</ele>
        <time>2020-10-11T07:44:16Z</time>
      </trkpt>
      <trkpt lat="43.22244" lon="6.05393">
        <ele>305.6328125</ele>
        <time>2020-10-11T07:44:21Z</time>
      </trkpt>
      <trkpt lat="43.22245" lon="6.05394">
        <ele>305.98046875</ele>
        <time>2020-10-11T07:44:22Z</time>
      </trkpt>
      <trkpt lat="43.22247" lon="6.05396">
        <ele>306.28515625</ele>
        <time>2020-10-11T07:44:23Z</time>
      </trkpt>
      <trkpt lat="43.22248" lon="6.05398">
        <ele>306.5078125</ele>
        <time>2020-10-11T07:44:24Z</time>
      </trkpt>
      <trkpt lat="43.22249" lon="6.05399">
        <ele>306.6953125</ele>
        <time>2020-10-11T07:44:25Z</time>
      </trkpt>
      <trkpt lat="43.22268" lon="6.05429">
        <ele>311.09375</ele>
        <time>2020-10-11T07:44:37Z</time>
      </trkpt>
      <trkpt lat="43.2228" lon="6.05481">
        <ele>313.546875</ele>
        <time>2020-10-11T07:44:50Z</time>
      </trkpt>
      <trkpt lat="43.22283" lon="6.05498">
        <ele>313.8125</ele>
        <time>2020-10-11T07:44:54Z</time>
      </trkpt>
      <trkpt lat="43.22286" lon="6.0553">
        <ele>313.8515625</ele>
        <time>2020-10-11T07:45:02Z</time>
      </trkpt>
      <trkpt lat="43.22291" lon="6.05558">
        <ele>314.46875</ele>
        <time>2020-10-11T07:45:13Z</time>
      </trkpt>
      <trkpt lat="43.22294" lon="6.05576">
        <ele>315.046875</ele>
        <time>2020-10-11T07:45:24Z</time>
      </trkpt>
      <trkpt lat="43.22296" lon="6.05587">
        <ele>315</ele>
        <time>2020-10-11T07:45:48Z</time>
      </trkpt>
      <trkpt lat="43.22301" lon="6.05612">
        <ele>315.28125</ele>
        <time>2020-10-11T07:45:57Z</time>
      </trkpt>
      <trkpt lat="43.22313" lon="6.05652">
        <ele>316.43359375</ele>
        <time>2020-10-11T07:46:08Z</time>
      </trkpt>
      <trkpt lat="43.22315" lon="6.05658">
        <ele>316.48828125</ele>
        <time>2020-10-11T07:46:09Z</time>
      </trkpt>
      <trkpt lat="43.22316" lon="6.05663">
        <ele>316.4296875</ele>
        <time>2020-10-11T07:46:10Z</time>
      </trkpt>
      <trkpt lat="43.22318" lon="6.05669">
        <ele>316.4140625</ele>
        <time>2020-10-11T07:46:11Z</time>
      </trkpt>
      <trkpt lat="43.22328" lon="6.05719">
        <ele>315.44140625</ele>
        <time>2020-10-11T07:46:18Z</time>
      </trkpt>
      <trkpt lat="43.22329" lon="6.05725">
        <ele>315.4453125</ele>
        <time>2020-10-11T07:46:19Z</time>
      </trkpt>
      <trkpt lat="43.22329" lon="6.0573">
        <ele>315.4375</ele>
        <time>2020-10-11T07:46:20Z</time>
      </trkpt>
      <trkpt lat="43.2233" lon="6.05737">
        <ele>315.4921875</ele>
        <time>2020-10-11T07:46:21Z</time>
      </trkpt>
      <trkpt lat="43.22331" lon="6.05744">
        <ele>315.61328125</ele>
        <time>2020-10-11T07:46:22Z</time>
      </trkpt>
      <trkpt lat="43.22331" lon="6.05759">
        <ele>316.19140625</ele>
        <time>2020-10-11T07:46:25Z</time>
      </trkpt>
      <trkpt lat="43.22313" lon="6.05821">
        <ele>314.5078125</ele>
        <time>2020-10-11T07:46:36Z</time>
      </trkpt>
      <trkpt lat="43.22309" lon="6.05854">
        <ele>316.53125</ele>
        <time>2020-10-11T07:46:44Z</time>
      </trkpt>
      <trkpt lat="43.22307" lon="6.05872">
        <ele>317.359375</ele>
        <time>2020-10-11T07:46:50Z</time>
      </trkpt>
      <trkpt lat="43.22307" lon="6.05875">
        <ele>317.5</ele>
        <time>2020-10-11T07:46:51Z</time>
      </trkpt>
      <trkpt lat="43.22307" lon="6.05878">
        <ele>317.6953125</ele>
        <time>2020-10-11T07:46:52Z</time>
      </trkpt>
      <trkpt lat="43.22311" lon="6.05891">
        <ele>318.578125</ele>
        <time>2020-10-11T07:46:59Z</time>
      </trkpt>
      <trkpt lat="43.22312" lon="6.05892">
        <ele>318.84765625</ele>
        <time>2020-10-11T07:47:00Z</time>
      </trkpt>
      <trkpt lat="43.22323" lon="6.05899">
        <ele>321.11328125</ele>
        <time>2020-10-11T07:47:07Z</time>
      </trkpt>
      <trkpt lat="43.22331" lon="6.05912">
        <ele>322.2265625</ele>
        <time>2020-10-11T07:47:19Z</time>
      </trkpt>
      <trkpt lat="43.22334" lon="6.05921">
        <ele>322.61328125</ele>
        <time>2020-10-11T07:47:40Z</time>
      </trkpt>
      <trkpt lat="43.22334" lon="6.05924">
        <ele>322.49609375</ele>
        <time>2020-10-11T07:47:43Z</time>
      </trkpt>
      <trkpt lat="43.2234" lon="6.05947">
        <ele>322.4765625</ele>
        <time>2020-10-11T07:47:55Z</time>
      </trkpt>
      <trkpt lat="43.22341" lon="6.05955">
        <ele>321.9921875</ele>
        <time>2020-10-11T07:48:03Z</time>
      </trkpt>
      <trkpt lat="43.22342" lon="6.05961">
        <ele>321.796875</ele>
        <time>2020-10-11T07:48:05Z</time>
      </trkpt>
      <trkpt lat="43.22343" lon="6.05964">
        <ele>321.72265625</ele>
        <time>2020-10-11T07:48:06Z</time>
      </trkpt>
      <trkpt lat="43.22344" lon="6.05968">
        <ele>321.765625</ele>
        <time>2020-10-11T07:48:07Z</time>
      </trkpt>
      <trkpt lat="43.22345" lon="6.05972">
        <ele>321.7421875</ele>
        <time>2020-10-11T07:48:08Z</time>
      </trkpt>
      <trkpt lat="43.22346" lon="6.05976">
        <ele>321.6640625</ele>
        <time>2020-10-11T07:48:09Z</time>
      </trkpt>
      <trkpt lat="43.22347" lon="6.0598">
        <ele>321.54296875</ele>
        <time>2020-10-11T07:48:10Z</time>
      </trkpt>
      <trkpt lat="43.22348" lon="6.05984">
        <ele>321.42578125</ele>
        <time>2020-10-11T07:48:11Z</time>
      </trkpt>
      <trkpt lat="43.22349" lon="6.05989">
        <ele>321.28125</ele>
        <time>2020-10-11T07:48:12Z</time>
      </trkpt>
      <trkpt lat="43.22363" lon="6.06036">
        <ele>315.94921875</ele>
        <time>2020-10-11T07:48:23Z</time>
      </trkpt>
      <trkpt lat="43.22368" lon="6.06048">
        <ele>313.70703125</ele>
        <time>2020-10-11T07:48:27Z</time>
      </trkpt>
      <trkpt lat="43.2237" lon="6.0605">
        <ele>313.33203125</ele>
        <time>2020-10-11T07:48:28Z</time>
      </trkpt>
      <trkpt lat="43.22372" lon="6.0605">
        <ele>313.140625</ele>
        <time>2020-10-11T07:48:29Z</time>
      </trkpt>
      <trkpt lat="43.22374" lon="6.06051">
        <ele>312.86328125</ele>
        <time>2020-10-11T07:48:30Z</time>
      </trkpt>
      <trkpt lat="43.22376" lon="6.06052">
        <ele>312.5859375</ele>
        <time>2020-10-11T07:48:31Z</time>
      </trkpt>
      <trkpt lat="43.22379" lon="6.06053">
        <ele>312.26953125</ele>
        <time>2020-10-11T07:48:32Z</time>
      </trkpt>
      <trkpt lat="43.2238" lon="6.06053">
        <ele>311.984375</ele>
        <time>2020-10-11T07:48:33Z</time>
      </trkpt>
      <trkpt lat="43.22382" lon="6.06054">
        <ele>311.734375</ele>
        <time>2020-10-11T07:48:34Z</time>
      </trkpt>
      <trkpt lat="43.22385" lon="6.06055">
        <ele>311.390625</ele>
        <time>2020-10-11T07:48:35Z</time>
      </trkpt>
      <trkpt lat="43.22387" lon="6.06057">
        <ele>310.69921875</ele>
        <time>2020-10-11T07:48:36Z</time>
      </trkpt>
      <trkpt lat="43.22397" lon="6.06065">
        <ele>307.7421875</ele>
        <time>2020-10-11T07:48:39Z</time>
      </trkpt>
      <trkpt lat="43.22401" lon="6.06067">
        <ele>306.87890625</ele>
        <time>2020-10-11T07:48:40Z</time>
      </trkpt>
      <trkpt lat="43.22405" lon="6.06068">
        <ele>306.25</ele>
        <time>2020-10-11T07:48:41Z</time>
      </trkpt>
      <trkpt lat="43.22409" lon="6.06069">
        <ele>305.7890625</ele>
        <time>2020-10-11T07:48:42Z</time>
      </trkpt>
      <trkpt lat="43.22413" lon="6.0607">
        <ele>305.19921875</ele>
        <time>2020-10-11T07:48:43Z</time>
      </trkpt>
      <trkpt lat="43.2244" lon="6.06074">
        <ele>302.02734375</ele>
        <time>2020-10-11T07:48:51Z</time>
      </trkpt>
      <trkpt lat="43.22456" lon="6.06077">
        <ele>300.25390625</ele>
        <time>2020-10-11T07:48:56Z</time>
      </trkpt>
      <trkpt lat="43.22467" lon="6.06078">
        <ele>300.171875</ele>
        <time>2020-10-11T07:49:07Z</time>
      </trkpt>
      <trkpt lat="43.22474" lon="6.06079">
        <ele>299.94140625</ele>
        <time>2020-10-11T07:49:21Z</time>
      </trkpt>
      <trkpt lat="43.22479" lon="6.0608">
        <ele>299.82421875</ele>
        <time>2020-10-11T07:49:22Z</time>
      </trkpt>
      <trkpt lat="43.22485" lon="6.06082">
        <ele>300.25390625</ele>
        <time>2020-10-11T07:49:23Z</time>
      </trkpt>
      <trkpt lat="43.22491" lon="6.06085">
        <ele>300.4921875</ele>
        <time>2020-10-11T07:49:24Z</time>
      </trkpt>
      <trkpt lat="43.22496" lon="6.06088">
        <ele>300.59375</ele>
        <time>2020-10-11T07:49:25Z</time>
      </trkpt>
      <trkpt lat="43.225" lon="6.0609">
        <ele>300.78515625</ele>
        <time>2020-10-11T07:49:26Z</time>
      </trkpt>
      <trkpt lat="43.22505" lon="6.06092">
        <ele>301.2421875</ele>
        <time>2020-10-11T07:49:27Z</time>
      </trkpt>
      <trkpt lat="43.22509" lon="6.06093">
        <ele>302.375</ele>
        <time>2020-10-11T07:49:28Z</time>
      </trkpt>
      <trkpt lat="43.22521" lon="6.061">
        <ele>305.04296875</ele>
        <time>2020-10-11T07:49:31Z</time>
      </trkpt>
      <trkpt lat="43.22524" lon="6.06104">
        <ele>305.53125</ele>
        <time>2020-10-11T07:49:32Z</time>
      </trkpt>
      <trkpt lat="43.22526" lon="6.06108">
        <ele>305.43359375</ele>
        <time>2020-10-11T07:49:33Z</time>
      </trkpt>
      <trkpt lat="43.22527" lon="6.06112">
        <ele>304.94140625</ele>
        <time>2020-10-11T07:49:34Z</time>
      </trkpt>
      <trkpt lat="43.22528" lon="6.06117">
        <ele>304.484375</ele>
        <time>2020-10-11T07:49:35Z</time>
      </trkpt>
      <trkpt lat="43.22533" lon="6.06133">
        <ele>303.53515625</ele>
        <time>2020-10-11T07:49:39Z</time>
      </trkpt>
      <trkpt lat="43.22535" lon="6.06136">
        <ele>303.84765625</ele>
        <time>2020-10-11T07:49:40Z</time>
      </trkpt>
      <trkpt lat="43.22537" lon="6.06141">
        <ele>303.6015625</ele>
        <time>2020-10-11T07:49:41Z</time>
      </trkpt>
      <trkpt lat="43.22537" lon="6.06146">
        <ele>302.734375</ele>
        <time>2020-10-11T07:49:42Z</time>
      </trkpt>
      <trkpt lat="43.22536" lon="6.06152">
        <ele>301.484375</ele>
        <time>2020-10-11T07:49:43Z</time>
      </trkpt>
      <trkpt lat="43.22536" lon="6.06159">
        <ele>300.06640625</ele>
        <time>2020-10-11T07:49:44Z</time>
      </trkpt>
      <trkpt lat="43.22536" lon="6.06165">
        <ele>299.2265625</ele>
        <time>2020-10-11T07:49:45Z</time>
      </trkpt>
      <trkpt lat="43.22538" lon="6.06171">
        <ele>298.95703125</ele>
        <time>2020-10-11T07:49:46Z</time>
      </trkpt>
      <trkpt lat="43.22539" lon="6.06177">
        <ele>298.5703125</ele>
        <time>2020-10-11T07:49:47Z</time>
      </trkpt>
      <trkpt lat="43.2254" lon="6.06184">
        <ele>298.08203125</ele>
        <time>2020-10-11T07:49:48Z</time>
      </trkpt>
      <trkpt lat="43.22542" lon="6.0619">
        <ele>297.49609375</ele>
        <time>2020-10-11T07:49:49Z</time>
      </trkpt>
      <trkpt lat="43.22543" lon="6.06196">
        <ele>296.56640625</ele>
        <time>2020-10-11T07:49:50Z</time>
      </trkpt>
      <trkpt lat="43.22544" lon="6.06202">
        <ele>295.7578125</ele>
        <time>2020-10-11T07:49:51Z</time>
      </trkpt>
      <trkpt lat="43.22546" lon="6.06208">
        <ele>295.33203125</ele>
        <time>2020-10-11T07:49:52Z</time>
      </trkpt>
      <trkpt lat="43.22548" lon="6.06214">
        <ele>295.015625</ele>
        <time>2020-10-11T07:49:53Z</time>
      </trkpt>
      <trkpt lat="43.2255" lon="6.0622">
        <ele>294.36328125</ele>
        <time>2020-10-11T07:49:54Z</time>
      </trkpt>
      <trkpt lat="43.22551" lon="6.06226">
        <ele>293.50390625</ele>
        <time>2020-10-11T07:49:55Z</time>
      </trkpt>
      <trkpt lat="43.22555" lon="6.06245">
        <ele>290.84375</ele>
        <time>2020-10-11T07:49:59Z</time>
      </trkpt>
      <trkpt lat="43.22559" lon="6.06255">
        <ele>289.62890625</ele>
        <time>2020-10-11T07:50:01Z</time>
      </trkpt>
      <trkpt lat="43.22573" lon="6.06292">
        <ele>283.265625</ele>
        <time>2020-10-11T07:50:09Z</time>
      </trkpt>
      <trkpt lat="43.22574" lon="6.06298">
        <ele>281.76171875</ele>
        <time>2020-10-11T07:50:10Z</time>
      </trkpt>
      <trkpt lat="43.22575" lon="6.06303">
        <ele>279.953125</ele>
        <time>2020-10-11T07:50:11Z</time>
      </trkpt>
      <trkpt lat="43.22576" lon="6.06308">
        <ele>278.328125</ele>
        <time>2020-10-11T07:50:12Z</time>
      </trkpt>
      <trkpt lat="43.22577" lon="6.06313">
        <ele>276.859375</ele>
        <time>2020-10-11T07:50:13Z</time>
      </trkpt>
      <trkpt lat="43.22579" lon="6.06317">
        <ele>275.80078125</ele>
        <time>2020-10-11T07:50:14Z</time>
      </trkpt>
      <trkpt lat="43.22582" lon="6.0632">
        <ele>274.91796875</ele>
        <time>2020-10-11T07:50:15Z</time>
      </trkpt>
      <trkpt lat="43.22585" lon="6.06325">
        <ele>273.734375</ele>
        <time>2020-10-11T07:50:16Z</time>
      </trkpt>
      <trkpt lat="43.22588" lon="6.06329">
        <ele>272.69921875</ele>
        <time>2020-10-11T07:50:17Z</time>
      </trkpt>
      <trkpt lat="43.2259" lon="6.06331">
        <ele>272</ele>
        <time>2020-10-11T07:50:18Z</time>
      </trkpt>
      <trkpt lat="43.22593" lon="6.06332">
        <ele>271.74609375</ele>
        <time>2020-10-11T07:50:19Z</time>
      </trkpt>
      <trkpt lat="43.22606" lon="6.06337">
        <ele>270.41015625</ele>
        <time>2020-10-11T07:50:30Z</time>
      </trkpt>
      <trkpt lat="43.22606" lon="6.06338">
        <ele>270.171875</ele>
        <time>2020-10-11T07:51:00Z</time>
      </trkpt>
      <trkpt lat="43.2262" lon="6.06343">
        <ele>268.51171875</ele>
        <time>2020-10-11T07:51:24Z</time>
      </trkpt>
      <trkpt lat="43.22654" lon="6.06343">
        <ele>269.2578125</ele>
        <time>2020-10-11T07:51:33Z</time>
      </trkpt>
      <trkpt lat="43.22658" lon="6.06344">
        <ele>268.6875</ele>
        <time>2020-10-11T07:51:34Z</time>
      </trkpt>
      <trkpt lat="43.22685" lon="6.0635">
        <ele>265.328125</ele>
        <time>2020-10-11T07:51:39Z</time>
      </trkpt>
      <trkpt lat="43.22691" lon="6.0635">
        <ele>265.1953125</ele>
        <time>2020-10-11T07:51:40Z</time>
      </trkpt>
      <trkpt lat="43.22735" lon="6.06349">
        <ele>262.48046875</ele>
        <time>2020-10-11T07:51:47Z</time>
      </trkpt>
      <trkpt lat="43.22741" lon="6.06347">
        <ele>262.5859375</ele>
        <time>2020-10-11T07:51:48Z</time>
      </trkpt>
      <trkpt lat="43.22759" lon="6.0634">
        <ele>263.2421875</ele>
        <time>2020-10-11T07:51:51Z</time>
      </trkpt>
      <trkpt lat="43.22765" lon="6.0634">
        <ele>262.875</ele>
        <time>2020-10-11T07:51:52Z</time>
      </trkpt>
      <trkpt lat="43.22771" lon="6.06339">
        <ele>262.484375</ele>
        <time>2020-10-11T07:51:53Z</time>
      </trkpt>
      <trkpt lat="43.22777" lon="6.06338">
        <ele>262.2578125</ele>
        <time>2020-10-11T07:51:54Z</time>
      </trkpt>
      <trkpt lat="43.22783" lon="6.06336">
        <ele>262.20703125</ele>
        <time>2020-10-11T07:51:55Z</time>
      </trkpt>
      <trkpt lat="43.22788" lon="6.06333">
        <ele>262.828125</ele>
        <time>2020-10-11T07:51:56Z</time>
      </trkpt>
      <trkpt lat="43.22793" lon="6.06328">
        <ele>263.76953125</ele>
        <time>2020-10-11T07:51:57Z</time>
      </trkpt>
      <trkpt lat="43.22797" lon="6.06324">
        <ele>264.8125</ele>
        <time>2020-10-11T07:51:58Z</time>
      </trkpt>
      <trkpt lat="43.22801" lon="6.06319">
        <ele>265.80078125</ele>
        <time>2020-10-11T07:51:59Z</time>
      </trkpt>
      <trkpt lat="43.22804" lon="6.06315">
        <ele>266.61328125</ele>
        <time>2020-10-11T07:52:00Z</time>
      </trkpt>
      <trkpt lat="43.22814" lon="6.06308">
        <ele>267.3125</ele>
        <time>2020-10-11T07:52:03Z</time>
      </trkpt>
      <trkpt lat="43.22816" lon="6.06309">
        <ele>266.875</ele>
        <time>2020-10-11T07:52:04Z</time>
      </trkpt>
      <trkpt lat="43.2283" lon="6.06316">
        <ele>263.69140625</ele>
        <time>2020-10-11T07:52:13Z</time>
      </trkpt>
      <trkpt lat="43.22832" lon="6.06316">
        <ele>263.41015625</ele>
        <time>2020-10-11T07:52:14Z</time>
      </trkpt>
      <trkpt lat="43.2285" lon="6.0632">
        <ele>259.75</ele>
        <time>2020-10-11T07:52:27Z</time>
      </trkpt>
      <trkpt lat="43.22853" lon="6.0632">
        <ele>259.2265625</ele>
        <time>2020-10-11T07:52:50Z</time>
      </trkpt>
      <trkpt lat="43.22855" lon="6.0632">
        <ele>258.82421875</ele>
        <time>2020-10-11T07:53:20Z</time>
      </trkpt>
      <trkpt lat="43.22855" lon="6.0632">
        <ele>258.8359375</ele>
        <time>2020-10-11T07:53:39Z</time>
      </trkpt>
      <trkpt lat="43.22855" lon="6.0632">
        <ele>258.7890625</ele>
        <time>2020-10-11T07:53:42Z</time>
      </trkpt>
      <trkpt lat="43.22858" lon="6.06321">
        <ele>257.96875</ele>
        <time>2020-10-11T07:53:46Z</time>
      </trkpt>
      <trkpt lat="43.22874" lon="6.06333">
        <ele>252.88671875</ele>
        <time>2020-10-11T07:53:51Z</time>
      </trkpt>
      <trkpt lat="43.22876" lon="6.06341">
        <ele>251</ele>
        <time>2020-10-11T07:53:53Z</time>
      </trkpt>
      <trkpt lat="43.22875" lon="6.06345">
        <ele>250.375</ele>
        <time>2020-10-11T07:53:54Z</time>
      </trkpt>
      <trkpt lat="43.22874" lon="6.0635">
        <ele>249.89453125</ele>
        <time>2020-10-11T07:53:55Z</time>
      </trkpt>
      <trkpt lat="43.22872" lon="6.06353">
        <ele>249.640625</ele>
        <time>2020-10-11T07:53:56Z</time>
      </trkpt>
      <trkpt lat="43.22869" lon="6.06357">
        <ele>249.3671875</ele>
        <time>2020-10-11T07:53:57Z</time>
      </trkpt>
      <trkpt lat="43.22865" lon="6.06359">
        <ele>249.4140625</ele>
        <time>2020-10-11T07:53:58Z</time>
      </trkpt>
      <trkpt lat="43.22861" lon="6.0636">
        <ele>249.453125</ele>
        <time>2020-10-11T07:53:59Z</time>
      </trkpt>
      <trkpt lat="43.22859" lon="6.06363">
        <ele>249.140625</ele>
        <time>2020-10-11T07:54:00Z</time>
      </trkpt>
      <trkpt lat="43.22858" lon="6.06365">
        <ele>248.40625</ele>
        <time>2020-10-11T07:54:01Z</time>
      </trkpt>
      <trkpt lat="43.22858" lon="6.06368">
        <ele>247.45703125</ele>
        <time>2020-10-11T07:54:02Z</time>
      </trkpt>
      <trkpt lat="43.2286" lon="6.0637">
        <ele>246.6640625</ele>
        <time>2020-10-11T07:54:03Z</time>
      </trkpt>
      <trkpt lat="43.22863" lon="6.06371">
        <ele>246.03515625</ele>
        <time>2020-10-11T07:54:04Z</time>
      </trkpt>
      <trkpt lat="43.22867" lon="6.06372">
        <ele>245.22265625</ele>
        <time>2020-10-11T07:54:05Z</time>
      </trkpt>
      <trkpt lat="43.22872" lon="6.06373">
        <ele>244.0390625</ele>
        <time>2020-10-11T07:54:06Z</time>
      </trkpt>
      <trkpt lat="43.22877" lon="6.06374">
        <ele>242.875</ele>
        <time>2020-10-11T07:54:07Z</time>
      </trkpt>
      <trkpt lat="43.22883" lon="6.06373">
        <ele>241.9375</ele>
        <time>2020-10-11T07:54:08Z</time>
      </trkpt>
      <trkpt lat="43.22888" lon="6.06372">
        <ele>241.31640625</ele>
        <time>2020-10-11T07:54:09Z</time>
      </trkpt>
      <trkpt lat="43.22893" lon="6.06369">
        <ele>240.94140625</ele>
        <time>2020-10-11T07:54:10Z</time>
      </trkpt>
      <trkpt lat="43.22899" lon="6.06366">
        <ele>240.78515625</ele>
        <time>2020-10-11T07:54:11Z</time>
      </trkpt>
      <trkpt lat="43.22904" lon="6.06361">
        <ele>240.88671875</ele>
        <time>2020-10-11T07:54:12Z</time>
      </trkpt>
      <trkpt lat="43.22907" lon="6.06356">
        <ele>241.43359375</ele>
        <time>2020-10-11T07:54:13Z</time>
      </trkpt>
      <trkpt lat="43.2291" lon="6.06349">
        <ele>242.26953125</ele>
        <time>2020-10-11T07:54:14Z</time>
      </trkpt>
      <trkpt lat="43.22911" lon="6.06344">
        <ele>243.07421875</ele>
        <time>2020-10-11T07:54:15Z</time>
      </trkpt>
      <trkpt lat="43.22917" lon="6.06332">
        <ele>244.48828125</ele>
        <time>2020-10-11T07:54:19Z</time>
      </trkpt>
      <trkpt lat="43.22919" lon="6.06332">
        <ele>243.91015625</ele>
        <time>2020-10-11T07:54:20Z</time>
      </trkpt>
      <trkpt lat="43.22921" lon="6.06334">
        <ele>243.03515625</ele>
        <time>2020-10-11T07:54:21Z</time>
      </trkpt>
      <trkpt lat="43.22922" lon="6.06338">
        <ele>242.19921875</ele>
        <time>2020-10-11T07:54:22Z</time>
      </trkpt>
      <trkpt lat="43.22922" lon="6.06342">
        <ele>241.3984375</ele>
        <time>2020-10-11T07:54:23Z</time>
      </trkpt>
      <trkpt lat="43.22921" lon="6.06346">
        <ele>240.625</ele>
        <time>2020-10-11T07:54:24Z</time>
      </trkpt>
      <trkpt lat="43.22921" lon="6.0635">
        <ele>239.79296875</ele>
        <time>2020-10-11T07:54:25Z</time>
      </trkpt>
      <trkpt lat="43.22921" lon="6.06355">
        <ele>238.6484375</ele>
        <time>2020-10-11T07:54:26Z</time>
      </trkpt>
      <trkpt lat="43.22921" lon="6.06361">
        <ele>237.34375</ele>
        <time>2020-10-11T07:54:27Z</time>
      </trkpt>
      <trkpt lat="43.22922" lon="6.06367">
        <ele>235.94921875</ele>
        <time>2020-10-11T07:54:28Z</time>
      </trkpt>
      <trkpt lat="43.22924" lon="6.06373">
        <ele>234.59375</ele>
        <time>2020-10-11T07:54:29Z</time>
      </trkpt>
      <trkpt lat="43.22925" lon="6.06378">
        <ele>233.2734375</ele>
        <time>2020-10-11T07:54:30Z</time>
      </trkpt>
      <trkpt lat="43.22929" lon="6.06388">
        <ele>230.6875</ele>
        <time>2020-10-11T07:54:32Z</time>
      </trkpt>
      <trkpt lat="43.22933" lon="6.064">
        <ele>227.25</ele>
        <time>2020-10-11T07:54:35Z</time>
      </trkpt>
      <trkpt lat="43.22936" lon="6.06403">
        <ele>226.25390625</ele>
        <time>2020-10-11T07:54:37Z</time>
      </trkpt>
      <trkpt lat="43.22938" lon="6.06402">
        <ele>226.32421875</ele>
        <time>2020-10-11T07:54:38Z</time>
      </trkpt>
      <trkpt lat="43.22939" lon="6.06401">
        <ele>226.64453125</ele>
        <time>2020-10-11T07:54:39Z</time>
      </trkpt>
      <trkpt lat="43.22965" lon="6.06388">
        <ele>229.43359375</ele>
        <time>2020-10-11T07:54:48Z</time>
      </trkpt>
      <trkpt lat="43.22984" lon="6.06386">
        <ele>231.80078125</ele>
        <time>2020-10-11T07:54:53Z</time>
      </trkpt>
      <trkpt lat="43.22999" lon="6.06386">
        <ele>234.28515625</ele>
        <time>2020-10-11T07:54:56Z</time>
      </trkpt>
      <trkpt lat="43.23005" lon="6.06388">
        <ele>234.47265625</ele>
        <time>2020-10-11T07:54:57Z</time>
      </trkpt>
      <trkpt lat="43.23011" lon="6.06392">
        <ele>234.609375</ele>
        <time>2020-10-11T07:54:58Z</time>
      </trkpt>
      <trkpt lat="43.23016" lon="6.06396">
        <ele>234.3515625</ele>
        <time>2020-10-11T07:54:59Z</time>
      </trkpt>
      <trkpt lat="43.2302" lon="6.06401">
        <ele>233.69140625</ele>
        <time>2020-10-11T07:55:00Z</time>
      </trkpt>
      <trkpt lat="43.23025" lon="6.06406">
        <ele>232.9296875</ele>
        <time>2020-10-11T07:55:01Z</time>
      </trkpt>
      <trkpt lat="43.23038" lon="6.06421">
        <ele>231.53125</ele>
        <time>2020-10-11T07:55:04Z</time>
      </trkpt>
      <trkpt lat="43.23043" lon="6.06425">
        <ele>231.66015625</ele>
        <time>2020-10-11T07:55:05Z</time>
      </trkpt>
      <trkpt lat="43.23078" lon="6.06441">
        <ele>235.5546875</ele>
        <time>2020-10-11T07:55:14Z</time>
      </trkpt>
      <trkpt lat="43.2308" lon="6.06441">
        <ele>235.890625</ele>
        <time>2020-10-11T07:55:39Z</time>
      </trkpt>
      <trkpt lat="43.23084" lon="6.06446">
        <ele>235.5859375</ele>
        <time>2020-10-11T07:55:53Z</time>
      </trkpt>
      <trkpt lat="43.23094" lon="6.0647">
        <ele>230.75390625</ele>
        <time>2020-10-11T07:55:59Z</time>
      </trkpt>
      <trkpt lat="43.23096" lon="6.06475">
        <ele>229.66015625</ele>
        <time>2020-10-11T07:56:00Z</time>
      </trkpt>
      <trkpt lat="43.23098" lon="6.06479">
        <ele>228.9140625</ele>
        <time>2020-10-11T07:56:01Z</time>
      </trkpt>
      <trkpt lat="43.23101" lon="6.06482">
        <ele>228.7890625</ele>
        <time>2020-10-11T07:56:02Z</time>
      </trkpt>
      <trkpt lat="43.23105" lon="6.06485">
        <ele>228.7890625</ele>
        <time>2020-10-11T07:56:03Z</time>
      </trkpt>
      <trkpt lat="43.23107" lon="6.06489">
        <ele>228.35546875</ele>
        <time>2020-10-11T07:56:04Z</time>
      </trkpt>
      <trkpt lat="43.2311" lon="6.06492">
        <ele>228.03515625</ele>
        <time>2020-10-11T07:56:05Z</time>
      </trkpt>
      <trkpt lat="43.23112" lon="6.06496">
        <ele>227.7421875</ele>
        <time>2020-10-11T07:56:06Z</time>
      </trkpt>
      <trkpt lat="43.23115" lon="6.065">
        <ele>226.8046875</ele>
        <time>2020-10-11T07:56:07Z</time>
      </trkpt>
      <trkpt lat="43.23117" lon="6.06506">
        <ele>225.66015625</ele>
        <time>2020-10-11T07:56:08Z</time>
      </trkpt>
      <trkpt lat="43.23129" lon="6.06526">
        <ele>222.1171875</ele>
        <time>2020-10-11T07:56:13Z</time>
      </trkpt>
      <trkpt lat="43.23132" lon="6.06529">
        <ele>221.69921875</ele>
        <time>2020-10-11T07:56:14Z</time>
      </trkpt>
      <trkpt lat="43.23135" lon="6.06533">
        <ele>220.859375</ele>
        <time>2020-10-11T07:56:15Z</time>
      </trkpt>
      <trkpt lat="43.23137" lon="6.06539">
        <ele>219.6015625</ele>
        <time>2020-10-11T07:56:16Z</time>
      </trkpt>
      <trkpt lat="43.23139" lon="6.06545">
        <ele>217.984375</ele>
        <time>2020-10-11T07:56:17Z</time>
      </trkpt>
      <trkpt lat="43.23142" lon="6.06549">
        <ele>216.8984375</ele>
        <time>2020-10-11T07:56:18Z</time>
      </trkpt>
      <trkpt lat="43.23146" lon="6.06553">
        <ele>216.4375</ele>
        <time>2020-10-11T07:56:19Z</time>
      </trkpt>
      <trkpt lat="43.23155" lon="6.0656">
        <ele>215.41015625</ele>
        <time>2020-10-11T07:56:21Z</time>
      </trkpt>
      <trkpt lat="43.23159" lon="6.06565">
        <ele>214.1796875</ele>
        <time>2020-10-11T07:56:22Z</time>
      </trkpt>
      <trkpt lat="43.23163" lon="6.0657">
        <ele>213.11328125</ele>
        <time>2020-10-11T07:56:23Z</time>
      </trkpt>
      <trkpt lat="43.23167" lon="6.06575">
        <ele>212.2890625</ele>
        <time>2020-10-11T07:56:24Z</time>
      </trkpt>
      <trkpt lat="43.23173" lon="6.0658">
        <ele>211.20703125</ele>
        <time>2020-10-11T07:56:25Z</time>
      </trkpt>
      <trkpt lat="43.23179" lon="6.06585">
        <ele>210.40234375</ele>
        <time>2020-10-11T07:56:26Z</time>
      </trkpt>
      <trkpt lat="43.23185" lon="6.06589">
        <ele>209.71875</ele>
        <time>2020-10-11T07:56:27Z</time>
      </trkpt>
      <trkpt lat="43.23191" lon="6.06594">
        <ele>208.7734375</ele>
        <time>2020-10-11T07:56:28Z</time>
      </trkpt>
      <trkpt lat="43.23204" lon="6.06605">
        <ele>206.73828125</ele>
        <time>2020-10-11T07:56:30Z</time>
      </trkpt>
      <trkpt lat="43.23209" lon="6.0661">
        <ele>205.828125</ele>
        <time>2020-10-11T07:56:31Z</time>
      </trkpt>
      <trkpt lat="43.23218" lon="6.06619">
        <ele>203.9765625</ele>
        <time>2020-10-11T07:56:33Z</time>
      </trkpt>
      <trkpt lat="43.23265" lon="6.06646">
        <ele>200.8125</ele>
        <time>2020-10-11T07:56:41Z</time>
      </trkpt>
      <trkpt lat="43.23271" lon="6.06651">
        <ele>199.96484375</ele>
        <time>2020-10-11T07:56:42Z</time>
      </trkpt>
      <trkpt lat="43.23286" lon="6.06663">
        <ele>197.5859375</ele>
        <time>2020-10-11T07:56:45Z</time>
      </trkpt>
      <trkpt lat="43.23291" lon="6.06666">
        <ele>196.9921875</ele>
        <time>2020-10-11T07:56:46Z</time>
      </trkpt>
      <trkpt lat="43.23296" lon="6.06669">
        <ele>196.40234375</ele>
        <time>2020-10-11T07:56:47Z</time>
      </trkpt>
      <trkpt lat="43.23301" lon="6.06672">
        <ele>195.80078125</ele>
        <time>2020-10-11T07:56:48Z</time>
      </trkpt>
      <trkpt lat="43.23305" lon="6.06675">
        <ele>195.30859375</ele>
        <time>2020-10-11T07:56:49Z</time>
      </trkpt>
      <trkpt lat="43.2331" lon="6.06678">
        <ele>194.94921875</ele>
        <time>2020-10-11T07:56:50Z</time>
      </trkpt>
      <trkpt lat="43.23315" lon="6.0668">
        <ele>194.16015625</ele>
        <time>2020-10-11T07:56:51Z</time>
      </trkpt>
      <trkpt lat="43.2332" lon="6.06684">
        <ele>193.04296875</ele>
        <time>2020-10-11T07:56:52Z</time>
      </trkpt>
      <trkpt lat="43.23328" lon="6.06691">
        <ele>190.8515625</ele>
        <time>2020-10-11T07:56:54Z</time>
      </trkpt>
      <trkpt lat="43.23333" lon="6.06693">
        <ele>190.25390625</ele>
        <time>2020-10-11T07:56:55Z</time>
      </trkpt>
      <trkpt lat="43.23346" lon="6.06696">
        <ele>190.30078125</ele>
        <time>2020-10-11T07:56:58Z</time>
      </trkpt>
      <trkpt lat="43.23357" lon="6.06697">
        <ele>190.7421875</ele>
        <time>2020-10-11T07:57:00Z</time>
      </trkpt>
      <trkpt lat="43.23363" lon="6.067">
        <ele>190.07421875</ele>
        <time>2020-10-11T07:57:01Z</time>
      </trkpt>
      <trkpt lat="43.23373" lon="6.06707">
        <ele>188.5703125</ele>
        <time>2020-10-11T07:57:03Z</time>
      </trkpt>
      <trkpt lat="43.23378" lon="6.06709">
        <ele>188.0234375</ele>
        <time>2020-10-11T07:57:04Z</time>
      </trkpt>
      <trkpt lat="43.23386" lon="6.06712">
        <ele>187.64453125</ele>
        <time>2020-10-11T07:57:06Z</time>
      </trkpt>
      <trkpt lat="43.23408" lon="6.06727">
        <ele>184.9140625</ele>
        <time>2020-10-11T07:57:12Z</time>
      </trkpt>
      <trkpt lat="43.23418" lon="6.06736">
        <ele>182.66796875</ele>
        <time>2020-10-11T07:57:15Z</time>
      </trkpt>
      <trkpt lat="43.23422" lon="6.06739">
        <ele>181.921875</ele>
        <time>2020-10-11T07:57:16Z</time>
      </trkpt>
      <trkpt lat="43.23427" lon="6.06741">
        <ele>181.62890625</ele>
        <time>2020-10-11T07:57:17Z</time>
      </trkpt>
      <trkpt lat="43.23436" lon="6.06745">
        <ele>181.40234375</ele>
        <time>2020-10-11T07:57:19Z</time>
      </trkpt>
      <trkpt lat="43.2344" lon="6.06748">
        <ele>180.8671875</ele>
        <time>2020-10-11T07:57:20Z</time>
      </trkpt>
      <trkpt lat="43.23443" lon="6.06751">
        <ele>180.40234375</ele>
        <time>2020-10-11T07:57:21Z</time>
      </trkpt>
      <trkpt lat="43.23447" lon="6.06752">
        <ele>180.19140625</ele>
        <time>2020-10-11T07:57:22Z</time>
      </trkpt>
      <trkpt lat="43.23451" lon="6.06755">
        <ele>179.875</ele>
        <time>2020-10-11T07:57:23Z</time>
      </trkpt>
      <trkpt lat="43.23455" lon="6.06758">
        <ele>179.5546875</ele>
        <time>2020-10-11T07:57:24Z</time>
      </trkpt>
      <trkpt lat="43.23469" lon="6.06766">
        <ele>178.7890625</ele>
        <time>2020-10-11T07:57:27Z</time>
      </trkpt>
      <trkpt lat="43.23473" lon="6.06769">
        <ele>178.6796875</ele>
        <time>2020-10-11T07:57:28Z</time>
      </trkpt>
      <trkpt lat="43.23478" lon="6.06772">
        <ele>178.578125</ele>
        <time>2020-10-11T07:57:29Z</time>
      </trkpt>
      <trkpt lat="43.23482" lon="6.06775">
        <ele>178.68359375</ele>
        <time>2020-10-11T07:57:30Z</time>
      </trkpt>
      <trkpt lat="43.23493" lon="6.06782">
        <ele>179.41015625</ele>
        <time>2020-10-11T07:57:37Z</time>
      </trkpt>
      <trkpt lat="43.23493" lon="6.06781">
        <ele>179.453125</ele>
        <time>2020-10-11T07:57:44Z</time>
      </trkpt>
      <trkpt lat="43.23493" lon="6.06783">
        <ele>179.01171875</ele>
        <time>2020-10-11T07:58:06Z</time>
      </trkpt>
      <trkpt lat="43.23494" lon="6.06784">
        <ele>179.15625</ele>
        <time>2020-10-11T07:58:22Z</time>
      </trkpt>
      <trkpt lat="43.23493" lon="6.06785">
        <ele>178.5</ele>
        <time>2020-10-11T07:58:56Z</time>
      </trkpt>
      <trkpt lat="43.23508" lon="6.06797">
        <ele>179.0546875</ele>
        <time>2020-10-11T07:59:07Z</time>
      </trkpt>
      <trkpt lat="43.23513" lon="6.06802">
        <ele>178.79296875</ele>
        <time>2020-10-11T07:59:08Z</time>
      </trkpt>
      <trkpt lat="43.23521" lon="6.06818">
        <ele>176.6796875</ele>
        <time>2020-10-11T07:59:11Z</time>
      </trkpt>
      <trkpt lat="43.2352" lon="6.06824">
        <ele>175.1328125</ele>
        <time>2020-10-11T07:59:12Z</time>
      </trkpt>
      <trkpt lat="43.2352" lon="6.0683">
        <ele>173.15625</ele>
        <time>2020-10-11T07:59:13Z</time>
      </trkpt>
      <trkpt lat="43.23522" lon="6.06837">
        <ele>171.30859375</ele>
        <time>2020-10-11T07:59:14Z</time>
      </trkpt>
      <trkpt lat="43.23525" lon="6.06844">
        <ele>169.7578125</ele>
        <time>2020-10-11T07:59:15Z</time>
      </trkpt>
      <trkpt lat="43.23528" lon="6.06851">
        <ele>168.21875</ele>
        <time>2020-10-11T07:59:16Z</time>
      </trkpt>
      <trkpt lat="43.2353" lon="6.06858">
        <ele>167.03515625</ele>
        <time>2020-10-11T07:59:17Z</time>
      </trkpt>
      <trkpt lat="43.23533" lon="6.06865">
        <ele>166.125</ele>
        <time>2020-10-11T07:59:18Z</time>
      </trkpt>
      <trkpt lat="43.23537" lon="6.0687">
        <ele>165.7109375</ele>
        <time>2020-10-11T07:59:19Z</time>
      </trkpt>
      <trkpt lat="43.23541" lon="6.06874">
        <ele>165.6640625</ele>
        <time>2020-10-11T07:59:20Z</time>
      </trkpt>
      <trkpt lat="43.23546" lon="6.06877">
        <ele>165.82421875</ele>
        <time>2020-10-11T07:59:21Z</time>
      </trkpt>
      <trkpt lat="43.23551" lon="6.0688">
        <ele>166.0703125</ele>
        <time>2020-10-11T07:59:22Z</time>
      </trkpt>
      <trkpt lat="43.23562" lon="6.06888">
        <ele>166.21875</ele>
        <time>2020-10-11T07:59:24Z</time>
      </trkpt>
      <trkpt lat="43.23567" lon="6.06894">
        <ele>165.74609375</ele>
        <time>2020-10-11T07:59:25Z</time>
      </trkpt>
      <trkpt lat="43.23576" lon="6.06905">
        <ele>164.51171875</ele>
        <time>2020-10-11T07:59:27Z</time>
      </trkpt>
      <trkpt lat="43.23579" lon="6.06911">
        <ele>163.7265625</ele>
        <time>2020-10-11T07:59:28Z</time>
      </trkpt>
      <trkpt lat="43.23582" lon="6.06918">
        <ele>162.84375</ele>
        <time>2020-10-11T07:59:29Z</time>
      </trkpt>
      <trkpt lat="43.23586" lon="6.06924">
        <ele>162.1328125</ele>
        <time>2020-10-11T07:59:30Z</time>
      </trkpt>
      <trkpt lat="43.23591" lon="6.06931">
        <ele>161.3359375</ele>
        <time>2020-10-11T07:59:31Z</time>
      </trkpt>
      <trkpt lat="43.23602" lon="6.06946">
        <ele>159.5078125</ele>
        <time>2020-10-11T07:59:34Z</time>
      </trkpt>
      <trkpt lat="43.23604" lon="6.06951">
        <ele>158.66796875</ele>
        <time>2020-10-11T07:59:35Z</time>
      </trkpt>
      <trkpt lat="43.23605" lon="6.06966">
        <ele>155.87109375</ele>
        <time>2020-10-11T07:59:38Z</time>
      </trkpt>
      <trkpt lat="43.23604" lon="6.06972">
        <ele>154.96875</ele>
        <time>2020-10-11T07:59:39Z</time>
      </trkpt>
      <trkpt lat="43.23603" lon="6.06984">
        <ele>153.109375</ele>
        <time>2020-10-11T07:59:41Z</time>
      </trkpt>
      <trkpt lat="43.23604" lon="6.0699">
        <ele>152.328125</ele>
        <time>2020-10-11T07:59:42Z</time>
      </trkpt>
      <trkpt lat="43.23605" lon="6.06994">
        <ele>151.91796875</ele>
        <time>2020-10-11T07:59:43Z</time>
      </trkpt>
      <trkpt lat="43.23606" lon="6.06996">
        <ele>151.72265625</ele>
        <time>2020-10-11T07:59:44Z</time>
      </trkpt>
      <trkpt lat="43.23607" lon="6.06997">
        <ele>151.62109375</ele>
        <time>2020-10-11T07:59:45Z</time>
      </trkpt>
      <trkpt lat="43.23609" lon="6.06998">
        <ele>151.63671875</ele>
        <time>2020-10-11T07:59:46Z</time>
      </trkpt>
      <trkpt lat="43.2361" lon="6.06997">
        <ele>151.84375</ele>
        <time>2020-10-11T07:59:47Z</time>
      </trkpt>
      <trkpt lat="43.23612" lon="6.06995">
        <ele>152.234375</ele>
        <time>2020-10-11T07:59:48Z</time>
      </trkpt>
      <trkpt lat="43.23613" lon="6.06993">
        <ele>152.6015625</ele>
        <time>2020-10-11T07:59:49Z</time>
      </trkpt>
      <trkpt lat="43.23615" lon="6.06991">
        <ele>152.91015625</ele>
        <time>2020-10-11T07:59:50Z</time>
      </trkpt>
      <trkpt lat="43.23616" lon="6.0699">
        <ele>153.140625</ele>
        <time>2020-10-11T07:59:51Z</time>
      </trkpt>
      <trkpt lat="43.23618" lon="6.06989">
        <ele>153.3359375</ele>
        <time>2020-10-11T07:59:52Z</time>
      </trkpt>
      <trkpt lat="43.2362" lon="6.06988">
        <ele>153.40234375</ele>
        <time>2020-10-11T07:59:53Z</time>
      </trkpt>
      <trkpt lat="43.23622" lon="6.06989">
        <ele>153.33203125</ele>
        <time>2020-10-11T07:59:54Z</time>
      </trkpt>
      <trkpt lat="43.23624" lon="6.0699">
        <ele>153.234375</ele>
        <time>2020-10-11T07:59:55Z</time>
      </trkpt>
      <trkpt lat="43.23626" lon="6.06991">
        <ele>153.0625</ele>
        <time>2020-10-11T07:59:56Z</time>
      </trkpt>
      <trkpt lat="43.23628" lon="6.06992">
        <ele>152.88671875</ele>
        <time>2020-10-11T07:59:57Z</time>
      </trkpt>
      <trkpt lat="43.23629" lon="6.06992">
        <ele>152.859375</ele>
        <time>2020-10-11T07:59:58Z</time>
      </trkpt>
      <trkpt lat="43.2363" lon="6.06991">
        <ele>153.015625</ele>
        <time>2020-10-11T07:59:59Z</time>
      </trkpt>
      <trkpt lat="43.23632" lon="6.0699">
        <ele>153.2421875</ele>
        <time>2020-10-11T08:00:00Z</time>
      </trkpt>
      <trkpt lat="43.23634" lon="6.06988">
        <ele>153.51171875</ele>
        <time>2020-10-11T08:00:01Z</time>
      </trkpt>
      <trkpt lat="43.23635" lon="6.06986">
        <ele>153.77734375</ele>
        <time>2020-10-11T08:00:02Z</time>
      </trkpt>
      <trkpt lat="43.23638" lon="6.06982">
        <ele>154.29296875</ele>
        <time>2020-10-11T08:00:04Z</time>
      </trkpt>
      <trkpt lat="43.23648" lon="6.06981">
        <ele>154.40625</ele>
        <time>2020-10-11T08:00:10Z</time>
      </trkpt>
      <trkpt lat="43.23655" lon="6.06977">
        <ele>154.828125</ele>
        <time>2020-10-11T08:00:14Z</time>
      </trkpt>
      <trkpt lat="43.23678" lon="6.06964">
        <ele>154.9921875</ele>
        <time>2020-10-11T08:00:25Z</time>
      </trkpt>
      <trkpt lat="43.2368" lon="6.06963">
        <ele>154.82421875</ele>
        <time>2020-10-11T08:00:26Z</time>
      </trkpt>
      <trkpt lat="43.23692" lon="6.06955">
        <ele>153.94921875</ele>
        <time>2020-10-11T08:00:32Z</time>
      </trkpt>
      <trkpt lat="43.23703" lon="6.06925">
        <ele>155.35546875</ele>
        <time>2020-10-11T08:00:41Z</time>
      </trkpt>
      <trkpt lat="43.23704" lon="6.06923">
        <ele>155.48046875</ele>
        <time>2020-10-11T08:00:42Z</time>
      </trkpt>
      <trkpt lat="43.23709" lon="6.06912">
        <ele>155.48046875</ele>
        <time>2020-10-11T08:00:50Z</time>
      </trkpt>
      <trkpt lat="43.23709" lon="6.06911">
        <ele>155.5234375</ele>
        <time>2020-10-11T08:01:04Z</time>
      </trkpt>
      <trkpt lat="43.23709" lon="6.06909">
        <ele>155.74609375</ele>
        <time>2020-10-11T08:01:27Z</time>
      </trkpt>
      <trkpt lat="43.23709" lon="6.06909">
        <ele>155.76953125</ele>
        <time>2020-10-11T08:01:32Z</time>
      </trkpt>
      <trkpt lat="43.23709" lon="6.06907">
        <ele>156.015625</ele>
        <time>2020-10-11T08:01:35Z</time>
      </trkpt>
      <trkpt lat="43.23709" lon="6.06905">
        <ele>156.0703125</ele>
        <time>2020-10-11T08:01:36Z</time>
      </trkpt>
      <trkpt lat="43.2372" lon="6.06879">
        <ele>155.63671875</ele>
        <time>2020-10-11T08:01:44Z</time>
      </trkpt>
      <trkpt lat="43.23721" lon="6.06875">
        <ele>155.7890625</ele>
        <time>2020-10-11T08:01:45Z</time>
      </trkpt>
      <trkpt lat="43.2372" lon="6.0687">
        <ele>156.171875</ele>
        <time>2020-10-11T08:01:46Z</time>
      </trkpt>
      <trkpt lat="43.23719" lon="6.06867">
        <ele>156.5234375</ele>
        <time>2020-10-11T08:01:47Z</time>
      </trkpt>
      <trkpt lat="43.23714" lon="6.06838">
        <ele>159.2265625</ele>
        <time>2020-10-11T08:01:55Z</time>
      </trkpt>
      <trkpt lat="43.23716" lon="6.06832">
        <ele>158.89453125</ele>
        <time>2020-10-11T08:01:56Z</time>
      </trkpt>
      <trkpt lat="43.23721" lon="6.06818">
        <ele>157.7734375</ele>
        <time>2020-10-11T08:01:58Z</time>
      </trkpt>
      <trkpt lat="43.23723" lon="6.06809">
        <ele>157.453125</ele>
        <time>2020-10-11T08:01:59Z</time>
      </trkpt>
      <trkpt lat="43.23728" lon="6.06784">
        <ele>157.28125</ele>
        <time>2020-10-11T08:02:02Z</time>
      </trkpt>
      <trkpt lat="43.23733" lon="6.06761">
        <ele>157.43359375</ele>
        <time>2020-10-11T08:02:06Z</time>
      </trkpt>
      <trkpt lat="43.23735" lon="6.06758">
        <ele>157.26171875</ele>
        <time>2020-10-11T08:02:07Z</time>
      </trkpt>
      <trkpt lat="43.23737" lon="6.06756">
        <ele>157.05078125</ele>
        <time>2020-10-11T08:02:08Z</time>
      </trkpt>
      <trkpt lat="43.23741" lon="6.06753">
        <ele>156.77734375</ele>
        <time>2020-10-11T08:02:09Z</time>
      </trkpt>
      <trkpt lat="43.23745" lon="6.06752">
        <ele>156.47265625</ele>
        <time>2020-10-11T08:02:10Z</time>
      </trkpt>
      <trkpt lat="43.23749" lon="6.0675">
        <ele>156.1171875</ele>
        <time>2020-10-11T08:02:11Z</time>
      </trkpt>
      <trkpt lat="43.23754" lon="6.06749">
        <ele>155.77734375</ele>
        <time>2020-10-11T08:02:12Z</time>
      </trkpt>
      <trkpt lat="43.23758" lon="6.06746">
        <ele>155.55859375</ele>
        <time>2020-10-11T08:02:13Z</time>
      </trkpt>
      <trkpt lat="43.23762" lon="6.06741">
        <ele>155.484375</ele>
        <time>2020-10-11T08:02:14Z</time>
      </trkpt>
      <trkpt lat="43.23765" lon="6.06737">
        <ele>155.4375</ele>
        <time>2020-10-11T08:02:15Z</time>
      </trkpt>
      <trkpt lat="43.23785" lon="6.06712">
        <ele>155.015625</ele>
        <time>2020-10-11T08:02:22Z</time>
      </trkpt>
      <trkpt lat="43.23792" lon="6.06706">
        <ele>155.22265625</ele>
        <time>2020-10-11T08:02:24Z</time>
      </trkpt>
      <trkpt lat="43.23817" lon="6.0669">
        <ele>155.43359375</ele>
        <time>2020-10-11T08:02:32Z</time>
      </trkpt>
      <trkpt lat="43.23828" lon="6.06686">
        <ele>155.296875</ele>
        <time>2020-10-11T08:02:35Z</time>
      </trkpt>
      <trkpt lat="43.23833" lon="6.06686">
        <ele>155.171875</ele>
        <time>2020-10-11T08:02:36Z</time>
      </trkpt>
      <trkpt lat="43.2387" lon="6.06678">
        <ele>154.38671875</ele>
        <time>2020-10-11T08:02:44Z</time>
      </trkpt>
      <trkpt lat="43.23874" lon="6.06676">
        <ele>154.40234375</ele>
        <time>2020-10-11T08:02:45Z</time>
      </trkpt>
      <trkpt lat="43.23903" lon="6.06654">
        <ele>154.80078125</ele>
        <time>2020-10-11T08:02:52Z</time>
      </trkpt>
      <trkpt lat="43.23975" lon="6.06592">
        <ele>153.52734375</ele>
        <time>2020-10-11T08:03:11Z</time>
      </trkpt>
      <trkpt lat="43.23998" lon="6.0657">
        <ele>151.7109375</ele>
        <time>2020-10-11T08:03:17Z</time>
      </trkpt>
      <trkpt lat="43.24002" lon="6.06567">
        <ele>151.265625</ele>
        <time>2020-10-11T08:03:18Z</time>
      </trkpt>
      <trkpt lat="43.24005" lon="6.06564">
        <ele>151.01171875</ele>
        <time>2020-10-11T08:03:19Z</time>
      </trkpt>
      <trkpt lat="43.24008" lon="6.06559">
        <ele>151.06640625</ele>
        <time>2020-10-11T08:03:20Z</time>
      </trkpt>
      <trkpt lat="43.24009" lon="6.06554">
        <ele>151.1328125</ele>
        <time>2020-10-11T08:03:21Z</time>
      </trkpt>
      <trkpt lat="43.24011" lon="6.0655">
        <ele>151.2109375</ele>
        <time>2020-10-11T08:03:22Z</time>
      </trkpt>
      <trkpt lat="43.24012" lon="6.06545">
        <ele>151.28515625</ele>
        <time>2020-10-11T08:03:23Z</time>
      </trkpt>
      <trkpt lat="43.24011" lon="6.06539">
        <ele>151.32421875</ele>
        <time>2020-10-11T08:03:24Z</time>
      </trkpt>
      <trkpt lat="43.24011" lon="6.06533">
        <ele>151.34375</ele>
        <time>2020-10-11T08:03:25Z</time>
      </trkpt>
      <trkpt lat="43.24009" lon="6.06519">
        <ele>151.35546875</ele>
        <time>2020-10-11T08:03:27Z</time>
      </trkpt>
      <trkpt lat="43.24009" lon="6.06512">
        <ele>151.6328125</ele>
        <time>2020-10-11T08:03:28Z</time>
      </trkpt>
      <trkpt lat="43.24012" lon="6.065">
        <ele>152.203125</ele>
        <time>2020-10-11T08:03:31Z</time>
      </trkpt>
      <trkpt lat="43.24012" lon="6.06499">
        <ele>152.265625</ele>
        <time>2020-10-11T08:03:32Z</time>
      </trkpt>
      <trkpt lat="43.24013" lon="6.06492">
        <ele>152.61328125</ele>
        <time>2020-10-11T08:03:37Z</time>
      </trkpt>
      <trkpt lat="43.24013" lon="6.06489">
        <ele>152.765625</ele>
        <time>2020-10-11T08:03:38Z</time>
      </trkpt>
      <trkpt lat="43.24011" lon="6.06486">
        <ele>152.89453125</ele>
        <time>2020-10-11T08:03:39Z</time>
      </trkpt>
      <trkpt lat="43.2401" lon="6.06482">
        <ele>152.99609375</ele>
        <time>2020-10-11T08:03:40Z</time>
      </trkpt>
      <trkpt lat="43.24008" lon="6.06479">
        <ele>153.11328125</ele>
        <time>2020-10-11T08:03:41Z</time>
      </trkpt>
      <trkpt lat="43.24" lon="6.06463">
        <ele>154.4453125</ele>
        <time>2020-10-11T08:03:45Z</time>
      </trkpt>
      <trkpt lat="43.23993" lon="6.06413">
        <ele>157.171875</ele>
        <time>2020-10-11T08:03:57Z</time>
      </trkpt>
      <trkpt lat="43.23989" lon="6.06376">
        <ele>157</ele>
        <time>2020-10-11T08:04:08Z</time>
      </trkpt>
      <trkpt lat="43.23987" lon="6.06341">
        <ele>157.4375</ele>
        <time>2020-10-11T08:04:20Z</time>
      </trkpt>
      <trkpt lat="43.23979" lon="6.06293">
        <ele>159.2421875</ele>
        <time>2020-10-11T08:04:36Z</time>
      </trkpt>
      <trkpt lat="43.23976" lon="6.06236">
        <ele>163.6015625</ele>
        <time>2020-10-11T08:04:55Z</time>
      </trkpt>
      <trkpt lat="43.23981" lon="6.06208">
        <ele>166.37109375</ele>
        <time>2020-10-11T08:05:10Z</time>
      </trkpt>
      <trkpt lat="43.23983" lon="6.06205">
        <ele>166.59375</ele>
        <time>2020-10-11T08:05:38Z</time>
      </trkpt>
      <trkpt lat="43.23983" lon="6.06202">
        <ele>166.80078125</ele>
        <time>2020-10-11T08:05:39Z</time>
      </trkpt>
      <trkpt lat="43.23982" lon="6.062">
        <ele>167.046875</ele>
        <time>2020-10-11T08:05:40Z</time>
      </trkpt>
      <trkpt lat="43.23973" lon="6.06156">
        <ele>170.91015625</ele>
        <time>2020-10-11T08:05:56Z</time>
      </trkpt>
      <trkpt lat="43.23957" lon="6.06096">
        <ele>173.03125</ele>
        <time>2020-10-11T08:06:10Z</time>
      </trkpt>
      <trkpt lat="43.23952" lon="6.06066">
        <ele>174.140625</ele>
        <time>2020-10-11T08:06:15Z</time>
      </trkpt>
      <trkpt lat="43.23948" lon="6.06033">
        <ele>174.4296875</ele>
        <time>2020-10-11T08:06:25Z</time>
      </trkpt>
      <trkpt lat="43.23949" lon="6.06045">
        <ele>174.1328125</ele>
        <time>2020-10-11T08:06:32Z</time>
      </trkpt>
      <trkpt lat="43.23951" lon="6.06045">
        <ele>174.6484375</ele>
        <time>2020-10-11T08:06:33Z</time>
      </trkpt>
      <trkpt lat="43.23953" lon="6.06044">
        <ele>175.13671875</ele>
        <time>2020-10-11T08:06:34Z</time>
      </trkpt>
      <trkpt lat="43.23955" lon="6.06042">
        <ele>175.55859375</ele>
        <time>2020-10-11T08:06:35Z</time>
      </trkpt>
      <trkpt lat="43.23956" lon="6.06039">
        <ele>175.87109375</ele>
        <time>2020-10-11T08:06:36Z</time>
      </trkpt>
      <trkpt lat="43.23957" lon="6.06036">
        <ele>176.16015625</ele>
        <time>2020-10-11T08:06:37Z</time>
      </trkpt>
      <trkpt lat="43.23958" lon="6.06033">
        <ele>176.46484375</ele>
        <time>2020-10-11T08:06:38Z</time>
      </trkpt>
      <trkpt lat="43.23959" lon="6.06031">
        <ele>176.76953125</ele>
        <time>2020-10-11T08:06:39Z</time>
      </trkpt>
      <trkpt lat="43.23968" lon="6.06017">
        <ele>179.06640625</ele>
        <time>2020-10-11T08:06:48Z</time>
      </trkpt>
      <trkpt lat="43.23975" lon="6.06">
        <ele>180.6640625</ele>
        <time>2020-10-11T08:06:57Z</time>
      </trkpt>
      <trkpt lat="43.23976" lon="6.05998">
        <ele>180.94140625</ele>
        <time>2020-10-11T08:06:58Z</time>
      </trkpt>
      <trkpt lat="43.2399" lon="6.05974">
        <ele>184.68359375</ele>
        <time>2020-10-11T08:07:11Z</time>
      </trkpt>
      <trkpt lat="43.24001" lon="6.05941">
        <ele>186.41796875</ele>
        <time>2020-10-11T08:07:25Z</time>
      </trkpt>
      <trkpt lat="43.24007" lon="6.05922">
        <ele>186.97265625</ele>
        <time>2020-10-11T08:07:34Z</time>
      </trkpt>
      <trkpt lat="43.24008" lon="6.0592">
        <ele>186.9453125</ele>
        <time>2020-10-11T08:07:35Z</time>
      </trkpt>
      <trkpt lat="43.24009" lon="6.05917">
        <ele>187.125</ele>
        <time>2020-10-11T08:07:36Z</time>
      </trkpt>
      <trkpt lat="43.2401" lon="6.05915">
        <ele>187.34375</ele>
        <time>2020-10-11T08:07:37Z</time>
      </trkpt>
      <trkpt lat="43.2401" lon="6.05912">
        <ele>187.44921875</ele>
        <time>2020-10-11T08:07:38Z</time>
      </trkpt>
      <trkpt lat="43.24011" lon="6.0591">
        <ele>187.4765625</ele>
        <time>2020-10-11T08:07:39Z</time>
      </trkpt>
      <trkpt lat="43.24015" lon="6.05877">
        <ele>187.5859375</ele>
        <time>2020-10-11T08:07:52Z</time>
      </trkpt>
      <trkpt lat="43.24016" lon="6.05835">
        <ele>187.5078125</ele>
        <time>2020-10-11T08:08:06Z</time>
      </trkpt>
      <trkpt lat="43.24012" lon="6.05804">
        <ele>186.23046875</ele>
        <time>2020-10-11T08:08:12Z</time>
      </trkpt>
      <trkpt lat="43.2401" lon="6.05798">
        <ele>185.69140625</ele>
        <time>2020-10-11T08:08:13Z</time>
      </trkpt>
      <trkpt lat="43.24007" lon="6.05794">
        <ele>184.890625</ele>
        <time>2020-10-11T08:08:14Z</time>
      </trkpt>
      <trkpt lat="43.24004" lon="6.0579">
        <ele>184.015625</ele>
        <time>2020-10-11T08:08:15Z</time>
      </trkpt>
      <trkpt lat="43.24002" lon="6.05786">
        <ele>183.83984375</ele>
        <time>2020-10-11T08:08:16Z</time>
      </trkpt>
      <trkpt lat="43.23999" lon="6.05783">
        <ele>183.74609375</ele>
        <time>2020-10-11T08:08:17Z</time>
      </trkpt>
      <trkpt lat="43.23999" lon="6.05779">
        <ele>183.72265625</ele>
        <time>2020-10-11T08:08:18Z</time>
      </trkpt>
      <trkpt lat="43.23998" lon="6.05776">
        <ele>183.734375</ele>
        <time>2020-10-11T08:08:19Z</time>
      </trkpt>
      <trkpt lat="43.23998" lon="6.05773">
        <ele>183.75390625</ele>
        <time>2020-10-11T08:08:20Z</time>
      </trkpt>
      <trkpt lat="43.23998" lon="6.0577">
        <ele>183.7734375</ele>
        <time>2020-10-11T08:08:21Z</time>
      </trkpt>
      <trkpt lat="43.23998" lon="6.05768">
        <ele>183.796875</ele>
        <time>2020-10-11T08:08:22Z</time>
      </trkpt>
      <trkpt lat="43.23997" lon="6.05765">
        <ele>183.83203125</ele>
        <time>2020-10-11T08:08:23Z</time>
      </trkpt>
      <trkpt lat="43.23997" lon="6.05763">
        <ele>183.875</ele>
        <time>2020-10-11T08:08:24Z</time>
      </trkpt>
      <trkpt lat="43.23997" lon="6.0576">
        <ele>183.9140625</ele>
        <time>2020-10-11T08:08:25Z</time>
      </trkpt>
      <trkpt lat="43.23997" lon="6.05758">
        <ele>183.9609375</ele>
        <time>2020-10-11T08:08:26Z</time>
      </trkpt>
      <trkpt lat="43.23997" lon="6.05756">
        <ele>184.0078125</ele>
        <time>2020-10-11T08:08:27Z</time>
      </trkpt>
      <trkpt lat="43.23996" lon="6.05753">
        <ele>184.0546875</ele>
        <time>2020-10-11T08:08:28Z</time>
      </trkpt>
      <trkpt lat="43.23996" lon="6.05751">
        <ele>184.109375</ele>
        <time>2020-10-11T08:08:29Z</time>
      </trkpt>
      <trkpt lat="43.24001" lon="6.05714">
        <ele>184.375</ele>
        <time>2020-10-11T08:08:46Z</time>
      </trkpt>
      <trkpt lat="43.24004" lon="6.05695">
        <ele>184.09375</ele>
        <time>2020-10-11T08:08:54Z</time>
      </trkpt>
      <trkpt lat="43.24004" lon="6.0568">
        <ele>184.26953125</ele>
        <time>2020-10-11T08:09:00Z</time>
      </trkpt>
      <trkpt lat="43.24006" lon="6.05652">
        <ele>185.7265625</ele>
        <time>2020-10-11T08:09:13Z</time>
      </trkpt>
      <trkpt lat="43.24013" lon="6.05629">
        <ele>187.37890625</ele>
        <time>2020-10-11T08:09:23Z</time>
      </trkpt>
      <trkpt lat="43.24013" lon="6.05627">
        <ele>187.48828125</ele>
        <time>2020-10-11T08:09:24Z</time>
      </trkpt>
      <trkpt lat="43.24014" lon="6.05625">
        <ele>187.609375</ele>
        <time>2020-10-11T08:09:25Z</time>
      </trkpt>
      <trkpt lat="43.24021" lon="6.05593">
        <ele>189.046875</ele>
        <time>2020-10-11T08:09:39Z</time>
      </trkpt>
      <trkpt lat="43.24028" lon="6.05557">
        <ele>190.3203125</ele>
        <time>2020-10-11T08:09:54Z</time>
      </trkpt>
      <trkpt lat="43.24036" lon="6.05517">
        <ele>191.78125</ele>
        <time>2020-10-11T08:10:12Z</time>
      </trkpt>
      <trkpt lat="43.24038" lon="6.05486">
        <ele>193.80859375</ele>
        <time>2020-10-11T08:10:27Z</time>
      </trkpt>
      <trkpt lat="43.2404" lon="6.05459">
        <ele>195.69140625</ele>
        <time>2020-10-11T08:10:40Z</time>
      </trkpt>
      <trkpt lat="43.24042" lon="6.05446">
        <ele>196.609375</ele>
        <time>2020-10-11T08:10:47Z</time>
      </trkpt>
      <trkpt lat="43.24042" lon="6.05444">
        <ele>196.6640625</ele>
        <time>2020-10-11T08:10:48Z</time>
      </trkpt>
      <trkpt lat="43.24043" lon="6.05442">
        <ele>196.796875</ele>
        <time>2020-10-11T08:10:49Z</time>
      </trkpt>
      <trkpt lat="43.24043" lon="6.0544">
        <ele>196.91796875</ele>
        <time>2020-10-11T08:10:50Z</time>
      </trkpt>
      <trkpt lat="43.24043" lon="6.05439">
        <ele>197.02734375</ele>
        <time>2020-10-11T08:10:51Z</time>
      </trkpt>
      <trkpt lat="43.24045" lon="6.05428">
        <ele>197.62109375</ele>
        <time>2020-10-11T08:10:58Z</time>
      </trkpt>
      <trkpt lat="43.24045" lon="6.05426">
        <ele>197.7578125</ele>
        <time>2020-10-11T08:10:59Z</time>
      </trkpt>
      <trkpt lat="43.24048" lon="6.05397">
        <ele>199.54296875</ele>
        <time>2020-10-11T08:11:14Z</time>
      </trkpt>
      <trkpt lat="43.24052" lon="6.05378">
        <ele>200.68359375</ele>
        <time>2020-10-11T08:11:24Z</time>
      </trkpt>
      <trkpt lat="43.24059" lon="6.05344">
        <ele>201.79296875</ele>
        <time>2020-10-11T08:11:42Z</time>
      </trkpt>
      <trkpt lat="43.24061" lon="6.05325">
        <ele>202.87890625</ele>
        <time>2020-10-11T08:11:53Z</time>
      </trkpt>
      <trkpt lat="43.24063" lon="6.05322">
        <ele>202.96875</ele>
        <time>2020-10-11T08:12:12Z</time>
      </trkpt>
      <trkpt lat="43.24061" lon="6.05323">
        <ele>203.08203125</ele>
        <time>2020-10-11T08:12:35Z</time>
      </trkpt>
      <trkpt lat="43.2406" lon="6.05319">
        <ele>203.64453125</ele>
        <time>2020-10-11T08:13:06Z</time>
      </trkpt>
      <trkpt lat="43.24064" lon="6.05306">
        <ele>204.359375</ele>
        <time>2020-10-11T08:13:31Z</time>
      </trkpt>
      <trkpt lat="43.24069" lon="6.05277">
        <ele>205.73828125</ele>
        <time>2020-10-11T08:13:47Z</time>
      </trkpt>
      <trkpt lat="43.24074" lon="6.05244">
        <ele>208.30078125</ele>
        <time>2020-10-11T08:14:03Z</time>
      </trkpt>
      <trkpt lat="43.24074" lon="6.05242">
        <ele>208.48828125</ele>
        <time>2020-10-11T08:14:04Z</time>
      </trkpt>
      <trkpt lat="43.24074" lon="6.0524">
        <ele>208.58203125</ele>
        <time>2020-10-11T08:14:05Z</time>
      </trkpt>
      <trkpt lat="43.24074" lon="6.05238">
        <ele>208.66796875</ele>
        <time>2020-10-11T08:14:06Z</time>
      </trkpt>
      <trkpt lat="43.24075" lon="6.05236">
        <ele>208.75</ele>
        <time>2020-10-11T08:14:07Z</time>
      </trkpt>
      <trkpt lat="43.24075" lon="6.05234">
        <ele>208.90234375</ele>
        <time>2020-10-11T08:14:08Z</time>
      </trkpt>
      <trkpt lat="43.24075" lon="6.05231">
        <ele>208.96875</ele>
        <time>2020-10-11T08:14:09Z</time>
      </trkpt>
      <trkpt lat="43.24076" lon="6.05229">
        <ele>209.015625</ele>
        <time>2020-10-11T08:14:10Z</time>
      </trkpt>
      <trkpt lat="43.24076" lon="6.05228">
        <ele>209.05078125</ele>
        <time>2020-10-11T08:14:11Z</time>
      </trkpt>
      <trkpt lat="43.24076" lon="6.05226">
        <ele>209.09765625</ele>
        <time>2020-10-11T08:14:12Z</time>
      </trkpt>
      <trkpt lat="43.24076" lon="6.05224">
        <ele>209.2578125</ele>
        <time>2020-10-11T08:14:13Z</time>
      </trkpt>
      <trkpt lat="43.24081" lon="6.0519">
        <ele>212.171875</ele>
        <time>2020-10-11T08:14:28Z</time>
      </trkpt>
      <trkpt lat="43.24089" lon="6.05157">
        <ele>213.9921875</ele>
        <time>2020-10-11T08:14:44Z</time>
      </trkpt>
      <trkpt lat="43.24096" lon="6.05124">
        <ele>216.109375</ele>
        <time>2020-10-11T08:15:00Z</time>
      </trkpt>
      <trkpt lat="43.24097" lon="6.05122">
        <ele>216.2421875</ele>
        <time>2020-10-11T08:15:01Z</time>
      </trkpt>
      <trkpt lat="43.24103" lon="6.05086">
        <ele>219.015625</ele>
        <time>2020-10-11T08:15:17Z</time>
      </trkpt>
      <trkpt lat="43.24107" lon="6.0505">
        <ele>221.7421875</ele>
        <time>2020-10-11T08:15:33Z</time>
      </trkpt>
      <trkpt lat="43.2411" lon="6.05031">
        <ele>222.78515625</ele>
        <time>2020-10-11T08:15:42Z</time>
      </trkpt>
      <trkpt lat="43.24122" lon="6.04992">
        <ele>222.5625</ele>
        <time>2020-10-11T08:16:00Z</time>
      </trkpt>
      <trkpt lat="43.24132" lon="6.04955">
        <ele>222.15234375</ele>
        <time>2020-10-11T08:16:17Z</time>
      </trkpt>
      <trkpt lat="43.24135" lon="6.0494">
        <ele>221.7890625</ele>
        <time>2020-10-11T08:16:24Z</time>
      </trkpt>
      <trkpt lat="43.24135" lon="6.04938">
        <ele>221.78125</ele>
        <time>2020-10-11T08:16:25Z</time>
      </trkpt>
      <trkpt lat="43.24138" lon="6.04923">
        <ele>223.1328125</ele>
        <time>2020-10-11T08:16:32Z</time>
      </trkpt>
      <trkpt lat="43.24139" lon="6.04908">
        <ele>224.96484375</ele>
        <time>2020-10-11T08:16:40Z</time>
      </trkpt>
      <trkpt lat="43.24144" lon="6.04873">
        <ele>229.328125</ele>
        <time>2020-10-11T08:16:58Z</time>
      </trkpt>
      <trkpt lat="43.2415" lon="6.04846">
        <ele>232.9765625</ele>
        <time>2020-10-11T08:17:13Z</time>
      </trkpt>
      <trkpt lat="43.24158" lon="6.04828">
        <ele>233.90625</ele>
        <time>2020-10-11T08:17:24Z</time>
      </trkpt>
      <trkpt lat="43.24163" lon="6.0481">
        <ele>235.640625</ele>
        <time>2020-10-11T08:17:36Z</time>
      </trkpt>
      <trkpt lat="43.24162" lon="6.04809">
        <ele>236.14453125</ele>
        <time>2020-10-11T08:17:37Z</time>
      </trkpt>
      <trkpt lat="43.24161" lon="6.04809">
        <ele>236.640625</ele>
        <time>2020-10-11T08:17:38Z</time>
      </trkpt>
      <trkpt lat="43.24159" lon="6.04809">
        <ele>237.0625</ele>
        <time>2020-10-11T08:17:39Z</time>
      </trkpt>
      <trkpt lat="43.24158" lon="6.04809">
        <ele>237.3671875</ele>
        <time>2020-10-11T08:17:40Z</time>
      </trkpt>
      <trkpt lat="43.24157" lon="6.0481">
        <ele>237.64453125</ele>
        <time>2020-10-11T08:17:41Z</time>
      </trkpt>
      <trkpt lat="43.24156" lon="6.04811">
        <ele>237.9609375</ele>
        <time>2020-10-11T08:17:42Z</time>
      </trkpt>
      <trkpt lat="43.24155" lon="6.04812">
        <ele>238.15625</ele>
        <time>2020-10-11T08:17:43Z</time>
      </trkpt>
      <trkpt lat="43.24153" lon="6.04813">
        <ele>238.36328125</ele>
        <time>2020-10-11T08:17:44Z</time>
      </trkpt>
      <trkpt lat="43.24142" lon="6.04826">
        <ele>239.109375</ele>
        <time>2020-10-11T08:17:57Z</time>
      </trkpt>
      <trkpt lat="43.24141" lon="6.04826">
        <ele>239.71875</ele>
        <time>2020-10-11T08:18:21Z</time>
      </trkpt>
      <trkpt lat="43.24141" lon="6.04826">
        <ele>239.65625</ele>
        <time>2020-10-11T08:18:26Z</time>
      </trkpt>
      <trkpt lat="43.24141" lon="6.04826">
        <ele>239.87890625</ele>
        <time>2020-10-11T08:18:33Z</time>
      </trkpt>
      <trkpt lat="43.24141" lon="6.04828">
        <ele>239.42578125</ele>
        <time>2020-10-11T08:18:40Z</time>
      </trkpt>
      <trkpt lat="43.2414" lon="6.0483">
        <ele>239.33984375</ele>
        <time>2020-10-11T08:18:41Z</time>
      </trkpt>
      <trkpt lat="43.24139" lon="6.04831">
        <ele>239.375</ele>
        <time>2020-10-11T08:18:42Z</time>
      </trkpt>
      <trkpt lat="43.24132" lon="6.04844">
        <ele>239.8125</ele>
        <time>2020-10-11T08:18:52Z</time>
      </trkpt>
      <trkpt lat="43.24124" lon="6.04855">
        <ele>241.11328125</ele>
        <time>2020-10-11T08:19:02Z</time>
      </trkpt>
      <trkpt lat="43.24112" lon="6.04875">
        <ele>242.58984375</ele>
        <time>2020-10-11T08:19:18Z</time>
      </trkpt>
      <trkpt lat="43.24102" lon="6.04891">
        <ele>244.27734375</ele>
        <time>2020-10-11T08:19:32Z</time>
      </trkpt>
      <trkpt lat="43.24098" lon="6.04897">
        <ele>244.8359375</ele>
        <time>2020-10-11T08:19:36Z</time>
      </trkpt>
      <trkpt lat="43.24094" lon="6.049">
        <ele>246.4921875</ele>
        <time>2020-10-11T08:19:41Z</time>
      </trkpt>
      <trkpt lat="43.24093" lon="6.04899">
        <ele>247.015625</ele>
        <time>2020-10-11T08:19:42Z</time>
      </trkpt>
      <trkpt lat="43.24092" lon="6.04897">
        <ele>247.49609375</ele>
        <time>2020-10-11T08:19:43Z</time>
      </trkpt>
      <trkpt lat="43.24092" lon="6.04895">
        <ele>247.90234375</ele>
        <time>2020-10-11T08:19:44Z</time>
      </trkpt>
      <trkpt lat="43.24092" lon="6.04893">
        <ele>248.11328125</ele>
        <time>2020-10-11T08:19:45Z</time>
      </trkpt>
      <trkpt lat="43.24094" lon="6.04867">
        <ele>250.1796875</ele>
        <time>2020-10-11T08:20:00Z</time>
      </trkpt>
      <trkpt lat="43.24095" lon="6.04865">
        <ele>250.34765625</ele>
        <time>2020-10-11T08:20:01Z</time>
      </trkpt>
      <trkpt lat="43.24096" lon="6.04857">
        <ele>250.73046875</ele>
        <time>2020-10-11T08:20:05Z</time>
      </trkpt>
      <trkpt lat="43.24096" lon="6.04856">
        <ele>250.87109375</ele>
        <time>2020-10-11T08:20:06Z</time>
      </trkpt>
      <trkpt lat="43.24097" lon="6.04854">
        <ele>251.078125</ele>
        <time>2020-10-11T08:20:07Z</time>
      </trkpt>
      <trkpt lat="43.24096" lon="6.04852">
        <ele>251.30078125</ele>
        <time>2020-10-11T08:20:08Z</time>
      </trkpt>
      <trkpt lat="43.24097" lon="6.0485">
        <ele>251.46484375</ele>
        <time>2020-10-11T08:20:09Z</time>
      </trkpt>
      <trkpt lat="43.24097" lon="6.04848">
        <ele>251.58984375</ele>
        <time>2020-10-11T08:20:10Z</time>
      </trkpt>
      <trkpt lat="43.24097" lon="6.04846">
        <ele>251.66796875</ele>
        <time>2020-10-11T08:20:11Z</time>
      </trkpt>
      <trkpt lat="43.241" lon="6.04835">
        <ele>252.0234375</ele>
        <time>2020-10-11T08:20:17Z</time>
      </trkpt>
      <trkpt lat="43.241" lon="6.04831">
        <ele>252.32421875</ele>
        <time>2020-10-11T08:20:19Z</time>
      </trkpt>
      <trkpt lat="43.24108" lon="6.04798">
        <ele>254.68359375</ele>
        <time>2020-10-11T08:20:34Z</time>
      </trkpt>
      <trkpt lat="43.2411" lon="6.04787">
        <ele>255.56640625</ele>
        <time>2020-10-11T08:20:40Z</time>
      </trkpt>
      <trkpt lat="43.24122" lon="6.04756">
        <ele>258.49609375</ele>
        <time>2020-10-11T08:20:57Z</time>
      </trkpt>
      <trkpt lat="43.24122" lon="6.04754">
        <ele>258.82421875</ele>
        <time>2020-10-11T08:20:58Z</time>
      </trkpt>
      <trkpt lat="43.24123" lon="6.04752">
        <ele>259.1796875</ele>
        <time>2020-10-11T08:20:59Z</time>
      </trkpt>
      <trkpt lat="43.2412" lon="6.0473">
        <ele>263.1640625</ele>
        <time>2020-10-11T08:21:10Z</time>
      </trkpt>
      <trkpt lat="43.2412" lon="6.04728">
        <ele>263.484375</ele>
        <time>2020-10-11T08:21:11Z</time>
      </trkpt>
      <trkpt lat="43.2412" lon="6.04727">
        <ele>263.80078125</ele>
        <time>2020-10-11T08:21:12Z</time>
      </trkpt>
      <trkpt lat="43.24117" lon="6.04712">
        <ele>266.2578125</ele>
        <time>2020-10-11T08:21:20Z</time>
      </trkpt>
      <trkpt lat="43.24117" lon="6.0471">
        <ele>266.61328125</ele>
        <time>2020-10-11T08:21:21Z</time>
      </trkpt>
      <trkpt lat="43.24117" lon="6.04708">
        <ele>266.94140625</ele>
        <time>2020-10-11T08:21:22Z</time>
      </trkpt>
      <trkpt lat="43.24116" lon="6.04706">
        <ele>267.265625</ele>
        <time>2020-10-11T08:21:23Z</time>
      </trkpt>
      <trkpt lat="43.24116" lon="6.04704">
        <ele>267.58984375</ele>
        <time>2020-10-11T08:21:24Z</time>
      </trkpt>
      <trkpt lat="43.24117" lon="6.04674">
        <ele>270.92578125</ele>
        <time>2020-10-11T08:21:39Z</time>
      </trkpt>
      <trkpt lat="43.24117" lon="6.04658">
        <ele>272.12109375</ele>
        <time>2020-10-11T08:21:47Z</time>
      </trkpt>
      <trkpt lat="43.24116" lon="6.04656">
        <ele>272.2578125</ele>
        <time>2020-10-11T08:21:48Z</time>
      </trkpt>
      <trkpt lat="43.24116" lon="6.04654">
        <ele>272.421875</ele>
        <time>2020-10-11T08:21:49Z</time>
      </trkpt>
      <trkpt lat="43.24116" lon="6.04651">
        <ele>272.59375</ele>
        <time>2020-10-11T08:21:50Z</time>
      </trkpt>
      <trkpt lat="43.24116" lon="6.04649">
        <ele>272.75</ele>
        <time>2020-10-11T08:21:51Z</time>
      </trkpt>
      <trkpt lat="43.24121" lon="6.04629">
        <ele>274.3125</ele>
        <time>2020-10-11T08:22:02Z</time>
      </trkpt>
      <trkpt lat="43.24121" lon="6.04627">
        <ele>274.3984375</ele>
        <time>2020-10-11T08:22:03Z</time>
      </trkpt>
      <trkpt lat="43.24122" lon="6.04623">
        <ele>274.6015625</ele>
        <time>2020-10-11T08:22:05Z</time>
      </trkpt>
      <trkpt lat="43.24123" lon="6.04622">
        <ele>274.71484375</ele>
        <time>2020-10-11T08:22:06Z</time>
      </trkpt>
      <trkpt lat="43.24134" lon="6.04587">
        <ele>276.796875</ele>
        <time>2020-10-11T08:22:23Z</time>
      </trkpt>
      <trkpt lat="43.24149" lon="6.04566">
        <ele>277.8671875</ele>
        <time>2020-10-11T08:22:38Z</time>
      </trkpt>
      <trkpt lat="43.24156" lon="6.04545">
        <ele>278.05078125</ele>
        <time>2020-10-11T08:22:51Z</time>
      </trkpt>
      <trkpt lat="43.24156" lon="6.04543">
        <ele>278.0859375</ele>
        <time>2020-10-11T08:22:52Z</time>
      </trkpt>
      <trkpt lat="43.24157" lon="6.04541">
        <ele>278.125</ele>
        <time>2020-10-11T08:22:53Z</time>
      </trkpt>
      <trkpt lat="43.24157" lon="6.0454">
        <ele>278.16015625</ele>
        <time>2020-10-11T08:22:54Z</time>
      </trkpt>
      <trkpt lat="43.24158" lon="6.04538">
        <ele>278.19140625</ele>
        <time>2020-10-11T08:22:55Z</time>
      </trkpt>
      <trkpt lat="43.24159" lon="6.04537">
        <ele>278.23828125</ele>
        <time>2020-10-11T08:22:56Z</time>
      </trkpt>
      <trkpt lat="43.24164" lon="6.04522">
        <ele>278.71875</ele>
        <time>2020-10-11T08:23:04Z</time>
      </trkpt>
      <trkpt lat="43.24166" lon="6.04518">
        <ele>278.83984375</ele>
        <time>2020-10-11T08:23:06Z</time>
      </trkpt>
      <trkpt lat="43.24168" lon="6.04515">
        <ele>278.8984375</ele>
        <time>2020-10-11T08:23:08Z</time>
      </trkpt>
      <trkpt lat="43.24171" lon="6.04506">
        <ele>278.96484375</ele>
        <time>2020-10-11T08:23:13Z</time>
      </trkpt>
      <trkpt lat="43.24175" lon="6.04498">
        <ele>278.67578125</ele>
        <time>2020-10-11T08:23:17Z</time>
      </trkpt>
      <trkpt lat="43.24188" lon="6.04467">
        <ele>277.80078125</ele>
        <time>2020-10-11T08:23:33Z</time>
      </trkpt>
      <trkpt lat="43.2419" lon="6.04461">
        <ele>277.55859375</ele>
        <time>2020-10-11T08:23:36Z</time>
      </trkpt>
      <trkpt lat="43.24192" lon="6.04454">
        <ele>277.37109375</ele>
        <time>2020-10-11T08:23:39Z</time>
      </trkpt>
      <trkpt lat="43.24196" lon="6.04441">
        <ele>277.09765625</ele>
        <time>2020-10-11T08:23:45Z</time>
      </trkpt>
      <trkpt lat="43.24197" lon="6.04436">
        <ele>277.0546875</ele>
        <time>2020-10-11T08:23:47Z</time>
      </trkpt>
      <trkpt lat="43.24198" lon="6.04433">
        <ele>277.03515625</ele>
        <time>2020-10-11T08:23:48Z</time>
      </trkpt>
      <trkpt lat="43.24206" lon="6.04403">
        <ele>274.73828125</ele>
        <time>2020-10-11T08:24:03Z</time>
      </trkpt>
      <trkpt lat="43.2421" lon="6.04395">
        <ele>273.74609375</ele>
        <time>2020-10-11T08:24:07Z</time>
      </trkpt>
      <trkpt lat="43.24211" lon="6.04393">
        <ele>273.4921875</ele>
        <time>2020-10-11T08:24:08Z</time>
      </trkpt>
      <trkpt lat="43.24219" lon="6.04369">
        <ele>271.32421875</ele>
        <time>2020-10-11T08:24:18Z</time>
      </trkpt>
      <trkpt lat="43.24228" lon="6.04316">
        <ele>270.55859375</ele>
        <time>2020-10-11T08:24:35Z</time>
      </trkpt>
      <trkpt lat="43.24233" lon="6.04278">
        <ele>272.9140625</ele>
        <time>2020-10-11T08:24:48Z</time>
      </trkpt>
      <trkpt lat="43.24243" lon="6.04237">
        <ele>275.19921875</ele>
        <time>2020-10-11T08:25:07Z</time>
      </trkpt>
      <trkpt lat="43.24252" lon="6.04206">
        <ele>276.8203125</ele>
        <time>2020-10-11T08:25:20Z</time>
      </trkpt>
      <trkpt lat="43.24264" lon="6.04157">
        <ele>279.41015625</ele>
        <time>2020-10-11T08:25:38Z</time>
      </trkpt>
      <trkpt lat="43.24276" lon="6.04111">
        <ele>280.9765625</ele>
        <time>2020-10-11T08:25:52Z</time>
      </trkpt>
      <trkpt lat="43.24285" lon="6.04085">
        <ele>282.54296875</ele>
        <time>2020-10-11T08:26:05Z</time>
      </trkpt>
      <trkpt lat="43.243" lon="6.04049">
        <ele>284.97265625</ele>
        <time>2020-10-11T08:26:21Z</time>
      </trkpt>
      <trkpt lat="43.24321" lon="6.04015">
        <ele>284.90625</ele>
        <time>2020-10-11T08:26:35Z</time>
      </trkpt>
      <trkpt lat="43.24333" lon="6.04">
        <ele>284.35546875</ele>
        <time>2020-10-11T08:26:39Z</time>
      </trkpt>
      <trkpt lat="43.24337" lon="6.03996">
        <ele>284.12109375</ele>
        <time>2020-10-11T08:26:40Z</time>
      </trkpt>
      <trkpt lat="43.24373" lon="6.03946">
        <ele>287.9296875</ele>
        <time>2020-10-11T08:26:49Z</time>
      </trkpt>
      <trkpt lat="43.24375" lon="6.03939">
        <ele>288.1015625</ele>
        <time>2020-10-11T08:26:50Z</time>
      </trkpt>
      <trkpt lat="43.24377" lon="6.03933">
        <ele>288.26171875</ele>
        <time>2020-10-11T08:26:51Z</time>
      </trkpt>
      <trkpt lat="43.24379" lon="6.0392">
        <ele>288.5</ele>
        <time>2020-10-11T08:26:53Z</time>
      </trkpt>
      <trkpt lat="43.2438" lon="6.03914">
        <ele>288.58203125</ele>
        <time>2020-10-11T08:26:54Z</time>
      </trkpt>
      <trkpt lat="43.2438" lon="6.03908">
        <ele>288.6640625</ele>
        <time>2020-10-11T08:26:55Z</time>
      </trkpt>
      <trkpt lat="43.2438" lon="6.03901">
        <ele>288.78515625</ele>
        <time>2020-10-11T08:26:56Z</time>
      </trkpt>
      <trkpt lat="43.24387" lon="6.03845">
        <ele>289.94921875</ele>
        <time>2020-10-11T08:27:09Z</time>
      </trkpt>
      <trkpt lat="43.24389" lon="6.03831">
        <ele>290.63671875</ele>
        <time>2020-10-11T08:27:14Z</time>
      </trkpt>
      <trkpt lat="43.24389" lon="6.03828">
        <ele>290.80078125</ele>
        <time>2020-10-11T08:27:15Z</time>
      </trkpt>
      <trkpt lat="43.24405" lon="6.03806">
        <ele>293.4296875</ele>
        <time>2020-10-11T08:27:28Z</time>
      </trkpt>
      <trkpt lat="43.24413" lon="6.03798">
        <ele>294.84375</ele>
        <time>2020-10-11T08:27:34Z</time>
      </trkpt>
      <trkpt lat="43.24424" lon="6.03795">
        <ele>296.9375</ele>
        <time>2020-10-11T08:27:42Z</time>
      </trkpt>
      <trkpt lat="43.24425" lon="6.03792">
        <ele>297.15234375</ele>
        <time>2020-10-11T08:27:44Z</time>
      </trkpt>
      <trkpt lat="43.24425" lon="6.0379">
        <ele>297.09765625</ele>
        <time>2020-10-11T08:27:45Z</time>
      </trkpt>
      <trkpt lat="43.24424" lon="6.03789">
        <ele>297.07421875</ele>
        <time>2020-10-11T08:27:46Z</time>
      </trkpt>
      <trkpt lat="43.24424" lon="6.03787">
        <ele>297.1328125</ele>
        <time>2020-10-11T08:27:47Z</time>
      </trkpt>
      <trkpt lat="43.24424" lon="6.03785">
        <ele>297.21875</ele>
        <time>2020-10-11T08:27:48Z</time>
      </trkpt>
      <trkpt lat="43.24425" lon="6.03783">
        <ele>297.3359375</ele>
        <time>2020-10-11T08:27:49Z</time>
      </trkpt>
      <trkpt lat="43.24425" lon="6.03781">
        <ele>297.46875</ele>
        <time>2020-10-11T08:27:50Z</time>
      </trkpt>
      <trkpt lat="43.24425" lon="6.03779">
        <ele>297.59765625</ele>
        <time>2020-10-11T08:27:51Z</time>
      </trkpt>
      <trkpt lat="43.24432" lon="6.03751">
        <ele>299.76171875</ele>
        <time>2020-10-11T08:28:04Z</time>
      </trkpt>
      <trkpt lat="43.2444" lon="6.03719">
        <ele>302.5546875</ele>
        <time>2020-10-11T08:28:20Z</time>
      </trkpt>
      <trkpt lat="43.24443" lon="6.03707">
        <ele>303.53515625</ele>
        <time>2020-10-11T08:28:27Z</time>
      </trkpt>
      <trkpt lat="43.24443" lon="6.03694">
        <ele>304.1953125</ele>
        <time>2020-10-11T08:28:34Z</time>
      </trkpt>
      <trkpt lat="43.24445" lon="6.03686">
        <ele>304.81640625</ele>
        <time>2020-10-11T08:28:38Z</time>
      </trkpt>
      <trkpt lat="43.24446" lon="6.03683">
        <ele>304.984375</ele>
        <time>2020-10-11T08:28:39Z</time>
      </trkpt>
      <trkpt lat="43.24446" lon="6.03681">
        <ele>305.17578125</ele>
        <time>2020-10-11T08:28:40Z</time>
      </trkpt>
      <trkpt lat="43.24446" lon="6.03679">
        <ele>305.34765625</ele>
        <time>2020-10-11T08:28:41Z</time>
      </trkpt>
      <trkpt lat="43.24446" lon="6.03677">
        <ele>305.46875</ele>
        <time>2020-10-11T08:28:42Z</time>
      </trkpt>
      <trkpt lat="43.24445" lon="6.03674">
        <ele>305.58984375</ele>
        <time>2020-10-11T08:28:43Z</time>
      </trkpt>
      <trkpt lat="43.24445" lon="6.03672">
        <ele>305.6796875</ele>
        <time>2020-10-11T08:28:44Z</time>
      </trkpt>
      <trkpt lat="43.24445" lon="6.0367">
        <ele>305.8125</ele>
        <time>2020-10-11T08:28:45Z</time>
      </trkpt>
      <trkpt lat="43.24445" lon="6.03668">
        <ele>305.984375</ele>
        <time>2020-10-11T08:28:46Z</time>
      </trkpt>
      <trkpt lat="43.24445" lon="6.03666">
        <ele>306.11328125</ele>
        <time>2020-10-11T08:28:47Z</time>
      </trkpt>
      <trkpt lat="43.24445" lon="6.03664">
        <ele>306.24609375</ele>
        <time>2020-10-11T08:28:48Z</time>
      </trkpt>
      <trkpt lat="43.24445" lon="6.03662">
        <ele>306.3984375</ele>
        <time>2020-10-11T08:28:49Z</time>
      </trkpt>
      <trkpt lat="43.24446" lon="6.0366">
        <ele>306.58984375</ele>
        <time>2020-10-11T08:28:50Z</time>
      </trkpt>
      <trkpt lat="43.24446" lon="6.03658">
        <ele>306.79296875</ele>
        <time>2020-10-11T08:28:51Z</time>
      </trkpt>
      <trkpt lat="43.24447" lon="6.03648">
        <ele>307.59765625</ele>
        <time>2020-10-11T08:28:56Z</time>
      </trkpt>
      <trkpt lat="43.24448" lon="6.03643">
        <ele>308.14453125</ele>
        <time>2020-10-11T08:28:59Z</time>
      </trkpt>
      <trkpt lat="43.24448" lon="6.03642">
        <ele>308.31640625</ele>
        <time>2020-10-11T08:29:00Z</time>
      </trkpt>
      <trkpt lat="43.24449" lon="6.0364">
        <ele>308.51171875</ele>
        <time>2020-10-11T08:29:01Z</time>
      </trkpt>
      <trkpt lat="43.2445" lon="6.03638">
        <ele>308.7421875</ele>
        <time>2020-10-11T08:29:02Z</time>
      </trkpt>
      <trkpt lat="43.24451" lon="6.03637">
        <ele>308.984375</ele>
        <time>2020-10-11T08:29:03Z</time>
      </trkpt>
      <trkpt lat="43.24457" lon="6.03619">
        <ele>311.19921875</ele>
        <time>2020-10-11T08:29:14Z</time>
      </trkpt>
      <trkpt lat="43.24463" lon="6.0361">
        <ele>312.6328125</ele>
        <time>2020-10-11T08:29:19Z</time>
      </trkpt>
      <trkpt lat="43.24464" lon="6.03606">
        <ele>313.17578125</ele>
        <time>2020-10-11T08:29:21Z</time>
      </trkpt>
      <trkpt lat="43.24477" lon="6.03585">
        <ele>316.67578125</ele>
        <time>2020-10-11T08:29:34Z</time>
      </trkpt>
      <trkpt lat="43.24483" lon="6.03574">
        <ele>319.02734375</ele>
        <time>2020-10-11T08:29:41Z</time>
      </trkpt>
      <trkpt lat="43.24483" lon="6.03573">
        <ele>319.20703125</ele>
        <time>2020-10-11T08:29:42Z</time>
      </trkpt>
      <trkpt lat="43.24484" lon="6.03571">
        <ele>319.4140625</ele>
        <time>2020-10-11T08:29:43Z</time>
      </trkpt>
      <trkpt lat="43.24484" lon="6.0357">
        <ele>319.6640625</ele>
        <time>2020-10-11T08:29:44Z</time>
      </trkpt>
      <trkpt lat="43.24485" lon="6.03568">
        <ele>319.91015625</ele>
        <time>2020-10-11T08:29:45Z</time>
      </trkpt>
      <trkpt lat="43.24485" lon="6.03566">
        <ele>320.16796875</ele>
        <time>2020-10-11T08:29:46Z</time>
      </trkpt>
      <trkpt lat="43.24486" lon="6.03565">
        <ele>320.41015625</ele>
        <time>2020-10-11T08:29:47Z</time>
      </trkpt>
      <trkpt lat="43.24486" lon="6.03563">
        <ele>320.60546875</ele>
        <time>2020-10-11T08:29:48Z</time>
      </trkpt>
      <trkpt lat="43.24486" lon="6.03561">
        <ele>320.6953125</ele>
        <time>2020-10-11T08:29:49Z</time>
      </trkpt>
      <trkpt lat="43.24487" lon="6.0356">
        <ele>320.8359375</ele>
        <time>2020-10-11T08:29:50Z</time>
      </trkpt>
      <trkpt lat="43.24487" lon="6.03558">
        <ele>321.12890625</ele>
        <time>2020-10-11T08:29:51Z</time>
      </trkpt>
      <trkpt lat="43.24488" lon="6.03558">
        <ele>321.48046875</ele>
        <time>2020-10-11T08:29:52Z</time>
      </trkpt>
      <trkpt lat="43.24489" lon="6.03556">
        <ele>321.7578125</ele>
        <time>2020-10-11T08:29:53Z</time>
      </trkpt>
      <trkpt lat="43.24489" lon="6.03555">
        <ele>321.9453125</ele>
        <time>2020-10-11T08:29:54Z</time>
      </trkpt>
      <trkpt lat="43.2449" lon="6.03554">
        <ele>322.0859375</ele>
        <time>2020-10-11T08:29:55Z</time>
      </trkpt>
      <trkpt lat="43.24491" lon="6.03529">
        <ele>324.296875</ele>
        <time>2020-10-11T08:30:12Z</time>
      </trkpt>
      <trkpt lat="43.24492" lon="6.03513">
        <ele>325.26171875</ele>
        <time>2020-10-11T08:30:24Z</time>
      </trkpt>
      <trkpt lat="43.24493" lon="6.03508">
        <ele>325.96484375</ele>
        <time>2020-10-11T08:30:29Z</time>
      </trkpt>
      <trkpt lat="43.24492" lon="6.035">
        <ele>325.80078125</ele>
        <time>2020-10-11T08:30:35Z</time>
      </trkpt>
      <trkpt lat="43.24491" lon="6.03499">
        <ele>325.6171875</ele>
        <time>2020-10-11T08:30:36Z</time>
      </trkpt>
      <trkpt lat="43.24494" lon="6.03491">
        <ele>326.953125</ele>
        <time>2020-10-11T08:30:44Z</time>
      </trkpt>
      <trkpt lat="43.24495" lon="6.0349">
        <ele>327.26953125</ele>
        <time>2020-10-11T08:30:45Z</time>
      </trkpt>
      <trkpt lat="43.24495" lon="6.03487">
        <ele>327.5234375</ele>
        <time>2020-10-11T08:30:47Z</time>
      </trkpt>
      <trkpt lat="43.24493" lon="6.03479">
        <ele>327.1640625</ele>
        <time>2020-10-11T08:30:54Z</time>
      </trkpt>
      <trkpt lat="43.24493" lon="6.03465">
        <ele>328.08203125</ele>
        <time>2020-10-11T08:31:05Z</time>
      </trkpt>
      <trkpt lat="43.24493" lon="6.03457">
        <ele>328.71484375</ele>
        <time>2020-10-11T08:31:10Z</time>
      </trkpt>
      <trkpt lat="43.24493" lon="6.03432">
        <ele>330.53515625</ele>
        <time>2020-10-11T08:31:25Z</time>
      </trkpt>
      <trkpt lat="43.24493" lon="6.03408">
        <ele>333.3125</ele>
        <time>2020-10-11T08:31:39Z</time>
      </trkpt>
      <trkpt lat="43.24493" lon="6.03394">
        <ele>334.2109375</ele>
        <time>2020-10-11T08:31:47Z</time>
      </trkpt>
      <trkpt lat="43.24493" lon="6.03392">
        <ele>334.42578125</ele>
        <time>2020-10-11T08:31:48Z</time>
      </trkpt>
      <trkpt lat="43.24494" lon="6.0339">
        <ele>334.66796875</ele>
        <time>2020-10-11T08:31:49Z</time>
      </trkpt>
      <trkpt lat="43.24494" lon="6.03389">
        <ele>334.79296875</ele>
        <time>2020-10-11T08:31:50Z</time>
      </trkpt>
      <trkpt lat="43.24493" lon="6.03387">
        <ele>334.87890625</ele>
        <time>2020-10-11T08:31:51Z</time>
      </trkpt>
      <trkpt lat="43.24494" lon="6.03385">
        <ele>335.015625</ele>
        <time>2020-10-11T08:31:52Z</time>
      </trkpt>
      <trkpt lat="43.24494" lon="6.03384">
        <ele>335.1328125</ele>
        <time>2020-10-11T08:31:53Z</time>
      </trkpt>
      <trkpt lat="43.24493" lon="6.03382">
        <ele>335.20703125</ele>
        <time>2020-10-11T08:31:54Z</time>
      </trkpt>
      <trkpt lat="43.24491" lon="6.03359">
        <ele>335.99609375</ele>
        <time>2020-10-11T08:32:06Z</time>
      </trkpt>
      <trkpt lat="43.2449" lon="6.03357">
        <ele>335.875</ele>
        <time>2020-10-11T08:32:07Z</time>
      </trkpt>
      <trkpt lat="43.2449" lon="6.03355">
        <ele>335.7734375</ele>
        <time>2020-10-11T08:32:08Z</time>
      </trkpt>
      <trkpt lat="43.24484" lon="6.03331">
        <ele>336.02734375</ele>
        <time>2020-10-11T08:32:23Z</time>
      </trkpt>
      <trkpt lat="43.24482" lon="6.03318">
        <ele>336.64453125</ele>
        <time>2020-10-11T08:32:36Z</time>
      </trkpt>
      <trkpt lat="43.24482" lon="6.03317">
        <ele>336.70703125</ele>
        <time>2020-10-11T08:32:58Z</time>
      </trkpt>
      <trkpt lat="43.24481" lon="6.03315">
        <ele>336.61328125</ele>
        <time>2020-10-11T08:32:59Z</time>
      </trkpt>
      <trkpt lat="43.24479" lon="6.03312">
        <ele>336.31640625</ele>
        <time>2020-10-11T08:33:00Z</time>
      </trkpt>
      <trkpt lat="43.24474" lon="6.03305">
        <ele>336.05078125</ele>
        <time>2020-10-11T08:33:02Z</time>
      </trkpt>
      <trkpt lat="43.24474" lon="6.03301">
        <ele>336.30859375</ele>
        <time>2020-10-11T08:33:03Z</time>
      </trkpt>
      <trkpt lat="43.24474" lon="6.03296">
        <ele>337.18359375</ele>
        <time>2020-10-11T08:33:11Z</time>
      </trkpt>
      <trkpt lat="43.24472" lon="6.03291">
        <ele>337.41015625</ele>
        <time>2020-10-11T08:33:21Z</time>
      </trkpt>
      <trkpt lat="43.24471" lon="6.03289">
        <ele>337.3671875</ele>
        <time>2020-10-11T08:33:22Z</time>
      </trkpt>
      <trkpt lat="43.24469" lon="6.03287">
        <ele>337.33203125</ele>
        <time>2020-10-11T08:33:23Z</time>
      </trkpt>
      <trkpt lat="43.24467" lon="6.03285">
        <ele>337.33984375</ele>
        <time>2020-10-11T08:33:24Z</time>
      </trkpt>
      <trkpt lat="43.24466" lon="6.03282">
        <ele>337.43359375</ele>
        <time>2020-10-11T08:33:25Z</time>
      </trkpt>
      <trkpt lat="43.24465" lon="6.03279">
        <ele>337.4765625</ele>
        <time>2020-10-11T08:33:26Z</time>
      </trkpt>
      <trkpt lat="43.24463" lon="6.03274">
        <ele>337.76171875</ele>
        <time>2020-10-11T08:33:28Z</time>
      </trkpt>
      <trkpt lat="43.24461" lon="6.03266">
        <ele>338.1328125</ele>
        <time>2020-10-11T08:33:31Z</time>
      </trkpt>
      <trkpt lat="43.2446" lon="6.03265">
        <ele>337.94140625</ele>
        <time>2020-10-11T08:33:32Z</time>
      </trkpt>
      <trkpt lat="43.24451" lon="6.03259">
        <ele>336.515625</ele>
        <time>2020-10-11T08:33:44Z</time>
      </trkpt>
      <trkpt lat="43.24445" lon="6.03255">
        <ele>335.92578125</ele>
        <time>2020-10-11T08:33:56Z</time>
      </trkpt>
      <trkpt lat="43.24445" lon="6.03255">
        <ele>335.94921875</ele>
        <time>2020-10-11T08:33:58Z</time>
      </trkpt>
      <trkpt lat="43.24441" lon="6.03253">
        <ele>335.87890625</ele>
        <time>2020-10-11T08:34:09Z</time>
      </trkpt>
      <trkpt lat="43.24433" lon="6.03252">
        <ele>335.48828125</ele>
        <time>2020-10-11T08:34:23Z</time>
      </trkpt>
      <trkpt lat="43.24428" lon="6.03249">
        <ele>335.29296875</ele>
        <time>2020-10-11T08:34:37Z</time>
      </trkpt>
      <trkpt lat="43.24429" lon="6.0325">
        <ele>335.3046875</ele>
        <time>2020-10-11T08:34:42Z</time>
      </trkpt>
      <trkpt lat="43.24425" lon="6.03249">
        <ele>335.05859375</ele>
        <time>2020-10-11T08:34:54Z</time>
      </trkpt>
      <trkpt lat="43.24422" lon="6.03252">
        <ele>334.74609375</ele>
        <time>2020-10-11T08:35:06Z</time>
      </trkpt>
      <trkpt lat="43.24421" lon="6.03254">
        <ele>334.65234375</ele>
        <time>2020-10-11T08:35:10Z</time>
      </trkpt>
      <trkpt lat="43.24416" lon="6.03258">
        <ele>335.91015625</ele>
        <time>2020-10-11T08:35:23Z</time>
      </trkpt>
      <trkpt lat="43.24412" lon="6.03261">
        <ele>336.765625</ele>
        <time>2020-10-11T08:35:39Z</time>
      </trkpt>
      <trkpt lat="43.24407" lon="6.03266">
        <ele>338.109375</ele>
        <time>2020-10-11T08:35:52Z</time>
      </trkpt>
      <trkpt lat="43.24401" lon="6.03263">
        <ele>339.984375</ele>
        <time>2020-10-11T08:36:05Z</time>
      </trkpt>
      <trkpt lat="43.24395" lon="6.03265">
        <ele>341.67578125</ele>
        <time>2020-10-11T08:36:20Z</time>
      </trkpt>
      <trkpt lat="43.24389" lon="6.03266">
        <ele>343.44921875</ele>
        <time>2020-10-11T08:36:33Z</time>
      </trkpt>
      <trkpt lat="43.24389" lon="6.03266">
        <ele>343.45703125</ele>
        <time>2020-10-11T08:36:34Z</time>
      </trkpt>
      <trkpt lat="43.24386" lon="6.03265">
        <ele>344.8359375</ele>
        <time>2020-10-11T08:36:47Z</time>
      </trkpt>
      <trkpt lat="43.24384" lon="6.03264">
        <ele>345.34375</ele>
        <time>2020-10-11T08:37:02Z</time>
      </trkpt>
      <trkpt lat="43.24383" lon="6.03266">
        <ele>345.75390625</ele>
        <time>2020-10-11T08:37:21Z</time>
      </trkpt>
      <trkpt lat="43.2438" lon="6.03263">
        <ele>347.1015625</ele>
        <time>2020-10-11T08:37:38Z</time>
      </trkpt>
      <trkpt lat="43.2438" lon="6.03263">
        <ele>346.96875</ele>
        <time>2020-10-11T08:38:00Z</time>
      </trkpt>
      <trkpt lat="43.24379" lon="6.03264">
        <ele>347.18359375</ele>
        <time>2020-10-11T08:38:13Z</time>
      </trkpt>
      <trkpt lat="43.24377" lon="6.03265">
        <ele>348.0078125</ele>
        <time>2020-10-11T08:38:27Z</time>
      </trkpt>
      <trkpt lat="43.24375" lon="6.03267">
        <ele>348.67578125</ele>
        <time>2020-10-11T08:38:41Z</time>
      </trkpt>
      <trkpt lat="43.24369" lon="6.03266">
        <ele>350.79296875</ele>
        <time>2020-10-11T08:38:57Z</time>
      </trkpt>
      <trkpt lat="43.24366" lon="6.03271">
        <ele>351.69140625</ele>
        <time>2020-10-11T08:39:16Z</time>
      </trkpt>
      <trkpt lat="43.24366" lon="6.03271">
        <ele>351.67578125</ele>
        <time>2020-10-11T08:39:17Z</time>
      </trkpt>
      <trkpt lat="43.24361" lon="6.03273">
        <ele>353.43359375</ele>
        <time>2020-10-11T08:39:32Z</time>
      </trkpt>
      <trkpt lat="43.24358" lon="6.03274">
        <ele>354.5859375</ele>
        <time>2020-10-11T08:39:43Z</time>
      </trkpt>
      <trkpt lat="43.24352" lon="6.03279">
        <ele>356.67578125</ele>
        <time>2020-10-11T08:39:59Z</time>
      </trkpt>
      <trkpt lat="43.24346" lon="6.03278">
        <ele>358.95703125</ele>
        <time>2020-10-11T08:40:16Z</time>
      </trkpt>
      <trkpt lat="43.24339" lon="6.03277">
        <ele>361.8828125</ele>
        <time>2020-10-11T08:40:31Z</time>
      </trkpt>
      <trkpt lat="43.2433" lon="6.03284">
        <ele>364.6015625</ele>
        <time>2020-10-11T08:40:47Z</time>
      </trkpt>
      <trkpt lat="43.2432" lon="6.03284">
        <ele>367.671875</ele>
        <time>2020-10-11T08:41:05Z</time>
      </trkpt>
      <trkpt lat="43.24314" lon="6.03283">
        <ele>369.828125</ele>
        <time>2020-10-11T08:41:18Z</time>
      </trkpt>
      <trkpt lat="43.24312" lon="6.03281">
        <ele>370.44140625</ele>
        <time>2020-10-11T08:41:48Z</time>
      </trkpt>
      <trkpt lat="43.24314" lon="6.03282">
        <ele>369.83203125</ele>
        <time>2020-10-11T08:42:15Z</time>
      </trkpt>
      <trkpt lat="43.24315" lon="6.03284">
        <ele>369.4765625</ele>
        <time>2020-10-11T08:42:33Z</time>
      </trkpt>
      <trkpt lat="43.24313" lon="6.03286">
        <ele>369.7578125</ele>
        <time>2020-10-11T08:43:03Z</time>
      </trkpt>
      <trkpt lat="43.24312" lon="6.03285">
        <ele>370.29296875</ele>
        <time>2020-10-11T08:43:20Z</time>
      </trkpt>
      <trkpt lat="43.24309" lon="6.03281">
        <ele>371.36328125</ele>
        <time>2020-10-11T08:43:27Z</time>
      </trkpt>
      <trkpt lat="43.24309" lon="6.03279">
        <ele>371.7109375</ele>
        <time>2020-10-11T08:43:28Z</time>
      </trkpt>
      <trkpt lat="43.24298" lon="6.03273">
        <ele>374.73046875</ele>
        <time>2020-10-11T08:43:34Z</time>
      </trkpt>
      <trkpt lat="43.24296" lon="6.03274">
        <ele>375.2421875</ele>
        <time>2020-10-11T08:43:35Z</time>
      </trkpt>
      <trkpt lat="43.24294" lon="6.03274">
        <ele>375.8671875</ele>
        <time>2020-10-11T08:43:36Z</time>
      </trkpt>
      <trkpt lat="43.24292" lon="6.03273">
        <ele>376.41015625</ele>
        <time>2020-10-11T08:43:37Z</time>
      </trkpt>
      <trkpt lat="43.24293" lon="6.03273">
        <ele>376.05859375</ele>
        <time>2020-10-11T08:43:44Z</time>
      </trkpt>
      <trkpt lat="43.243" lon="6.03273">
        <ele>374.3671875</ele>
        <time>2020-10-11T08:43:48Z</time>
      </trkpt>
      <trkpt lat="43.24302" lon="6.03275">
        <ele>373.63671875</ele>
        <time>2020-10-11T08:43:49Z</time>
      </trkpt>
      <trkpt lat="43.24305" lon="6.03277">
        <ele>372.6953125</ele>
        <time>2020-10-11T08:43:50Z</time>
      </trkpt>
      <trkpt lat="43.24308" lon="6.03278">
        <ele>371.89453125</ele>
        <time>2020-10-11T08:43:51Z</time>
      </trkpt>
      <trkpt lat="43.2431" lon="6.03279">
        <ele>371.2265625</ele>
        <time>2020-10-11T08:43:52Z</time>
      </trkpt>
      <trkpt lat="43.24314" lon="6.03282">
        <ele>369.92578125</ele>
        <time>2020-10-11T08:44:04Z</time>
      </trkpt>
      <trkpt lat="43.24317" lon="6.03284">
        <ele>368.84765625</ele>
        <time>2020-10-11T08:44:30Z</time>
      </trkpt>
      <trkpt lat="43.24317" lon="6.03282">
        <ele>368.8125</ele>
        <time>2020-10-11T08:44:58Z</time>
      </trkpt>
      <trkpt lat="43.24318" lon="6.03279">
        <ele>368.8828125</ele>
        <time>2020-10-11T08:45:22Z</time>
      </trkpt>
      <trkpt lat="43.24316" lon="6.03283">
        <ele>369.02734375</ele>
        <time>2020-10-11T08:45:47Z</time>
      </trkpt>
      <trkpt lat="43.24316" lon="6.03284">
        <ele>368.88671875</ele>
        <time>2020-10-11T08:45:59Z</time>
      </trkpt>
      <trkpt lat="43.24317" lon="6.03285">
        <ele>368.79296875</ele>
        <time>2020-10-11T08:46:25Z</time>
      </trkpt>
      <trkpt lat="43.24316" lon="6.03286">
        <ele>368.984375</ele>
        <time>2020-10-11T08:46:44Z</time>
      </trkpt>
      <trkpt lat="43.24315" lon="6.03288">
        <ele>368.95703125</ele>
        <time>2020-10-11T08:46:45Z</time>
      </trkpt>
      <trkpt lat="43.24315" lon="6.0329">
        <ele>368.96484375</ele>
        <time>2020-10-11T08:46:46Z</time>
      </trkpt>
      <trkpt lat="43.24314" lon="6.03291">
        <ele>369.26171875</ele>
        <time>2020-10-11T08:46:47Z</time>
      </trkpt>
      <trkpt lat="43.24313" lon="6.03293">
        <ele>369.31640625</ele>
        <time>2020-10-11T08:46:48Z</time>
      </trkpt>
      <trkpt lat="43.24312" lon="6.03297">
        <ele>369.3515625</ele>
        <time>2020-10-11T08:46:49Z</time>
      </trkpt>
      <trkpt lat="43.2431" lon="6.03311">
        <ele>368.5703125</ele>
        <time>2020-10-11T08:46:52Z</time>
      </trkpt>
      <trkpt lat="43.2431" lon="6.03317">
        <ele>368.0859375</ele>
        <time>2020-10-11T08:46:53Z</time>
      </trkpt>
      <trkpt lat="43.24308" lon="6.03321">
        <ele>368.046875</ele>
        <time>2020-10-11T08:46:54Z</time>
      </trkpt>
      <trkpt lat="43.24306" lon="6.03323">
        <ele>368.23046875</ele>
        <time>2020-10-11T08:46:55Z</time>
      </trkpt>
      <trkpt lat="43.24305" lon="6.03328">
        <ele>368.109375</ele>
        <time>2020-10-11T08:46:57Z</time>
      </trkpt>
      <trkpt lat="43.24304" lon="6.03332">
        <ele>367.921875</ele>
        <time>2020-10-11T08:46:58Z</time>
      </trkpt>
      <trkpt lat="43.24303" lon="6.03336">
        <ele>367.63671875</ele>
        <time>2020-10-11T08:46:59Z</time>
      </trkpt>
      <trkpt lat="43.24301" lon="6.03341">
        <ele>367.46484375</ele>
        <time>2020-10-11T08:47:00Z</time>
      </trkpt>
      <trkpt lat="43.243" lon="6.03344">
        <ele>367.40625</ele>
        <time>2020-10-11T08:47:01Z</time>
      </trkpt>
      <trkpt lat="43.24298" lon="6.03347">
        <ele>367.5546875</ele>
        <time>2020-10-11T08:47:02Z</time>
      </trkpt>
      <trkpt lat="43.24296" lon="6.03348">
        <ele>367.8125</ele>
        <time>2020-10-11T08:47:03Z</time>
      </trkpt>
      <trkpt lat="43.24294" lon="6.0335">
        <ele>368</ele>
        <time>2020-10-11T08:47:04Z</time>
      </trkpt>
      <trkpt lat="43.24293" lon="6.03352">
        <ele>367.82421875</ele>
        <time>2020-10-11T08:47:05Z</time>
      </trkpt>
      <trkpt lat="43.24292" lon="6.03355">
        <ele>367.67578125</ele>
        <time>2020-10-11T08:47:06Z</time>
      </trkpt>
      <trkpt lat="43.2429" lon="6.03358">
        <ele>367.765625</ele>
        <time>2020-10-11T08:47:07Z</time>
      </trkpt>
      <trkpt lat="43.24288" lon="6.03359">
        <ele>368.1171875</ele>
        <time>2020-10-11T08:47:08Z</time>
      </trkpt>
      <trkpt lat="43.24284" lon="6.0336">
        <ele>368.7421875</ele>
        <time>2020-10-11T08:47:09Z</time>
      </trkpt>
      <trkpt lat="43.24274" lon="6.03366">
        <ele>368.046875</ele>
        <time>2020-10-11T08:47:12Z</time>
      </trkpt>
      <trkpt lat="43.24271" lon="6.03366">
        <ele>367.90234375</ele>
        <time>2020-10-11T08:47:13Z</time>
      </trkpt>
      <trkpt lat="43.24268" lon="6.03366">
        <ele>367.875</ele>
        <time>2020-10-11T08:47:14Z</time>
      </trkpt>
      <trkpt lat="43.24266" lon="6.03367">
        <ele>367.64453125</ele>
        <time>2020-10-11T08:47:15Z</time>
      </trkpt>
      <trkpt lat="43.24264" lon="6.03368">
        <ele>367.35546875</ele>
        <time>2020-10-11T08:47:16Z</time>
      </trkpt>
      <trkpt lat="43.24262" lon="6.03371">
        <ele>366.8828125</ele>
        <time>2020-10-11T08:47:17Z</time>
      </trkpt>
      <trkpt lat="43.24261" lon="6.03374">
        <ele>366.48046875</ele>
        <time>2020-10-11T08:47:18Z</time>
      </trkpt>
      <trkpt lat="43.2426" lon="6.03376">
        <ele>366.0859375</ele>
        <time>2020-10-11T08:47:19Z</time>
      </trkpt>
      <trkpt lat="43.24258" lon="6.03379">
        <ele>365.61328125</ele>
        <time>2020-10-11T08:47:20Z</time>
      </trkpt>
      <trkpt lat="43.24256" lon="6.03382">
        <ele>365.14453125</ele>
        <time>2020-10-11T08:47:21Z</time>
      </trkpt>
      <trkpt lat="43.24254" lon="6.03385">
        <ele>364.6953125</ele>
        <time>2020-10-11T08:47:22Z</time>
      </trkpt>
      <trkpt lat="43.24253" lon="6.03387">
        <ele>364.1328125</ele>
        <time>2020-10-11T08:47:23Z</time>
      </trkpt>
      <trkpt lat="43.24251" lon="6.03389">
        <ele>363.5859375</ele>
        <time>2020-10-11T08:47:24Z</time>
      </trkpt>
      <trkpt lat="43.24248" lon="6.03391">
        <ele>363.05859375</ele>
        <time>2020-10-11T08:47:25Z</time>
      </trkpt>
      <trkpt lat="43.24246" lon="6.03392">
        <ele>362.5703125</ele>
        <time>2020-10-11T08:47:26Z</time>
      </trkpt>
      <trkpt lat="43.24244" lon="6.03394">
        <ele>362.1328125</ele>
        <time>2020-10-11T08:47:27Z</time>
      </trkpt>
      <trkpt lat="43.24242" lon="6.03395">
        <ele>361.640625</ele>
        <time>2020-10-11T08:47:28Z</time>
      </trkpt>
      <trkpt lat="43.24232" lon="6.034">
        <ele>359.64453125</ele>
        <time>2020-10-11T08:47:32Z</time>
      </trkpt>
      <trkpt lat="43.24232" lon="6.03402">
        <ele>359.21484375</ele>
        <time>2020-10-11T08:47:33Z</time>
      </trkpt>
      <trkpt lat="43.24231" lon="6.03405">
        <ele>358.5234375</ele>
        <time>2020-10-11T08:47:34Z</time>
      </trkpt>
      <trkpt lat="43.2423" lon="6.03408">
        <ele>357.8046875</ele>
        <time>2020-10-11T08:47:35Z</time>
      </trkpt>
      <trkpt lat="43.24227" lon="6.03411">
        <ele>356.953125</ele>
        <time>2020-10-11T08:47:36Z</time>
      </trkpt>
      <trkpt lat="43.24225" lon="6.03413">
        <ele>356.19921875</ele>
        <time>2020-10-11T08:47:37Z</time>
      </trkpt>
      <trkpt lat="43.24224" lon="6.03416">
        <ele>355.609375</ele>
        <time>2020-10-11T08:47:38Z</time>
      </trkpt>
      <trkpt lat="43.24223" lon="6.03419">
        <ele>354.99609375</ele>
        <time>2020-10-11T08:47:39Z</time>
      </trkpt>
      <trkpt lat="43.24222" lon="6.03423">
        <ele>354.171875</ele>
        <time>2020-10-11T08:47:40Z</time>
      </trkpt>
      <trkpt lat="43.2422" lon="6.03427">
        <ele>353.2421875</ele>
        <time>2020-10-11T08:47:41Z</time>
      </trkpt>
      <trkpt lat="43.24218" lon="6.03431">
        <ele>352.28125</ele>
        <time>2020-10-11T08:47:42Z</time>
      </trkpt>
      <trkpt lat="43.24215" lon="6.03447">
        <ele>349.3515625</ele>
        <time>2020-10-11T08:47:45Z</time>
      </trkpt>
      <trkpt lat="43.24212" lon="6.03453">
        <ele>348.02734375</ele>
        <time>2020-10-11T08:47:46Z</time>
      </trkpt>
      <trkpt lat="43.2421" lon="6.03457">
        <ele>346.8984375</ele>
        <time>2020-10-11T08:47:47Z</time>
      </trkpt>
      <trkpt lat="43.24204" lon="6.03476">
        <ele>342.7734375</ele>
        <time>2020-10-11T08:47:55Z</time>
      </trkpt>
      <trkpt lat="43.24199" lon="6.03492">
        <ele>339.3828125</ele>
        <time>2020-10-11T08:47:59Z</time>
      </trkpt>
      <trkpt lat="43.24193" lon="6.03505">
        <ele>337.46875</ele>
        <time>2020-10-11T08:48:02Z</time>
      </trkpt>
      <trkpt lat="43.24193" lon="6.03509">
        <ele>336.8359375</ele>
        <time>2020-10-11T08:48:03Z</time>
      </trkpt>
      <trkpt lat="43.24192" lon="6.03528">
        <ele>334.48046875</ele>
        <time>2020-10-11T08:48:06Z</time>
      </trkpt>
      <trkpt lat="43.24191" lon="6.03533">
        <ele>333.87109375</ele>
        <time>2020-10-11T08:48:07Z</time>
      </trkpt>
      <trkpt lat="43.24189" lon="6.03539">
        <ele>333.16796875</ele>
        <time>2020-10-11T08:48:08Z</time>
      </trkpt>
      <trkpt lat="43.24187" lon="6.03552">
        <ele>331.53515625</ele>
        <time>2020-10-11T08:48:10Z</time>
      </trkpt>
      <trkpt lat="43.24183" lon="6.03565">
        <ele>329.7109375</ele>
        <time>2020-10-11T08:48:12Z</time>
      </trkpt>
      <trkpt lat="43.24181" lon="6.03579">
        <ele>327.703125</ele>
        <time>2020-10-11T08:48:14Z</time>
      </trkpt>
      <trkpt lat="43.24179" lon="6.03585">
        <ele>326.953125</ele>
        <time>2020-10-11T08:48:15Z</time>
      </trkpt>
      <trkpt lat="43.24178" lon="6.03591">
        <ele>326.23828125</ele>
        <time>2020-10-11T08:48:16Z</time>
      </trkpt>
      <trkpt lat="43.24177" lon="6.03598">
        <ele>325.42578125</ele>
        <time>2020-10-11T08:48:17Z</time>
      </trkpt>
      <trkpt lat="43.24176" lon="6.03605">
        <ele>324.62890625</ele>
        <time>2020-10-11T08:48:18Z</time>
      </trkpt>
      <trkpt lat="43.24174" lon="6.03612">
        <ele>323.62890625</ele>
        <time>2020-10-11T08:48:19Z</time>
      </trkpt>
      <trkpt lat="43.24173" lon="6.0362">
        <ele>322.609375</ele>
        <time>2020-10-11T08:48:20Z</time>
      </trkpt>
      <trkpt lat="43.24171" lon="6.03627">
        <ele>321.8515625</ele>
        <time>2020-10-11T08:48:21Z</time>
      </trkpt>
      <trkpt lat="43.2417" lon="6.03632">
        <ele>321.29296875</ele>
        <time>2020-10-11T08:48:22Z</time>
      </trkpt>
      <trkpt lat="43.24169" lon="6.03637">
        <ele>320.921875</ele>
        <time>2020-10-11T08:48:23Z</time>
      </trkpt>
      <trkpt lat="43.24167" lon="6.03641">
        <ele>320.83203125</ele>
        <time>2020-10-11T08:48:24Z</time>
      </trkpt>
      <trkpt lat="43.24164" lon="6.03645">
        <ele>320.8828125</ele>
        <time>2020-10-11T08:48:25Z</time>
      </trkpt>
      <trkpt lat="43.24162" lon="6.0365">
        <ele>320.875</ele>
        <time>2020-10-11T08:48:26Z</time>
      </trkpt>
      <trkpt lat="43.2416" lon="6.03655">
        <ele>320.73828125</ele>
        <time>2020-10-11T08:48:27Z</time>
      </trkpt>
      <trkpt lat="43.24159" lon="6.03661">
        <ele>320.4765625</ele>
        <time>2020-10-11T08:48:28Z</time>
      </trkpt>
      <trkpt lat="43.24156" lon="6.03675">
        <ele>320.3984375</ele>
        <time>2020-10-11T08:48:30Z</time>
      </trkpt>
      <trkpt lat="43.24155" lon="6.03679">
        <ele>320.53515625</ele>
        <time>2020-10-11T08:48:31Z</time>
      </trkpt>
      <trkpt lat="43.24153" lon="6.0368">
        <ele>320.75</ele>
        <time>2020-10-11T08:48:32Z</time>
      </trkpt>
      <trkpt lat="43.24152" lon="6.03682">
        <ele>320.953125</ele>
        <time>2020-10-11T08:48:33Z</time>
      </trkpt>
      <trkpt lat="43.24151" lon="6.03685">
        <ele>321.25390625</ele>
        <time>2020-10-11T08:48:34Z</time>
      </trkpt>
      <trkpt lat="43.24149" lon="6.03688">
        <ele>321.5625</ele>
        <time>2020-10-11T08:48:35Z</time>
      </trkpt>
      <trkpt lat="43.24138" lon="6.03701">
        <ele>322.37890625</ele>
        <time>2020-10-11T08:48:38Z</time>
      </trkpt>
      <trkpt lat="43.24135" lon="6.03706">
        <ele>322.0546875</ele>
        <time>2020-10-11T08:48:39Z</time>
      </trkpt>
      <trkpt lat="43.24134" lon="6.03712">
        <ele>321.6328125</ele>
        <time>2020-10-11T08:48:40Z</time>
      </trkpt>
      <trkpt lat="43.24131" lon="6.03717">
        <ele>321.359375</ele>
        <time>2020-10-11T08:48:41Z</time>
      </trkpt>
      <trkpt lat="43.24127" lon="6.0372">
        <ele>321.30078125</ele>
        <time>2020-10-11T08:48:42Z</time>
      </trkpt>
      <trkpt lat="43.24122" lon="6.03722">
        <ele>321.33203125</ele>
        <time>2020-10-11T08:48:43Z</time>
      </trkpt>
      <trkpt lat="43.24116" lon="6.03725">
        <ele>321.26953125</ele>
        <time>2020-10-11T08:48:44Z</time>
      </trkpt>
      <trkpt lat="43.24111" lon="6.03729">
        <ele>320.87890625</ele>
        <time>2020-10-11T08:48:45Z</time>
      </trkpt>
      <trkpt lat="43.24106" lon="6.0373">
        <ele>320.62109375</ele>
        <time>2020-10-11T08:48:46Z</time>
      </trkpt>
      <trkpt lat="43.24103" lon="6.03729">
        <ele>320.58203125</ele>
        <time>2020-10-11T08:48:47Z</time>
      </trkpt>
      <trkpt lat="43.24099" lon="6.03725">
        <ele>320.703125</ele>
        <time>2020-10-11T08:48:48Z</time>
      </trkpt>
      <trkpt lat="43.24096" lon="6.03721">
        <ele>320.86328125</ele>
        <time>2020-10-11T08:48:49Z</time>
      </trkpt>
      <trkpt lat="43.24092" lon="6.03717">
        <ele>321.03125</ele>
        <time>2020-10-11T08:48:50Z</time>
      </trkpt>
      <trkpt lat="43.24089" lon="6.03714">
        <ele>321.20703125</ele>
        <time>2020-10-11T08:48:51Z</time>
      </trkpt>
      <trkpt lat="43.24085" lon="6.03712">
        <ele>320.96484375</ele>
        <time>2020-10-11T08:48:52Z</time>
      </trkpt>
      <trkpt lat="43.24082" lon="6.0371">
        <ele>320.49609375</ele>
        <time>2020-10-11T08:48:53Z</time>
      </trkpt>
      <trkpt lat="43.24077" lon="6.03707">
        <ele>320.0546875</ele>
        <time>2020-10-11T08:48:54Z</time>
      </trkpt>
      <trkpt lat="43.2407" lon="6.03703">
        <ele>319.2109375</ele>
        <time>2020-10-11T08:48:57Z</time>
      </trkpt>
      <trkpt lat="43.24066" lon="6.03705">
        <ele>318.3046875</ele>
        <time>2020-10-11T08:49:22Z</time>
      </trkpt>
      <trkpt lat="43.24052" lon="6.03696">
        <ele>316.79296875</ele>
        <time>2020-10-11T08:49:29Z</time>
      </trkpt>
      <trkpt lat="43.24043" lon="6.03691">
        <ele>316.09375</ele>
        <time>2020-10-11T08:49:31Z</time>
      </trkpt>
      <trkpt lat="43.24039" lon="6.03689">
        <ele>315.71875</ele>
        <time>2020-10-11T08:49:32Z</time>
      </trkpt>
      <trkpt lat="43.24035" lon="6.03687">
        <ele>315.4453125</ele>
        <time>2020-10-11T08:49:33Z</time>
      </trkpt>
      <trkpt lat="43.24031" lon="6.03685">
        <ele>315.15234375</ele>
        <time>2020-10-11T08:49:34Z</time>
      </trkpt>
      <trkpt lat="43.24028" lon="6.03683">
        <ele>314.81640625</ele>
        <time>2020-10-11T08:49:35Z</time>
      </trkpt>
      <trkpt lat="43.24025" lon="6.03681">
        <ele>314.3984375</ele>
        <time>2020-10-11T08:49:36Z</time>
      </trkpt>
      <trkpt lat="43.24016" lon="6.03679">
        <ele>313.0859375</ele>
        <time>2020-10-11T08:49:38Z</time>
      </trkpt>
      <trkpt lat="43.24012" lon="6.03677">
        <ele>312.578125</ele>
        <time>2020-10-11T08:49:39Z</time>
      </trkpt>
      <trkpt lat="43.24008" lon="6.03675">
        <ele>311.9609375</ele>
        <time>2020-10-11T08:49:40Z</time>
      </trkpt>
      <trkpt lat="43.24003" lon="6.03676">
        <ele>311.08984375</ele>
        <time>2020-10-11T08:49:41Z</time>
      </trkpt>
      <trkpt lat="43.23999" lon="6.03679">
        <ele>310.484375</ele>
        <time>2020-10-11T08:49:42Z</time>
      </trkpt>
      <trkpt lat="43.23994" lon="6.03681">
        <ele>309.7578125</ele>
        <time>2020-10-11T08:49:50Z</time>
      </trkpt>
      <trkpt lat="43.23991" lon="6.03686">
        <ele>309.203125</ele>
        <time>2020-10-11T08:50:03Z</time>
      </trkpt>
      <trkpt lat="43.23991" lon="6.03687">
        <ele>309.05859375</ele>
        <time>2020-10-11T08:50:04Z</time>
      </trkpt>
      <trkpt lat="43.23991" lon="6.0369">
        <ele>308.8046875</ele>
        <time>2020-10-11T08:50:05Z</time>
      </trkpt>
      <trkpt lat="43.2399" lon="6.03693">
        <ele>308.45703125</ele>
        <time>2020-10-11T08:50:06Z</time>
      </trkpt>
      <trkpt lat="43.23988" lon="6.03697">
        <ele>308.0390625</ele>
        <time>2020-10-11T08:50:07Z</time>
      </trkpt>
      <trkpt lat="43.23986" lon="6.037">
        <ele>307.62109375</ele>
        <time>2020-10-11T08:50:08Z</time>
      </trkpt>
      <trkpt lat="43.2397" lon="6.03742">
        <ele>304.55078125</ele>
        <time>2020-10-11T08:50:18Z</time>
      </trkpt>
      <trkpt lat="43.23945" lon="6.03791">
        <ele>302.74609375</ele>
        <time>2020-10-11T08:50:32Z</time>
      </trkpt>
      <trkpt lat="43.23934" lon="6.03804">
        <ele>303.65234375</ele>
        <time>2020-10-11T08:50:38Z</time>
      </trkpt>
      <trkpt lat="43.23932" lon="6.03807">
        <ele>303.671875</ele>
        <time>2020-10-11T08:50:39Z</time>
      </trkpt>
      <trkpt lat="43.2393" lon="6.0381">
        <ele>303.66796875</ele>
        <time>2020-10-11T08:50:40Z</time>
      </trkpt>
      <trkpt lat="43.23929" lon="6.03812">
        <ele>303.7265625</ele>
        <time>2020-10-11T08:50:41Z</time>
      </trkpt>
      <trkpt lat="43.23927" lon="6.03814">
        <ele>303.87890625</ele>
        <time>2020-10-11T08:50:42Z</time>
      </trkpt>
      <trkpt lat="43.23925" lon="6.03817">
        <ele>304.0078125</ele>
        <time>2020-10-11T08:50:43Z</time>
      </trkpt>
      <trkpt lat="43.23921" lon="6.03824">
        <ele>304.34375</ele>
        <time>2020-10-11T08:50:46Z</time>
      </trkpt>
      <trkpt lat="43.23919" lon="6.03827">
        <ele>304.3515625</ele>
        <time>2020-10-11T08:50:47Z</time>
      </trkpt>
      <trkpt lat="43.23917" lon="6.0383">
        <ele>304.3828125</ele>
        <time>2020-10-11T08:50:48Z</time>
      </trkpt>
      <trkpt lat="43.239" lon="6.03855">
        <ele>305.20703125</ele>
        <time>2020-10-11T08:50:58Z</time>
      </trkpt>
      <trkpt lat="43.23873" lon="6.03879">
        <ele>306.9453125</ele>
        <time>2020-10-11T08:51:11Z</time>
      </trkpt>
      <trkpt lat="43.2385" lon="6.03887">
        <ele>308.2421875</ele>
        <time>2020-10-11T08:51:20Z</time>
      </trkpt>
      <trkpt lat="43.23831" lon="6.03887">
        <ele>309.25390625</ele>
        <time>2020-10-11T08:51:27Z</time>
      </trkpt>
      <trkpt lat="43.23825" lon="6.03885">
        <ele>309.53515625</ele>
        <time>2020-10-11T08:51:28Z</time>
      </trkpt>
      <trkpt lat="43.23819" lon="6.03882">
        <ele>309.98046875</ele>
        <time>2020-10-11T08:51:29Z</time>
      </trkpt>
      <trkpt lat="43.23814" lon="6.03878">
        <ele>310.33203125</ele>
        <time>2020-10-11T08:51:30Z</time>
      </trkpt>
      <trkpt lat="43.23804" lon="6.0387">
        <ele>310.109375</ele>
        <time>2020-10-11T08:51:32Z</time>
      </trkpt>
      <trkpt lat="43.23799" lon="6.03869">
        <ele>309.57421875</ele>
        <time>2020-10-11T08:51:33Z</time>
      </trkpt>
      <trkpt lat="43.23784" lon="6.03872">
        <ele>307.6015625</ele>
        <time>2020-10-11T08:51:36Z</time>
      </trkpt>
      <trkpt lat="43.23778" lon="6.03871">
        <ele>306.890625</ele>
        <time>2020-10-11T08:51:37Z</time>
      </trkpt>
      <trkpt lat="43.23772" lon="6.03868">
        <ele>306.15234375</ele>
        <time>2020-10-11T08:51:38Z</time>
      </trkpt>
      <trkpt lat="43.23765" lon="6.03867">
        <ele>305.390625</ele>
        <time>2020-10-11T08:51:39Z</time>
      </trkpt>
      <trkpt lat="43.23759" lon="6.03866">
        <ele>304.640625</ele>
        <time>2020-10-11T08:51:40Z</time>
      </trkpt>
      <trkpt lat="43.23752" lon="6.03866">
        <ele>303.96875</ele>
        <time>2020-10-11T08:51:41Z</time>
      </trkpt>
      <trkpt lat="43.23746" lon="6.03866">
        <ele>303.38671875</ele>
        <time>2020-10-11T08:51:42Z</time>
      </trkpt>
      <trkpt lat="43.23727" lon="6.03869">
        <ele>301.46875</ele>
        <time>2020-10-11T08:51:45Z</time>
      </trkpt>
      <trkpt lat="43.23723" lon="6.0387">
        <ele>301.20703125</ele>
        <time>2020-10-11T08:51:46Z</time>
      </trkpt>
      <trkpt lat="43.23719" lon="6.03869">
        <ele>301.15625</ele>
        <time>2020-10-11T08:51:47Z</time>
      </trkpt>
      <trkpt lat="43.23716" lon="6.03868">
        <ele>301.140625</ele>
        <time>2020-10-11T08:51:48Z</time>
      </trkpt>
      <trkpt lat="43.23713" lon="6.03868">
        <ele>301.015625</ele>
        <time>2020-10-11T08:51:49Z</time>
      </trkpt>
      <trkpt lat="43.23709" lon="6.03869">
        <ele>300.8125</ele>
        <time>2020-10-11T08:51:50Z</time>
      </trkpt>
      <trkpt lat="43.2367" lon="6.03886">
        <ele>298.51953125</ele>
        <time>2020-10-11T08:51:59Z</time>
      </trkpt>
      <trkpt lat="43.23665" lon="6.03889">
        <ele>298.32421875</ele>
        <time>2020-10-11T08:52:00Z</time>
      </trkpt>
      <trkpt lat="43.23661" lon="6.03893">
        <ele>298.08203125</ele>
        <time>2020-10-11T08:52:01Z</time>
      </trkpt>
      <trkpt lat="43.23654" lon="6.03901">
        <ele>297.73046875</ele>
        <time>2020-10-11T08:52:03Z</time>
      </trkpt>
      <trkpt lat="43.2365" lon="6.03905">
        <ele>297.6484375</ele>
        <time>2020-10-11T08:52:04Z</time>
      </trkpt>
      <trkpt lat="43.23647" lon="6.03908">
        <ele>297.71484375</ele>
        <time>2020-10-11T08:52:05Z</time>
      </trkpt>
      <trkpt lat="43.23644" lon="6.0391">
        <ele>297.94921875</ele>
        <time>2020-10-11T08:52:06Z</time>
      </trkpt>
      <trkpt lat="43.23641" lon="6.03911">
        <ele>297.875</ele>
        <time>2020-10-11T08:52:07Z</time>
      </trkpt>
      <trkpt lat="43.23638" lon="6.03913">
        <ele>297.7421875</ele>
        <time>2020-10-11T08:52:08Z</time>
      </trkpt>
      <trkpt lat="43.23636" lon="6.03915">
        <ele>297.59375</ele>
        <time>2020-10-11T08:52:09Z</time>
      </trkpt>
      <trkpt lat="43.23634" lon="6.03917">
        <ele>297.421875</ele>
        <time>2020-10-11T08:52:10Z</time>
      </trkpt>
      <trkpt lat="43.23633" lon="6.03919">
        <ele>297.2890625</ele>
        <time>2020-10-11T08:52:11Z</time>
      </trkpt>
      <trkpt lat="43.23631" lon="6.03921">
        <ele>297.234375</ele>
        <time>2020-10-11T08:52:12Z</time>
      </trkpt>
      <trkpt lat="43.23629" lon="6.03922">
        <ele>297.16796875</ele>
        <time>2020-10-11T08:52:13Z</time>
      </trkpt>
      <trkpt lat="43.23628" lon="6.03924">
        <ele>297.11328125</ele>
        <time>2020-10-11T08:52:14Z</time>
      </trkpt>
      <trkpt lat="43.23626" lon="6.03925">
        <ele>297.11328125</ele>
        <time>2020-10-11T08:52:15Z</time>
      </trkpt>
      <trkpt lat="43.23624" lon="6.03926">
        <ele>297.1640625</ele>
        <time>2020-10-11T08:52:16Z</time>
      </trkpt>
      <trkpt lat="43.23623" lon="6.03927">
        <ele>297.21484375</ele>
        <time>2020-10-11T08:52:17Z</time>
      </trkpt>
      <trkpt lat="43.23621" lon="6.03929">
        <ele>297.19921875</ele>
        <time>2020-10-11T08:52:18Z</time>
      </trkpt>
      <trkpt lat="43.23619" lon="6.03932">
        <ele>297.109375</ele>
        <time>2020-10-11T08:52:19Z</time>
      </trkpt>
      <trkpt lat="43.23617" lon="6.03935">
        <ele>297.05859375</ele>
        <time>2020-10-11T08:52:20Z</time>
      </trkpt>
      <trkpt lat="43.23614" lon="6.03938">
        <ele>296.91015625</ele>
        <time>2020-10-11T08:52:21Z</time>
      </trkpt>
      <trkpt lat="43.23601" lon="6.03953">
        <ele>295.35546875</ele>
        <time>2020-10-11T08:52:24Z</time>
      </trkpt>
      <trkpt lat="43.23597" lon="6.03957">
        <ele>295.0703125</ele>
        <time>2020-10-11T08:52:25Z</time>
      </trkpt>
      <trkpt lat="43.23592" lon="6.03961">
        <ele>295.171875</ele>
        <time>2020-10-11T08:52:26Z</time>
      </trkpt>
      <trkpt lat="43.23582" lon="6.03966">
        <ele>294.53515625</ele>
        <time>2020-10-11T08:52:28Z</time>
      </trkpt>
      <trkpt lat="43.23578" lon="6.03968">
        <ele>293.875</ele>
        <time>2020-10-11T08:52:29Z</time>
      </trkpt>
      <trkpt lat="43.23573" lon="6.03971">
        <ele>293.23046875</ele>
        <time>2020-10-11T08:52:30Z</time>
      </trkpt>
      <trkpt lat="43.23569" lon="6.03974">
        <ele>292.6171875</ele>
        <time>2020-10-11T08:52:31Z</time>
      </trkpt>
      <trkpt lat="43.23565" lon="6.03976">
        <ele>292.0625</ele>
        <time>2020-10-11T08:52:32Z</time>
      </trkpt>
      <trkpt lat="43.2356" lon="6.03979">
        <ele>291.53125</ele>
        <time>2020-10-11T08:52:33Z</time>
      </trkpt>
      <trkpt lat="43.2355" lon="6.03987">
        <ele>289.48828125</ele>
        <time>2020-10-11T08:52:36Z</time>
      </trkpt>
      <trkpt lat="43.23538" lon="6.03994">
        <ele>287.52734375</ele>
        <time>2020-10-11T08:52:39Z</time>
      </trkpt>
      <trkpt lat="43.23525" lon="6.04003">
        <ele>283.578125</ele>
        <time>2020-10-11T08:52:43Z</time>
      </trkpt>
      <trkpt lat="43.23521" lon="6.04005">
        <ele>282.41015625</ele>
        <time>2020-10-11T08:52:44Z</time>
      </trkpt>
      <trkpt lat="43.23506" lon="6.04011">
        <ele>278.4296875</ele>
        <time>2020-10-11T08:52:47Z</time>
      </trkpt>
      <trkpt lat="43.23502" lon="6.04014">
        <ele>277.01171875</ele>
        <time>2020-10-11T08:52:48Z</time>
      </trkpt>
      <trkpt lat="43.23496" lon="6.04018">
        <ele>275.58203125</ele>
        <time>2020-10-11T08:52:49Z</time>
      </trkpt>
      <trkpt lat="43.23481" lon="6.04031">
        <ele>272.01171875</ele>
        <time>2020-10-11T08:52:52Z</time>
      </trkpt>
      <trkpt lat="43.23472" lon="6.04034">
        <ele>270.796875</ele>
        <time>2020-10-11T08:52:55Z</time>
      </trkpt>
      <trkpt lat="43.23471" lon="6.04033">
        <ele>270.87890625</ele>
        <time>2020-10-11T08:52:56Z</time>
      </trkpt>
      <trkpt lat="43.2347" lon="6.04032">
        <ele>271.01171875</ele>
        <time>2020-10-11T08:52:57Z</time>
      </trkpt>
      <trkpt lat="43.23468" lon="6.0403">
        <ele>271.21484375</ele>
        <time>2020-10-11T08:53:09Z</time>
      </trkpt>
      <trkpt lat="43.23467" lon="6.04029">
        <ele>271.21484375</ele>
        <time>2020-10-11T08:53:39Z</time>
      </trkpt>
      <trkpt lat="43.23464" lon="6.04028">
        <ele>271.140625</ele>
        <time>2020-10-11T08:54:05Z</time>
      </trkpt>
      <trkpt lat="43.23463" lon="6.04023">
        <ele>271.78515625</ele>
        <time>2020-10-11T08:54:12Z</time>
      </trkpt>
      <trkpt lat="43.23464" lon="6.04019">
        <ele>272.328125</ele>
        <time>2020-10-11T08:54:13Z</time>
      </trkpt>
      <trkpt lat="43.23466" lon="6.04013">
        <ele>273.04296875</ele>
        <time>2020-10-11T08:54:14Z</time>
      </trkpt>
      <trkpt lat="43.23471" lon="6.03991">
        <ele>275.875</ele>
        <time>2020-10-11T08:54:17Z</time>
      </trkpt>
      <trkpt lat="43.23473" lon="6.03983">
        <ele>275.80078125</ele>
        <time>2020-10-11T08:54:18Z</time>
      </trkpt>
      <trkpt lat="43.23475" lon="6.03971">
        <ele>275.72265625</ele>
        <time>2020-10-11T08:54:20Z</time>
      </trkpt>
      <trkpt lat="43.23477" lon="6.03958">
        <ele>275.77734375</ele>
        <time>2020-10-11T08:54:22Z</time>
      </trkpt>
      <trkpt lat="43.23484" lon="6.03928">
        <ele>275.3203125</ele>
        <time>2020-10-11T08:54:27Z</time>
      </trkpt>
      <trkpt lat="43.23485" lon="6.03922">
        <ele>274.71875</ele>
        <time>2020-10-11T08:54:28Z</time>
      </trkpt>
      <trkpt lat="43.23486" lon="6.03917">
        <ele>274.16015625</ele>
        <time>2020-10-11T08:54:29Z</time>
      </trkpt>
      <trkpt lat="43.23487" lon="6.03911">
        <ele>273.6484375</ele>
        <time>2020-10-11T08:54:30Z</time>
      </trkpt>
      <trkpt lat="43.23488" lon="6.03905">
        <ele>272.75</ele>
        <time>2020-10-11T08:54:31Z</time>
      </trkpt>
      <trkpt lat="43.23489" lon="6.03899">
        <ele>271.67578125</ele>
        <time>2020-10-11T08:54:32Z</time>
      </trkpt>
      <trkpt lat="43.23491" lon="6.03889">
        <ele>270.40234375</ele>
        <time>2020-10-11T08:54:34Z</time>
      </trkpt>
      <trkpt lat="43.23493" lon="6.03886">
        <ele>270.38671875</ele>
        <time>2020-10-11T08:54:35Z</time>
      </trkpt>
      <trkpt lat="43.23494" lon="6.03882">
        <ele>270.23046875</ele>
        <time>2020-10-11T08:54:36Z</time>
      </trkpt>
      <trkpt lat="43.23495" lon="6.03878">
        <ele>269.50390625</ele>
        <time>2020-10-11T08:54:37Z</time>
      </trkpt>
      <trkpt lat="43.23497" lon="6.03873">
        <ele>268.90625</ele>
        <time>2020-10-11T08:54:38Z</time>
      </trkpt>
      <trkpt lat="43.235" lon="6.03868">
        <ele>268.68359375</ele>
        <time>2020-10-11T08:54:39Z</time>
      </trkpt>
      <trkpt lat="43.23503" lon="6.03864">
        <ele>268.234375</ele>
        <time>2020-10-11T08:54:40Z</time>
      </trkpt>
      <trkpt lat="43.23505" lon="6.0386">
        <ele>267.58203125</ele>
        <time>2020-10-11T08:54:41Z</time>
      </trkpt>
      <trkpt lat="43.23509" lon="6.03854">
        <ele>267.03125</ele>
        <time>2020-10-11T08:54:42Z</time>
      </trkpt>
      <trkpt lat="43.23518" lon="6.03839">
        <ele>264.36328125</ele>
        <time>2020-10-11T08:54:44Z</time>
      </trkpt>
      <trkpt lat="43.23522" lon="6.03833">
        <ele>262.87109375</ele>
        <time>2020-10-11T08:54:45Z</time>
      </trkpt>
      <trkpt lat="43.23526" lon="6.03828">
        <ele>262.16015625</ele>
        <time>2020-10-11T08:54:46Z</time>
      </trkpt>
      <trkpt lat="43.23531" lon="6.03826">
        <ele>262.19921875</ele>
        <time>2020-10-11T08:54:47Z</time>
      </trkpt>
      <trkpt lat="43.23536" lon="6.03823">
        <ele>262.02734375</ele>
        <time>2020-10-11T08:54:48Z</time>
      </trkpt>
      <trkpt lat="43.2354" lon="6.03819">
        <ele>261.48046875</ele>
        <time>2020-10-11T08:54:49Z</time>
      </trkpt>
      <trkpt lat="43.23548" lon="6.03816">
        <ele>261.92578125</ele>
        <time>2020-10-11T08:54:51Z</time>
      </trkpt>
      <trkpt lat="43.23552" lon="6.03815">
        <ele>262.80859375</ele>
        <time>2020-10-11T08:54:52Z</time>
      </trkpt>
      <trkpt lat="43.23558" lon="6.03815">
        <ele>263.7421875</ele>
        <time>2020-10-11T08:54:53Z</time>
      </trkpt>
      <trkpt lat="43.23562" lon="6.03813">
        <ele>264.39453125</ele>
        <time>2020-10-11T08:54:54Z</time>
      </trkpt>
      <trkpt lat="43.23566" lon="6.03811">
        <ele>264.5</ele>
        <time>2020-10-11T08:54:55Z</time>
      </trkpt>
      <trkpt lat="43.2357" lon="6.03808">
        <ele>264.546875</ele>
        <time>2020-10-11T08:54:56Z</time>
      </trkpt>
      <trkpt lat="43.23574" lon="6.03807">
        <ele>265.16015625</ele>
        <time>2020-10-11T08:54:57Z</time>
      </trkpt>
      <trkpt lat="43.23578" lon="6.03807">
        <ele>266.3984375</ele>
        <time>2020-10-11T08:54:58Z</time>
      </trkpt>
      <trkpt lat="43.23582" lon="6.03806">
        <ele>267.4921875</ele>
        <time>2020-10-11T08:54:59Z</time>
      </trkpt>
      <trkpt lat="43.23587" lon="6.03804">
        <ele>267.828125</ele>
        <time>2020-10-11T08:55:00Z</time>
      </trkpt>
      <trkpt lat="43.23591" lon="6.03801">
        <ele>268.484375</ele>
        <time>2020-10-11T08:55:01Z</time>
      </trkpt>
      <trkpt lat="43.23596" lon="6.03798">
        <ele>269.40234375</ele>
        <time>2020-10-11T08:55:02Z</time>
      </trkpt>
      <trkpt lat="43.23601" lon="6.03795">
        <ele>270.0234375</ele>
        <time>2020-10-11T08:55:03Z</time>
      </trkpt>
      <trkpt lat="43.23604" lon="6.03791">
        <ele>270.015625</ele>
        <time>2020-10-11T08:55:04Z</time>
      </trkpt>
      <trkpt lat="43.23608" lon="6.03786">
        <ele>269.578125</ele>
        <time>2020-10-11T08:55:05Z</time>
      </trkpt>
      <trkpt lat="43.23614" lon="6.03776">
        <ele>268.14453125</ele>
        <time>2020-10-11T08:55:07Z</time>
      </trkpt>
      <trkpt lat="43.23616" lon="6.03769">
        <ele>266.5859375</ele>
        <time>2020-10-11T08:55:08Z</time>
      </trkpt>
      <trkpt lat="43.23618" lon="6.03762">
        <ele>265.00390625</ele>
        <time>2020-10-11T08:55:09Z</time>
      </trkpt>
      <trkpt lat="43.23619" lon="6.0375">
        <ele>261.6171875</ele>
        <time>2020-10-11T08:55:11Z</time>
      </trkpt>
      <trkpt lat="43.23614" lon="6.03733">
        <ele>254.46484375</ele>
        <time>2020-10-11T08:55:15Z</time>
      </trkpt>
      <trkpt lat="43.2361" lon="6.03726">
        <ele>250.7578125</ele>
        <time>2020-10-11T08:55:17Z</time>
      </trkpt>
      <trkpt lat="43.23605" lon="6.03716">
        <ele>245.83984375</ele>
        <time>2020-10-11T08:55:20Z</time>
      </trkpt>
      <trkpt lat="43.23602" lon="6.03714">
        <ele>244.40625</ele>
        <time>2020-10-11T08:55:21Z</time>
      </trkpt>
      <trkpt lat="43.236" lon="6.03712">
        <ele>243.28515625</ele>
        <time>2020-10-11T08:55:22Z</time>
      </trkpt>
      <trkpt lat="43.23599" lon="6.03711">
        <ele>242.64453125</ele>
        <time>2020-10-11T08:55:23Z</time>
      </trkpt>
      <trkpt lat="43.23599" lon="6.03709">
        <ele>242.00390625</ele>
        <time>2020-10-11T08:55:24Z</time>
      </trkpt>
      <trkpt lat="43.2359" lon="6.03695">
        <ele>235.8671875</ele>
        <time>2020-10-11T08:55:30Z</time>
      </trkpt>
      <trkpt lat="43.23588" lon="6.03695">
        <ele>235.421875</ele>
        <time>2020-10-11T08:55:31Z</time>
      </trkpt>
      <trkpt lat="43.23589" lon="6.03697">
        <ele>236.16796875</ele>
        <time>2020-10-11T08:55:42Z</time>
      </trkpt>
      <trkpt lat="43.2359" lon="6.03697">
        <ele>236.3359375</ele>
        <time>2020-10-11T08:56:05Z</time>
      </trkpt>
      <trkpt lat="43.23592" lon="6.03702">
        <ele>237.953125</ele>
        <time>2020-10-11T08:56:22Z</time>
      </trkpt>
      <trkpt lat="43.23592" lon="6.03703">
        <ele>238.421875</ele>
        <time>2020-10-11T08:56:23Z</time>
      </trkpt>
      <trkpt lat="43.23593" lon="6.03705">
        <ele>238.96484375</ele>
        <time>2020-10-11T08:56:24Z</time>
      </trkpt>
      <trkpt lat="43.23593" lon="6.03707">
        <ele>239.44921875</ele>
        <time>2020-10-11T08:56:25Z</time>
      </trkpt>
      <trkpt lat="43.23593" lon="6.03709">
        <ele>239.94140625</ele>
        <time>2020-10-11T08:56:26Z</time>
      </trkpt>
      <trkpt lat="43.23594" lon="6.0371">
        <ele>240.48046875</ele>
        <time>2020-10-11T08:56:27Z</time>
      </trkpt>
      <trkpt lat="43.23595" lon="6.03712">
        <ele>240.95703125</ele>
        <time>2020-10-11T08:56:28Z</time>
      </trkpt>
      <trkpt lat="43.23595" lon="6.03713">
        <ele>241.46484375</ele>
        <time>2020-10-11T08:56:29Z</time>
      </trkpt>
      <trkpt lat="43.23596" lon="6.03715">
        <ele>241.99609375</ele>
        <time>2020-10-11T08:56:30Z</time>
      </trkpt>
      <trkpt lat="43.236" lon="6.03731">
        <ele>247.60546875</ele>
        <time>2020-10-11T08:56:40Z</time>
      </trkpt>
      <trkpt lat="43.236" lon="6.03733">
        <ele>248.0859375</ele>
        <time>2020-10-11T08:56:41Z</time>
      </trkpt>
      <trkpt lat="43.236" lon="6.03735">
        <ele>248.578125</ele>
        <time>2020-10-11T08:56:42Z</time>
      </trkpt>
      <trkpt lat="43.236" lon="6.03737">
        <ele>248.96875</ele>
        <time>2020-10-11T08:56:43Z</time>
      </trkpt>
      <trkpt lat="43.236" lon="6.03739">
        <ele>249.41796875</ele>
        <time>2020-10-11T08:56:44Z</time>
      </trkpt>
      <trkpt lat="43.236" lon="6.0374">
        <ele>249.796875</ele>
        <time>2020-10-11T08:56:45Z</time>
      </trkpt>
      <trkpt lat="43.23599" lon="6.03742">
        <ele>250.00390625</ele>
        <time>2020-10-11T08:56:46Z</time>
      </trkpt>
      <trkpt lat="43.23599" lon="6.03744">
        <ele>250.3203125</ele>
        <time>2020-10-11T08:56:47Z</time>
      </trkpt>
      <trkpt lat="43.23599" lon="6.03745">
        <ele>250.7890625</ele>
        <time>2020-10-11T08:56:48Z</time>
      </trkpt>
      <trkpt lat="43.23583" lon="6.03768">
        <ele>252.359375</ele>
        <time>2020-10-11T08:57:04Z</time>
      </trkpt>
      <trkpt lat="43.23563" lon="6.03776">
        <ele>249.66796875</ele>
        <time>2020-10-11T08:57:18Z</time>
      </trkpt>
      <trkpt lat="43.23531" lon="6.03784">
        <ele>245.05859375</ele>
        <time>2020-10-11T08:57:37Z</time>
      </trkpt>
      <trkpt lat="43.23507" lon="6.03795">
        <ele>245.0390625</ele>
        <time>2020-10-11T08:57:51Z</time>
      </trkpt>
      <trkpt lat="43.23483" lon="6.03815">
        <ele>248.01171875</ele>
        <time>2020-10-11T08:58:06Z</time>
      </trkpt>
      <trkpt lat="43.23465" lon="6.03844">
        <ele>251.640625</ele>
        <time>2020-10-11T08:58:22Z</time>
      </trkpt>
      <trkpt lat="43.23455" lon="6.03879">
        <ele>256.28125</ele>
        <time>2020-10-11T08:58:39Z</time>
      </trkpt>
      <trkpt lat="43.23449" lon="6.03908">
        <ele>259.63671875</ele>
        <time>2020-10-11T08:58:54Z</time>
      </trkpt>
      <trkpt lat="43.23444" lon="6.03926">
        <ele>262.546875</ele>
        <time>2020-10-11T08:59:03Z</time>
      </trkpt>
      <trkpt lat="43.23423" lon="6.03934">
        <ele>260.51953125</ele>
        <time>2020-10-11T08:59:16Z</time>
      </trkpt>
      <trkpt lat="43.23417" lon="6.03926">
        <ele>257.83984375</ele>
        <time>2020-10-11T08:59:21Z</time>
      </trkpt>
      <trkpt lat="43.23395" lon="6.03909">
        <ele>251.17578125</ele>
        <time>2020-10-11T08:59:36Z</time>
      </trkpt>
      <trkpt lat="43.23373" lon="6.03912">
        <ele>252.22265625</ele>
        <time>2020-10-11T08:59:50Z</time>
      </trkpt>
      <trkpt lat="43.23349" lon="6.03929">
        <ele>255.71484375</ele>
        <time>2020-10-11T09:00:07Z</time>
      </trkpt>
      <trkpt lat="43.23338" lon="6.03958">
        <ele>261.453125</ele>
        <time>2020-10-11T09:00:23Z</time>
      </trkpt>
      <trkpt lat="43.23326" lon="6.03989">
        <ele>264.66796875</ele>
        <time>2020-10-11T09:00:39Z</time>
      </trkpt>
      <trkpt lat="43.23323" lon="6.03996">
        <ele>265.046875</ele>
        <time>2020-10-11T09:00:43Z</time>
      </trkpt>
      <trkpt lat="43.23321" lon="6.03997">
        <ele>264.953125</ele>
        <time>2020-10-11T09:00:44Z</time>
      </trkpt>
      <trkpt lat="43.2332" lon="6.03999">
        <ele>264.9375</ele>
        <time>2020-10-11T09:00:45Z</time>
      </trkpt>
      <trkpt lat="43.23319" lon="6.04">
        <ele>264.875</ele>
        <time>2020-10-11T09:00:46Z</time>
      </trkpt>
      <trkpt lat="43.23318" lon="6.04002">
        <ele>264.82421875</ele>
        <time>2020-10-11T09:00:47Z</time>
      </trkpt>
      <trkpt lat="43.23316" lon="6.04003">
        <ele>264.73828125</ele>
        <time>2020-10-11T09:00:48Z</time>
      </trkpt>
      <trkpt lat="43.23301" lon="6.04025">
        <ele>265.65234375</ele>
        <time>2020-10-11T09:01:02Z</time>
      </trkpt>
      <trkpt lat="43.23296" lon="6.04038">
        <ele>267.21484375</ele>
        <time>2020-10-11T09:01:09Z</time>
      </trkpt>
      <trkpt lat="43.23296" lon="6.0404">
        <ele>267.5234375</ele>
        <time>2020-10-11T09:01:10Z</time>
      </trkpt>
      <trkpt lat="43.23296" lon="6.04042">
        <ele>267.85546875</ele>
        <time>2020-10-11T09:01:11Z</time>
      </trkpt>
      <trkpt lat="43.23297" lon="6.04043">
        <ele>268.14453125</ele>
        <time>2020-10-11T09:01:12Z</time>
      </trkpt>
      <trkpt lat="43.23298" lon="6.04044">
        <ele>268.37109375</ele>
        <time>2020-10-11T09:01:13Z</time>
      </trkpt>
      <trkpt lat="43.233" lon="6.04044">
        <ele>268.58984375</ele>
        <time>2020-10-11T09:01:14Z</time>
      </trkpt>
      <trkpt lat="43.23302" lon="6.04044">
        <ele>268.70703125</ele>
        <time>2020-10-11T09:01:15Z</time>
      </trkpt>
      <trkpt lat="43.23303" lon="6.04044">
        <ele>268.828125</ele>
        <time>2020-10-11T09:01:16Z</time>
      </trkpt>
      <trkpt lat="43.23305" lon="6.04044">
        <ele>268.94140625</ele>
        <time>2020-10-11T09:01:17Z</time>
      </trkpt>
      <trkpt lat="43.23306" lon="6.04044">
        <ele>268.9765625</ele>
        <time>2020-10-11T09:01:18Z</time>
      </trkpt>
      <trkpt lat="43.23307" lon="6.04043">
        <ele>268.99609375</ele>
        <time>2020-10-11T09:01:19Z</time>
      </trkpt>
      <trkpt lat="43.23308" lon="6.04043">
        <ele>268.9609375</ele>
        <time>2020-10-11T09:01:20Z</time>
      </trkpt>
      <trkpt lat="43.23309" lon="6.04042">
        <ele>268.90234375</ele>
        <time>2020-10-11T09:01:21Z</time>
      </trkpt>
      <trkpt lat="43.2331" lon="6.0404">
        <ele>268.80859375</ele>
        <time>2020-10-11T09:01:22Z</time>
      </trkpt>
      <trkpt lat="43.23311" lon="6.04039">
        <ele>268.77734375</ele>
        <time>2020-10-11T09:01:23Z</time>
      </trkpt>
      <trkpt lat="43.23312" lon="6.04038">
        <ele>268.73828125</ele>
        <time>2020-10-11T09:01:24Z</time>
      </trkpt>
      <trkpt lat="43.23313" lon="6.04037">
        <ele>268.73828125</ele>
        <time>2020-10-11T09:01:25Z</time>
      </trkpt>
      <trkpt lat="43.23313" lon="6.04036">
        <ele>268.74609375</ele>
        <time>2020-10-11T09:01:26Z</time>
      </trkpt>
      <trkpt lat="43.23314" lon="6.04035">
        <ele>268.76171875</ele>
        <time>2020-10-11T09:01:27Z</time>
      </trkpt>
      <trkpt lat="43.23326" lon="6.04013">
        <ele>268.265625</ele>
        <time>2020-10-11T09:01:42Z</time>
      </trkpt>
      <trkpt lat="43.23348" lon="6.03992">
        <ele>268.109375</ele>
        <time>2020-10-11T09:01:58Z</time>
      </trkpt>
      <trkpt lat="43.23372" lon="6.03981">
        <ele>266.8515625</ele>
        <time>2020-10-11T09:02:13Z</time>
      </trkpt>
      <trkpt lat="43.23397" lon="6.03986">
        <ele>267.86328125</ele>
        <time>2020-10-11T09:02:28Z</time>
      </trkpt>
      <trkpt lat="43.23398" lon="6.03986">
        <ele>267.96875</ele>
        <time>2020-10-11T09:02:29Z</time>
      </trkpt>
      <trkpt lat="43.23413" lon="6.03994">
        <ele>269.7734375</ele>
        <time>2020-10-11T09:02:39Z</time>
      </trkpt>
      <trkpt lat="43.23435" lon="6.04005">
        <ele>271.01171875</ele>
        <time>2020-10-11T09:02:53Z</time>
      </trkpt>
      <trkpt lat="43.23454" lon="6.04016">
        <ele>271.6328125</ele>
        <time>2020-10-11T09:03:07Z</time>
      </trkpt>
      <trkpt lat="43.23458" lon="6.0403">
        <ele>270.52734375</ele>
        <time>2020-10-11T09:03:14Z</time>
      </trkpt>
      <trkpt lat="43.23457" lon="6.04032">
        <ele>270.26953125</ele>
        <time>2020-10-11T09:03:15Z</time>
      </trkpt>
      <trkpt lat="43.23456" lon="6.04033">
        <ele>270.03125</ele>
        <time>2020-10-11T09:03:16Z</time>
      </trkpt>
      <trkpt lat="43.23455" lon="6.04035">
        <ele>269.81640625</ele>
        <time>2020-10-11T09:03:17Z</time>
      </trkpt>
      <trkpt lat="43.23453" lon="6.04036">
        <ele>269.63671875</ele>
        <time>2020-10-11T09:03:18Z</time>
      </trkpt>
      <trkpt lat="43.23452" lon="6.04037">
        <ele>269.43359375</ele>
        <time>2020-10-11T09:03:19Z</time>
      </trkpt>
      <trkpt lat="43.23451" lon="6.04038">
        <ele>269.2265625</ele>
        <time>2020-10-11T09:03:20Z</time>
      </trkpt>
      <trkpt lat="43.2345" lon="6.04039">
        <ele>269.03515625</ele>
        <time>2020-10-11T09:03:21Z</time>
      </trkpt>
      <trkpt lat="43.23449" lon="6.04041">
        <ele>268.8515625</ele>
        <time>2020-10-11T09:03:22Z</time>
      </trkpt>
      <trkpt lat="43.23448" lon="6.04042">
        <ele>268.734375</ele>
        <time>2020-10-11T09:03:23Z</time>
      </trkpt>
      <trkpt lat="43.23434" lon="6.04061">
        <ele>266.859375</ele>
        <time>2020-10-11T09:03:37Z</time>
      </trkpt>
      <trkpt lat="43.23408" lon="6.0409">
        <ele>264.11328125</ele>
        <time>2020-10-11T09:03:54Z</time>
      </trkpt>
      <trkpt lat="43.23377" lon="6.04113">
        <ele>264.99609375</ele>
        <time>2020-10-11T09:04:09Z</time>
      </trkpt>
      <trkpt lat="43.23342" lon="6.04135">
        <ele>267.23828125</ele>
        <time>2020-10-11T09:04:26Z</time>
      </trkpt>
      <trkpt lat="43.23316" lon="6.04148">
        <ele>270.09765625</ele>
        <time>2020-10-11T09:04:39Z</time>
      </trkpt>
      <trkpt lat="43.23314" lon="6.04148">
        <ele>270.24609375</ele>
        <time>2020-10-11T09:04:40Z</time>
      </trkpt>
      <trkpt lat="43.23313" lon="6.04149">
        <ele>270.44921875</ele>
        <time>2020-10-11T09:04:41Z</time>
      </trkpt>
      <trkpt lat="43.23311" lon="6.04149">
        <ele>270.6484375</ele>
        <time>2020-10-11T09:04:42Z</time>
      </trkpt>
      <trkpt lat="43.2331" lon="6.0415">
        <ele>270.82421875</ele>
        <time>2020-10-11T09:04:43Z</time>
      </trkpt>
      <trkpt lat="43.23308" lon="6.0415">
        <ele>271.05859375</ele>
        <time>2020-10-11T09:04:44Z</time>
      </trkpt>
      <trkpt lat="43.23306" lon="6.0415">
        <ele>271.32421875</ele>
        <time>2020-10-11T09:04:45Z</time>
      </trkpt>
      <trkpt lat="43.23305" lon="6.04151">
        <ele>271.55859375</ele>
        <time>2020-10-11T09:04:46Z</time>
      </trkpt>
      <trkpt lat="43.23304" lon="6.04152">
        <ele>271.734375</ele>
        <time>2020-10-11T09:04:47Z</time>
      </trkpt>
      <trkpt lat="43.23302" lon="6.04152">
        <ele>271.953125</ele>
        <time>2020-10-11T09:04:48Z</time>
      </trkpt>
      <trkpt lat="43.2329" lon="6.04153">
        <ele>273.9375</ele>
        <time>2020-10-11T09:04:56Z</time>
      </trkpt>
      <trkpt lat="43.23286" lon="6.04152">
        <ele>274.5859375</ele>
        <time>2020-10-11T09:04:58Z</time>
      </trkpt>
      <trkpt lat="43.23281" lon="6.04151">
        <ele>275.453125</ele>
        <time>2020-10-11T09:05:01Z</time>
      </trkpt>
      <trkpt lat="43.2328" lon="6.0415">
        <ele>275.6953125</ele>
        <time>2020-10-11T09:05:02Z</time>
      </trkpt>
      <trkpt lat="43.2326" lon="6.04144">
        <ele>278.8515625</ele>
        <time>2020-10-11T09:05:15Z</time>
      </trkpt>
      <trkpt lat="43.2325" lon="6.04144">
        <ele>280.3203125</ele>
        <time>2020-10-11T09:05:21Z</time>
      </trkpt>
      <trkpt lat="43.23236" lon="6.04152">
        <ele>282.3828125</ele>
        <time>2020-10-11T09:05:31Z</time>
      </trkpt>
      <trkpt lat="43.23228" lon="6.04158">
        <ele>283.84375</ele>
        <time>2020-10-11T09:05:37Z</time>
      </trkpt>
      <trkpt lat="43.23226" lon="6.04158">
        <ele>284.140625</ele>
        <time>2020-10-11T09:05:38Z</time>
      </trkpt>
      <trkpt lat="43.23224" lon="6.04158">
        <ele>284.4296875</ele>
        <time>2020-10-11T09:05:39Z</time>
      </trkpt>
      <trkpt lat="43.23222" lon="6.04159">
        <ele>284.703125</ele>
        <time>2020-10-11T09:05:40Z</time>
      </trkpt>
      <trkpt lat="43.2322" lon="6.04159">
        <ele>284.96875</ele>
        <time>2020-10-11T09:05:41Z</time>
      </trkpt>
      <trkpt lat="43.23218" lon="6.04158">
        <ele>285.22265625</ele>
        <time>2020-10-11T09:05:42Z</time>
      </trkpt>
      <trkpt lat="43.23198" lon="6.04153">
        <ele>287.953125</ele>
        <time>2020-10-11T09:05:55Z</time>
      </trkpt>
      <trkpt lat="43.23172" lon="6.04151">
        <ele>290.60546875</ele>
        <time>2020-10-11T09:06:08Z</time>
      </trkpt>
      <trkpt lat="43.23148" lon="6.04143">
        <ele>292.88671875</ele>
        <time>2020-10-11T09:06:22Z</time>
      </trkpt>
      <trkpt lat="43.2314" lon="6.04142">
        <ele>293.61328125</ele>
        <time>2020-10-11T09:06:27Z</time>
      </trkpt>
      <trkpt lat="43.23118" lon="6.04132">
        <ele>294.84375</ele>
        <time>2020-10-11T09:06:41Z</time>
      </trkpt>
      <trkpt lat="43.23116" lon="6.04131">
        <ele>294.9609375</ele>
        <time>2020-10-11T09:06:43Z</time>
      </trkpt>
      <trkpt lat="43.23115" lon="6.0413">
        <ele>295.06640625</ele>
        <time>2020-10-11T09:06:44Z</time>
      </trkpt>
      <trkpt lat="43.23113" lon="6.04129">
        <ele>295.24609375</ele>
        <time>2020-10-11T09:06:45Z</time>
      </trkpt>
      <trkpt lat="43.23112" lon="6.04128">
        <ele>295.4375</ele>
        <time>2020-10-11T09:06:46Z</time>
      </trkpt>
      <trkpt lat="43.2311" lon="6.04127">
        <ele>295.62109375</ele>
        <time>2020-10-11T09:06:47Z</time>
      </trkpt>
      <trkpt lat="43.23087" lon="6.04122">
        <ele>298.52734375</ele>
        <time>2020-10-11T09:07:01Z</time>
      </trkpt>
      <trkpt lat="43.23075" lon="6.04121">
        <ele>300.11328125</ele>
        <time>2020-10-11T09:07:09Z</time>
      </trkpt>
      <trkpt lat="43.23074" lon="6.04121">
        <ele>300.328125</ele>
        <time>2020-10-11T09:07:10Z</time>
      </trkpt>
      <trkpt lat="43.23072" lon="6.04121">
        <ele>300.5703125</ele>
        <time>2020-10-11T09:07:11Z</time>
      </trkpt>
      <trkpt lat="43.2307" lon="6.04121">
        <ele>300.78125</ele>
        <time>2020-10-11T09:07:12Z</time>
      </trkpt>
      <trkpt lat="43.23069" lon="6.04121">
        <ele>300.96875</ele>
        <time>2020-10-11T09:07:13Z</time>
      </trkpt>
      <trkpt lat="43.23068" lon="6.0412">
        <ele>301.15234375</ele>
        <time>2020-10-11T09:07:14Z</time>
      </trkpt>
      <trkpt lat="43.23066" lon="6.04121">
        <ele>301.359375</ele>
        <time>2020-10-11T09:07:15Z</time>
      </trkpt>
      <trkpt lat="43.23065" lon="6.04121">
        <ele>301.58984375</ele>
        <time>2020-10-11T09:07:16Z</time>
      </trkpt>
      <trkpt lat="43.23063" lon="6.0412">
        <ele>301.77734375</ele>
        <time>2020-10-11T09:07:17Z</time>
      </trkpt>
      <trkpt lat="43.23049" lon="6.04122">
        <ele>303.90234375</ele>
        <time>2020-10-11T09:07:26Z</time>
      </trkpt>
      <trkpt lat="43.23048" lon="6.04122">
        <ele>304.109375</ele>
        <time>2020-10-11T09:07:27Z</time>
      </trkpt>
      <trkpt lat="43.23046" lon="6.04122">
        <ele>304.328125</ele>
        <time>2020-10-11T09:07:28Z</time>
      </trkpt>
      <trkpt lat="43.23045" lon="6.04122">
        <ele>304.49609375</ele>
        <time>2020-10-11T09:07:29Z</time>
      </trkpt>
      <trkpt lat="43.23034" lon="6.04127">
        <ele>306.5078125</ele>
        <time>2020-10-11T09:07:39Z</time>
      </trkpt>
      <trkpt lat="43.23033" lon="6.04129">
        <ele>306.703125</ele>
        <time>2020-10-11T09:07:40Z</time>
      </trkpt>
      <trkpt lat="43.23033" lon="6.0413">
        <ele>306.87109375</ele>
        <time>2020-10-11T09:07:41Z</time>
      </trkpt>
      <trkpt lat="43.23032" lon="6.04138">
        <ele>307.0546875</ele>
        <time>2020-10-11T09:07:45Z</time>
      </trkpt>
      <trkpt lat="43.23033" lon="6.0414">
        <ele>307.01953125</ele>
        <time>2020-10-11T09:07:46Z</time>
      </trkpt>
      <trkpt lat="43.23033" lon="6.04142">
        <ele>306.9453125</ele>
        <time>2020-10-11T09:07:47Z</time>
      </trkpt>
      <trkpt lat="43.23034" lon="6.04144">
        <ele>306.8359375</ele>
        <time>2020-10-11T09:07:48Z</time>
      </trkpt>
      <trkpt lat="43.23035" lon="6.04147">
        <ele>306.7109375</ele>
        <time>2020-10-11T09:07:49Z</time>
      </trkpt>
      <trkpt lat="43.23035" lon="6.04149">
        <ele>306.63671875</ele>
        <time>2020-10-11T09:07:50Z</time>
      </trkpt>
      <trkpt lat="43.23035" lon="6.04152">
        <ele>306.65234375</ele>
        <time>2020-10-11T09:07:51Z</time>
      </trkpt>
      <trkpt lat="43.23034" lon="6.04154">
        <ele>306.73828125</ele>
        <time>2020-10-11T09:07:52Z</time>
      </trkpt>
      <trkpt lat="43.23034" lon="6.04156">
        <ele>306.83203125</ele>
        <time>2020-10-11T09:07:53Z</time>
      </trkpt>
      <trkpt lat="43.23028" lon="6.04188">
        <ele>307.66796875</ele>
        <time>2020-10-11T09:08:07Z</time>
      </trkpt>
      <trkpt lat="43.23024" lon="6.04195">
        <ele>308.015625</ele>
        <time>2020-10-11T09:08:11Z</time>
      </trkpt>
      <trkpt lat="43.23025" lon="6.04202">
        <ele>307.6796875</ele>
        <time>2020-10-11T09:08:27Z</time>
      </trkpt>
      <trkpt lat="43.23022" lon="6.04201">
        <ele>308.16796875</ele>
        <time>2020-10-11T09:09:00Z</time>
      </trkpt>
      <trkpt lat="43.23023" lon="6.04203">
        <ele>308.05078125</ele>
        <time>2020-10-11T09:09:29Z</time>
      </trkpt>
      <trkpt lat="43.23022" lon="6.04201">
        <ele>308.2890625</ele>
        <time>2020-10-11T09:10:02Z</time>
      </trkpt>
      <trkpt lat="43.23022" lon="6.04205">
        <ele>308.0859375</ele>
        <time>2020-10-11T09:10:06Z</time>
      </trkpt>
      <trkpt lat="43.23023" lon="6.04221">
        <ele>307.578125</ele>
        <time>2020-10-11T09:10:15Z</time>
      </trkpt>
      <trkpt lat="43.23023" lon="6.04223">
        <ele>307.5546875</ele>
        <time>2020-10-11T09:10:16Z</time>
      </trkpt>
      <trkpt lat="43.23023" lon="6.04225">
        <ele>307.546875</ele>
        <time>2020-10-11T09:10:17Z</time>
      </trkpt>
      <trkpt lat="43.23022" lon="6.04227">
        <ele>307.57421875</ele>
        <time>2020-10-11T09:10:18Z</time>
      </trkpt>
      <trkpt lat="43.23022" lon="6.04229">
        <ele>307.5859375</ele>
        <time>2020-10-11T09:10:19Z</time>
      </trkpt>
      <trkpt lat="43.23017" lon="6.04258">
        <ele>308.05078125</ele>
        <time>2020-10-11T09:10:33Z</time>
      </trkpt>
      <trkpt lat="43.23008" lon="6.04288">
        <ele>309.59375</ele>
        <time>2020-10-11T09:10:48Z</time>
      </trkpt>
      <trkpt lat="43.23" lon="6.04318">
        <ele>311.1484375</ele>
        <time>2020-10-11T09:11:02Z</time>
      </trkpt>
      <trkpt lat="43.22996" lon="6.04343">
        <ele>312.9765625</ele>
        <time>2020-10-11T09:11:16Z</time>
      </trkpt>
      <trkpt lat="43.22995" lon="6.04353">
        <ele>313.83203125</ele>
        <time>2020-10-11T09:11:31Z</time>
      </trkpt>
      <trkpt lat="43.22994" lon="6.04355">
        <ele>314.14453125</ele>
        <time>2020-10-11T09:11:32Z</time>
      </trkpt>
      <trkpt lat="43.22993" lon="6.04358">
        <ele>314.4609375</ele>
        <time>2020-10-11T09:11:33Z</time>
      </trkpt>
      <trkpt lat="43.22992" lon="6.04361">
        <ele>314.77734375</ele>
        <time>2020-10-11T09:11:34Z</time>
      </trkpt>
      <trkpt lat="43.22991" lon="6.04363">
        <ele>315.11328125</ele>
        <time>2020-10-11T09:11:35Z</time>
      </trkpt>
      <trkpt lat="43.2299" lon="6.04365">
        <ele>315.43359375</ele>
        <time>2020-10-11T09:11:36Z</time>
      </trkpt>
      <trkpt lat="43.2298" lon="6.04389">
        <ele>319.0078125</ele>
        <time>2020-10-11T09:11:50Z</time>
      </trkpt>
      <trkpt lat="43.22966" lon="6.04402">
        <ele>321.765625</ele>
        <time>2020-10-11T09:12:04Z</time>
      </trkpt>
      <trkpt lat="43.22965" lon="6.04403">
        <ele>321.94140625</ele>
        <time>2020-10-11T09:12:05Z</time>
      </trkpt>
      <trkpt lat="43.22964" lon="6.04404">
        <ele>322.1015625</ele>
        <time>2020-10-11T09:12:06Z</time>
      </trkpt>
      <trkpt lat="43.22949" lon="6.04419">
        <ele>324.390625</ele>
        <time>2020-10-11T09:12:22Z</time>
      </trkpt>
      <trkpt lat="43.22928" lon="6.04438">
        <ele>326.55859375</ele>
        <time>2020-10-11T09:12:38Z</time>
      </trkpt>
      <trkpt lat="43.22919" lon="6.04459">
        <ele>327.78125</ele>
        <time>2020-10-11T09:12:49Z</time>
      </trkpt>
      <trkpt lat="43.22919" lon="6.04461">
        <ele>327.859375</ele>
        <time>2020-10-11T09:12:50Z</time>
      </trkpt>
      <trkpt lat="43.22919" lon="6.04463">
        <ele>327.92578125</ele>
        <time>2020-10-11T09:12:51Z</time>
      </trkpt>
      <trkpt lat="43.22913" lon="6.04493">
        <ele>329.703125</ele>
        <time>2020-10-11T09:13:05Z</time>
      </trkpt>
      <trkpt lat="43.22909" lon="6.04514">
        <ele>330.72265625</ele>
        <time>2020-10-11T09:13:15Z</time>
      </trkpt>
      <trkpt lat="43.22908" lon="6.04516">
        <ele>330.765625</ele>
        <time>2020-10-11T09:13:16Z</time>
      </trkpt>
      <trkpt lat="43.22907" lon="6.04518">
        <ele>330.85546875</ele>
        <time>2020-10-11T09:13:17Z</time>
      </trkpt>
      <trkpt lat="43.22907" lon="6.04521">
        <ele>330.9140625</ele>
        <time>2020-10-11T09:13:18Z</time>
      </trkpt>
      <trkpt lat="43.22906" lon="6.04523">
        <ele>330.98046875</ele>
        <time>2020-10-11T09:13:19Z</time>
      </trkpt>
      <trkpt lat="43.22905" lon="6.04525">
        <ele>331.0546875</ele>
        <time>2020-10-11T09:13:20Z</time>
      </trkpt>
      <trkpt lat="43.22895" lon="6.04547">
        <ele>331.9453125</ele>
        <time>2020-10-11T09:13:31Z</time>
      </trkpt>
      <trkpt lat="43.22869" lon="6.04583">
        <ele>333.625</ele>
        <time>2020-10-11T09:13:45Z</time>
      </trkpt>
      <trkpt lat="43.22832" lon="6.04621">
        <ele>332.48046875</ele>
        <time>2020-10-11T09:13:57Z</time>
      </trkpt>
      <trkpt lat="43.22828" lon="6.04625">
        <ele>332.625</ele>
        <time>2020-10-11T09:13:58Z</time>
      </trkpt>
      <trkpt lat="43.22825" lon="6.04629">
        <ele>332.70703125</ele>
        <time>2020-10-11T09:13:59Z</time>
      </trkpt>
      <trkpt lat="43.2282" lon="6.04633">
        <ele>332.59765625</ele>
        <time>2020-10-11T09:14:00Z</time>
      </trkpt>
      <trkpt lat="43.22816" lon="6.04637">
        <ele>332.3671875</ele>
        <time>2020-10-11T09:14:01Z</time>
      </trkpt>
      <trkpt lat="43.22789" lon="6.04665">
        <ele>331.65234375</ele>
        <time>2020-10-11T09:14:07Z</time>
      </trkpt>
      <trkpt lat="43.2277" lon="6.04687">
        <ele>331.1953125</ele>
        <time>2020-10-11T09:14:11Z</time>
      </trkpt>
      <trkpt lat="43.22733" lon="6.04747">
        <ele>330.94140625</ele>
        <time>2020-10-11T09:14:20Z</time>
      </trkpt>
      <trkpt lat="43.2273" lon="6.04761">
        <ele>331.6484375</ele>
        <time>2020-10-11T09:14:22Z</time>
      </trkpt>
      <trkpt lat="43.22729" lon="6.04768">
        <ele>332.1875</ele>
        <time>2020-10-11T09:14:23Z</time>
      </trkpt>
      <trkpt lat="43.2273" lon="6.04836">
        <ele>333.78125</ele>
        <time>2020-10-11T09:14:36Z</time>
      </trkpt>
      <trkpt lat="43.22732" lon="6.04885">
        <ele>335.87109375</ele>
        <time>2020-10-11T09:14:45Z</time>
      </trkpt>
      <trkpt lat="43.22731" lon="6.04897">
        <ele>336.34765625</ele>
        <time>2020-10-11T09:14:47Z</time>
      </trkpt>
      <trkpt lat="43.22731" lon="6.04909">
        <ele>337.09765625</ele>
        <time>2020-10-11T09:14:49Z</time>
      </trkpt>
      <trkpt lat="43.22729" lon="6.0493">
        <ele>337.99609375</ele>
        <time>2020-10-11T09:14:52Z</time>
      </trkpt>
      <trkpt lat="43.22727" lon="6.04936">
        <ele>337.9609375</ele>
        <time>2020-10-11T09:14:53Z</time>
      </trkpt>
      <trkpt lat="43.22725" lon="6.04942">
        <ele>338.09765625</ele>
        <time>2020-10-11T09:14:54Z</time>
      </trkpt>
      <trkpt lat="43.22722" lon="6.04948">
        <ele>338.16015625</ele>
        <time>2020-10-11T09:14:55Z</time>
      </trkpt>
      <trkpt lat="43.22719" lon="6.04953">
        <ele>338.13671875</ele>
        <time>2020-10-11T09:14:56Z</time>
      </trkpt>
      <trkpt lat="43.22716" lon="6.04958">
        <ele>337.9765625</ele>
        <time>2020-10-11T09:14:57Z</time>
      </trkpt>
      <trkpt lat="43.22712" lon="6.04962">
        <ele>337.67578125</ele>
        <time>2020-10-11T09:14:58Z</time>
      </trkpt>
      <trkpt lat="43.22708" lon="6.04967">
        <ele>337.55078125</ele>
        <time>2020-10-11T09:14:59Z</time>
      </trkpt>
      <trkpt lat="43.22704" lon="6.04971">
        <ele>337.328125</ele>
        <time>2020-10-11T09:15:00Z</time>
      </trkpt>
      <trkpt lat="43.22699" lon="6.04972">
        <ele>336.61328125</ele>
        <time>2020-10-11T09:15:01Z</time>
      </trkpt>
      <trkpt lat="43.22694" lon="6.04972">
        <ele>335.87109375</ele>
        <time>2020-10-11T09:15:02Z</time>
      </trkpt>
      <trkpt lat="43.22689" lon="6.0497">
        <ele>334.66796875</ele>
        <time>2020-10-11T09:15:03Z</time>
      </trkpt>
      <trkpt lat="43.22685" lon="6.04966">
        <ele>333.21875</ele>
        <time>2020-10-11T09:15:04Z</time>
      </trkpt>
      <trkpt lat="43.22681" lon="6.04962">
        <ele>331.82421875</ele>
        <time>2020-10-11T09:15:05Z</time>
      </trkpt>
      <trkpt lat="43.22677" lon="6.04959">
        <ele>330.53515625</ele>
        <time>2020-10-11T09:15:06Z</time>
      </trkpt>
      <trkpt lat="43.22672" lon="6.04956">
        <ele>329.234375</ele>
        <time>2020-10-11T09:15:07Z</time>
      </trkpt>
      <trkpt lat="43.22663" lon="6.04951">
        <ele>327.9609375</ele>
        <time>2020-10-11T09:15:09Z</time>
      </trkpt>
      <trkpt lat="43.2265" lon="6.04943">
        <ele>325.60546875</ele>
        <time>2020-10-11T09:15:12Z</time>
      </trkpt>
      <trkpt lat="43.22612" lon="6.04939">
        <ele>322.0234375</ele>
        <time>2020-10-11T09:15:23Z</time>
      </trkpt>
      <trkpt lat="43.22609" lon="6.0494">
        <ele>322.1484375</ele>
        <time>2020-10-11T09:15:24Z</time>
      </trkpt>
      <trkpt lat="43.22607" lon="6.04943">
        <ele>322.48046875</ele>
        <time>2020-10-11T09:15:25Z</time>
      </trkpt>
      <trkpt lat="43.22605" lon="6.04947">
        <ele>322.96484375</ele>
        <time>2020-10-11T09:15:26Z</time>
      </trkpt>
      <trkpt lat="43.22604" lon="6.04951">
        <ele>323.48046875</ele>
        <time>2020-10-11T09:15:27Z</time>
      </trkpt>
      <trkpt lat="43.22602" lon="6.04956">
        <ele>323.98828125</ele>
        <time>2020-10-11T09:15:28Z</time>
      </trkpt>
      <trkpt lat="43.22602" lon="6.04959">
        <ele>324.46484375</ele>
        <time>2020-10-11T09:15:29Z</time>
      </trkpt>
      <trkpt lat="43.22599" lon="6.04984">
        <ele>326.734375</ele>
        <time>2020-10-11T09:15:38Z</time>
      </trkpt>
      <trkpt lat="43.22597" lon="6.04996">
        <ele>327.6484375</ele>
        <time>2020-10-11T09:15:40Z</time>
      </trkpt>
      <trkpt lat="43.22585" lon="6.05097">
        <ele>330.94140625</ele>
        <time>2020-10-11T09:15:52Z</time>
      </trkpt>
      <trkpt lat="43.22582" lon="6.05114">
        <ele>330.90234375</ele>
        <time>2020-10-11T09:15:54Z</time>
      </trkpt>
      <trkpt lat="43.22563" lon="6.05192">
        <ele>329.64453125</ele>
        <time>2020-10-11T09:16:03Z</time>
      </trkpt>
      <trkpt lat="43.2256" lon="6.052">
        <ele>329.2890625</ele>
        <time>2020-10-11T09:16:04Z</time>
      </trkpt>
      <trkpt lat="43.22555" lon="6.05215">
        <ele>329.3046875</ele>
        <time>2020-10-11T09:16:06Z</time>
      </trkpt>
      <trkpt lat="43.2255" lon="6.05221">
        <ele>329.09765625</ele>
        <time>2020-10-11T09:16:07Z</time>
      </trkpt>
      <trkpt lat="43.22545" lon="6.05226">
        <ele>328.57421875</ele>
        <time>2020-10-11T09:16:08Z</time>
      </trkpt>
      <trkpt lat="43.22539" lon="6.05231">
        <ele>327.73046875</ele>
        <time>2020-10-11T09:16:09Z</time>
      </trkpt>
      <trkpt lat="43.22533" lon="6.05235">
        <ele>326.82421875</ele>
        <time>2020-10-11T09:16:10Z</time>
      </trkpt>
      <trkpt lat="43.22528" lon="6.05239">
        <ele>326.421875</ele>
        <time>2020-10-11T09:16:11Z</time>
      </trkpt>
      <trkpt lat="43.22522" lon="6.0524">
        <ele>325.69921875</ele>
        <time>2020-10-11T09:16:12Z</time>
      </trkpt>
      <trkpt lat="43.22517" lon="6.05239">
        <ele>324.58203125</ele>
        <time>2020-10-11T09:16:13Z</time>
      </trkpt>
      <trkpt lat="43.22512" lon="6.05236">
        <ele>323.20703125</ele>
        <time>2020-10-11T09:16:14Z</time>
      </trkpt>
      <trkpt lat="43.22507" lon="6.05231">
        <ele>321.76953125</ele>
        <time>2020-10-11T09:16:15Z</time>
      </trkpt>
      <trkpt lat="43.22504" lon="6.05225">
        <ele>320.5</ele>
        <time>2020-10-11T09:16:16Z</time>
      </trkpt>
      <trkpt lat="43.22503" lon="6.05217">
        <ele>319.54296875</ele>
        <time>2020-10-11T09:16:17Z</time>
      </trkpt>
      <trkpt lat="43.22502" lon="6.05209">
        <ele>318.640625</ele>
        <time>2020-10-11T09:16:18Z</time>
      </trkpt>
      <trkpt lat="43.22502" lon="6.05201">
        <ele>317.76953125</ele>
        <time>2020-10-11T09:16:19Z</time>
      </trkpt>
      <trkpt lat="43.22501" lon="6.05176">
        <ele>314.75</ele>
        <time>2020-10-11T09:16:22Z</time>
      </trkpt>
      <trkpt lat="43.225" lon="6.05167">
        <ele>313.71484375</ele>
        <time>2020-10-11T09:16:23Z</time>
      </trkpt>
      <trkpt lat="43.22494" lon="6.05142">
        <ele>311.59375</ele>
        <time>2020-10-11T09:16:26Z</time>
      </trkpt>
      <trkpt lat="43.22493" lon="6.05133">
        <ele>310.97265625</ele>
        <time>2020-10-11T09:16:27Z</time>
      </trkpt>
      <trkpt lat="43.22492" lon="6.05125">
        <ele>310.4140625</ele>
        <time>2020-10-11T09:16:28Z</time>
      </trkpt>
      <trkpt lat="43.22491" lon="6.05119">
        <ele>309.95703125</ele>
        <time>2020-10-11T09:16:29Z</time>
      </trkpt>
      <trkpt lat="43.2249" lon="6.05115">
        <ele>309.6640625</ele>
        <time>2020-10-11T09:16:30Z</time>
      </trkpt>
      <trkpt lat="43.2249" lon="6.05112">
        <ele>309.43359375</ele>
        <time>2020-10-11T09:16:31Z</time>
      </trkpt>
      <trkpt lat="43.22486" lon="6.05091">
        <ele>307.99609375</ele>
        <time>2020-10-11T09:16:40Z</time>
      </trkpt>
      <trkpt lat="43.22477" lon="6.0506">
        <ele>306.37109375</ele>
        <time>2020-10-11T09:16:48Z</time>
      </trkpt>
      <trkpt lat="43.22452" lon="6.05016">
        <ele>307.42578125</ele>
        <time>2020-10-11T09:17:01Z</time>
      </trkpt>
      <trkpt lat="43.22443" lon="6.04989">
        <ele>305.1875</ele>
        <time>2020-10-11T09:17:06Z</time>
      </trkpt>
      <trkpt lat="43.22441" lon="6.04984">
        <ele>305.05078125</ele>
        <time>2020-10-11T09:17:07Z</time>
      </trkpt>
      <trkpt lat="43.22416" lon="6.04954">
        <ele>306.7734375</ele>
        <time>2020-10-11T09:17:14Z</time>
      </trkpt>
      <trkpt lat="43.22411" lon="6.04951">
        <ele>307.37109375</ele>
        <time>2020-10-11T09:17:15Z</time>
      </trkpt>
      <trkpt lat="43.22407" lon="6.0495">
        <ele>308.0859375</ele>
        <time>2020-10-11T09:17:16Z</time>
      </trkpt>
      <trkpt lat="43.22402" lon="6.04949">
        <ele>308.98828125</ele>
        <time>2020-10-11T09:17:17Z</time>
      </trkpt>
      <trkpt lat="43.22398" lon="6.0495">
        <ele>310.0625</ele>
        <time>2020-10-11T09:17:18Z</time>
      </trkpt>
      <trkpt lat="43.22393" lon="6.04952">
        <ele>311.05078125</ele>
        <time>2020-10-11T09:17:19Z</time>
      </trkpt>
      <trkpt lat="43.22389" lon="6.04954">
        <ele>311.08203125</ele>
        <time>2020-10-11T09:17:20Z</time>
      </trkpt>
      <trkpt lat="43.22384" lon="6.04958">
        <ele>311.3359375</ele>
        <time>2020-10-11T09:17:21Z</time>
      </trkpt>
      <trkpt lat="43.2238" lon="6.04963">
        <ele>311.6953125</ele>
        <time>2020-10-11T09:17:22Z</time>
      </trkpt>
      <trkpt lat="43.22376" lon="6.04967">
        <ele>312.09765625</ele>
        <time>2020-10-11T09:17:23Z</time>
      </trkpt>
      <trkpt lat="43.22372" lon="6.04972">
        <ele>312.6484375</ele>
        <time>2020-10-11T09:17:24Z</time>
      </trkpt>
      <trkpt lat="43.22369" lon="6.04977">
        <ele>313.40625</ele>
        <time>2020-10-11T09:17:25Z</time>
      </trkpt>
      <trkpt lat="43.22366" lon="6.04982">
        <ele>314.125</ele>
        <time>2020-10-11T09:17:26Z</time>
      </trkpt>
      <trkpt lat="43.2236" lon="6.04992">
        <ele>314.76171875</ele>
        <time>2020-10-11T09:17:28Z</time>
      </trkpt>
      <trkpt lat="43.22357" lon="6.04998">
        <ele>314.9375</ele>
        <time>2020-10-11T09:17:29Z</time>
      </trkpt>
      <trkpt lat="43.22329" lon="6.05073">
        <ele>317.27734375</ele>
        <time>2020-10-11T09:17:41Z</time>
      </trkpt>
      <trkpt lat="43.22324" lon="6.05104">
        <ele>317.73828125</ele>
        <time>2020-10-11T09:17:46Z</time>
      </trkpt>
      <trkpt lat="43.22326" lon="6.05122">
        <ele>320.38671875</ele>
        <time>2020-10-11T09:17:49Z</time>
      </trkpt>
      <trkpt lat="43.22327" lon="6.05129">
        <ele>321.3671875</ele>
        <time>2020-10-11T09:17:50Z</time>
      </trkpt>
      <trkpt lat="43.22327" lon="6.05135">
        <ele>322.359375</ele>
        <time>2020-10-11T09:17:51Z</time>
      </trkpt>
      <trkpt lat="43.22327" lon="6.05141">
        <ele>323.33984375</ele>
        <time>2020-10-11T09:17:52Z</time>
      </trkpt>
      <trkpt lat="43.22327" lon="6.05147">
        <ele>323.92578125</ele>
        <time>2020-10-11T09:17:53Z</time>
      </trkpt>
      <trkpt lat="43.22324" lon="6.05152">
        <ele>323.75</ele>
        <time>2020-10-11T09:17:54Z</time>
      </trkpt>
      <trkpt lat="43.2232" lon="6.05157">
        <ele>322.88671875</ele>
        <time>2020-10-11T09:17:55Z</time>
      </trkpt>
      <trkpt lat="43.22315" lon="6.05161">
        <ele>321.53515625</ele>
        <time>2020-10-11T09:17:56Z</time>
      </trkpt>
      <trkpt lat="43.22309" lon="6.05163">
        <ele>319.67578125</ele>
        <time>2020-10-11T09:17:57Z</time>
      </trkpt>
      <trkpt lat="43.22303" lon="6.05166">
        <ele>318</ele>
        <time>2020-10-11T09:17:58Z</time>
      </trkpt>
      <trkpt lat="43.22297" lon="6.05171">
        <ele>316.875</ele>
        <time>2020-10-11T09:17:59Z</time>
      </trkpt>
      <trkpt lat="43.22293" lon="6.05177">
        <ele>316.125</ele>
        <time>2020-10-11T09:18:00Z</time>
      </trkpt>
      <trkpt lat="43.22289" lon="6.05185">
        <ele>315.57421875</ele>
        <time>2020-10-11T09:18:01Z</time>
      </trkpt>
      <trkpt lat="43.2228" lon="6.052">
        <ele>314.921875</ele>
        <time>2020-10-11T09:18:03Z</time>
      </trkpt>
      <trkpt lat="43.22256" lon="6.05234">
        <ele>310.6171875</ele>
        <time>2020-10-11T09:18:08Z</time>
      </trkpt>
      <trkpt lat="43.22252" lon="6.05243">
        <ele>310.23046875</ele>
        <time>2020-10-11T09:18:09Z</time>
      </trkpt>
      <trkpt lat="43.22249" lon="6.05252">
        <ele>310</ele>
        <time>2020-10-11T09:18:10Z</time>
      </trkpt>
      <trkpt lat="43.22246" lon="6.05261">
        <ele>309.875</ele>
        <time>2020-10-11T09:18:11Z</time>
      </trkpt>
      <trkpt lat="43.22244" lon="6.05271">
        <ele>309.734375</ele>
        <time>2020-10-11T09:18:12Z</time>
      </trkpt>
      <trkpt lat="43.22239" lon="6.05294">
        <ele>308.5</ele>
        <time>2020-10-11T09:18:15Z</time>
      </trkpt>
      <trkpt lat="43.22236" lon="6.05297">
        <ele>307.671875</ele>
        <time>2020-10-11T09:18:16Z</time>
      </trkpt>
      <trkpt lat="43.22232" lon="6.05298">
        <ele>306.48046875</ele>
        <time>2020-10-11T09:18:17Z</time>
      </trkpt>
      <trkpt lat="43.22228" lon="6.05298">
        <ele>304.984375</ele>
        <time>2020-10-11T09:18:18Z</time>
      </trkpt>
      <trkpt lat="43.22222" lon="6.05296">
        <ele>303.75390625</ele>
        <time>2020-10-11T09:18:19Z</time>
      </trkpt>
      <trkpt lat="43.22216" lon="6.05295">
        <ele>302.5859375</ele>
        <time>2020-10-11T09:18:20Z</time>
      </trkpt>
      <trkpt lat="43.22213" lon="6.05294">
        <ele>301.76171875</ele>
        <time>2020-10-11T09:18:21Z</time>
      </trkpt>
      <trkpt lat="43.2221" lon="6.05294">
        <ele>301.30078125</ele>
        <time>2020-10-11T09:18:22Z</time>
      </trkpt>
      <trkpt lat="43.22208" lon="6.05293">
        <ele>300.8359375</ele>
        <time>2020-10-11T09:18:23Z</time>
      </trkpt>
      <trkpt lat="43.22206" lon="6.05291">
        <ele>300.2734375</ele>
        <time>2020-10-11T09:18:24Z</time>
      </trkpt>
      <trkpt lat="43.22196" lon="6.05282">
        <ele>298.453125</ele>
        <time>2020-10-11T09:18:27Z</time>
      </trkpt>
      <trkpt lat="43.22186" lon="6.05268">
        <ele>296.99609375</ele>
        <time>2020-10-11T09:18:31Z</time>
      </trkpt>
      <trkpt lat="43.22172" lon="6.05233">
        <ele>294.9609375</ele>
        <time>2020-10-11T09:18:37Z</time>
      </trkpt>
      <trkpt lat="43.22165" lon="6.05218">
        <ele>294.47265625</ele>
        <time>2020-10-11T09:18:39Z</time>
      </trkpt>
      <trkpt lat="43.22163" lon="6.05209">
        <ele>294.1171875</ele>
        <time>2020-10-11T09:18:40Z</time>
      </trkpt>
      <trkpt lat="43.22161" lon="6.052">
        <ele>293.66796875</ele>
        <time>2020-10-11T09:18:41Z</time>
      </trkpt>
      <trkpt lat="43.2216" lon="6.05193">
        <ele>293.3515625</ele>
        <time>2020-10-11T09:18:42Z</time>
      </trkpt>
      <trkpt lat="43.22159" lon="6.05187">
        <ele>293.05859375</ele>
        <time>2020-10-11T09:18:43Z</time>
      </trkpt>
      <trkpt lat="43.22156" lon="6.05183">
        <ele>292.7890625</ele>
        <time>2020-10-11T09:18:44Z</time>
      </trkpt>
      <trkpt lat="43.22152" lon="6.05179">
        <ele>292.4609375</ele>
        <time>2020-10-11T09:18:45Z</time>
      </trkpt>
      <trkpt lat="43.22148" lon="6.05174">
        <ele>292.19921875</ele>
        <time>2020-10-11T09:18:46Z</time>
      </trkpt>
      <trkpt lat="43.22145" lon="6.05168">
        <ele>292.04296875</ele>
        <time>2020-10-11T09:18:47Z</time>
      </trkpt>
      <trkpt lat="43.22144" lon="6.05161">
        <ele>291.94140625</ele>
        <time>2020-10-11T09:18:48Z</time>
      </trkpt>
      <trkpt lat="43.22141" lon="6.05154">
        <ele>291.62109375</ele>
        <time>2020-10-11T09:18:49Z</time>
      </trkpt>
      <trkpt lat="43.22139" lon="6.05145">
        <ele>291.22265625</ele>
        <time>2020-10-11T09:18:50Z</time>
      </trkpt>
      <trkpt lat="43.22137" lon="6.05137">
        <ele>290.88671875</ele>
        <time>2020-10-11T09:18:51Z</time>
      </trkpt>
      <trkpt lat="43.22135" lon="6.0513">
        <ele>290.54296875</ele>
        <time>2020-10-11T09:18:52Z</time>
      </trkpt>
      <trkpt lat="43.22129" lon="6.05126">
        <ele>290.046875</ele>
        <time>2020-10-11T09:18:54Z</time>
      </trkpt>
      <trkpt lat="43.22125" lon="6.05126">
        <ele>289.91796875</ele>
        <time>2020-10-11T09:18:55Z</time>
      </trkpt>
      <trkpt lat="43.2212" lon="6.05126">
        <ele>289.74609375</ele>
        <time>2020-10-11T09:18:56Z</time>
      </trkpt>
      <trkpt lat="43.22116" lon="6.05124">
        <ele>289.48046875</ele>
        <time>2020-10-11T09:18:57Z</time>
      </trkpt>
      <trkpt lat="43.2211" lon="6.05122">
        <ele>289.15625</ele>
        <time>2020-10-11T09:18:58Z</time>
      </trkpt>
      <trkpt lat="43.22105" lon="6.05118">
        <ele>288.8203125</ele>
        <time>2020-10-11T09:18:59Z</time>
      </trkpt>
      <trkpt lat="43.22102" lon="6.05112">
        <ele>288.4765625</ele>
        <time>2020-10-11T09:19:00Z</time>
      </trkpt>
      <trkpt lat="43.22089" lon="6.05065">
        <ele>285.90625</ele>
        <time>2020-10-11T09:19:06Z</time>
      </trkpt>
      <trkpt lat="43.22086" lon="6.05057">
        <ele>285.46875</ele>
        <time>2020-10-11T09:19:07Z</time>
      </trkpt>
      <trkpt lat="43.22084" lon="6.05049">
        <ele>284.9375</ele>
        <time>2020-10-11T09:19:08Z</time>
      </trkpt>
      <trkpt lat="43.22082" lon="6.05034">
        <ele>284.31640625</ele>
        <time>2020-10-11T09:19:10Z</time>
      </trkpt>
      <trkpt lat="43.2208" lon="6.05028">
        <ele>284.16796875</ele>
        <time>2020-10-11T09:19:11Z</time>
      </trkpt>
      <trkpt lat="43.22068" lon="6.04978">
        <ele>284.41796875</ele>
        <time>2020-10-11T09:19:21Z</time>
      </trkpt>
      <trkpt lat="43.22069" lon="6.04974">
        <ele>284.34765625</ele>
        <time>2020-10-11T09:19:22Z</time>
      </trkpt>
      <trkpt lat="43.22068" lon="6.0497">
        <ele>284.3984375</ele>
        <time>2020-10-11T09:19:23Z</time>
      </trkpt>
      <trkpt lat="43.22065" lon="6.04959">
        <ele>285.109375</ele>
        <time>2020-10-11T09:19:26Z</time>
      </trkpt>
      <trkpt lat="43.22063" lon="6.04957">
        <ele>285.56640625</ele>
        <time>2020-10-11T09:19:27Z</time>
      </trkpt>
      <trkpt lat="43.22061" lon="6.04954">
        <ele>286.0546875</ele>
        <time>2020-10-11T09:19:28Z</time>
      </trkpt>
      <trkpt lat="43.22043" lon="6.0494">
        <ele>290.69921875</ele>
        <time>2020-10-11T09:19:34Z</time>
      </trkpt>
      <trkpt lat="43.22035" lon="6.04935">
        <ele>292.16796875</ele>
        <time>2020-10-11T09:19:36Z</time>
      </trkpt>
      <trkpt lat="43.22019" lon="6.04925">
        <ele>293.828125</ele>
        <time>2020-10-11T09:19:41Z</time>
      </trkpt>
      <trkpt lat="43.22015" lon="6.04922">
        <ele>294.1484375</ele>
        <time>2020-10-11T09:19:42Z</time>
      </trkpt>
      <trkpt lat="43.22011" lon="6.04919">
        <ele>294.34765625</ele>
        <time>2020-10-11T09:19:43Z</time>
      </trkpt>
      <trkpt lat="43.22001" lon="6.04912">
        <ele>294.75</ele>
        <time>2020-10-11T09:19:51Z</time>
      </trkpt>
      <trkpt lat="43.22001" lon="6.04912">
        <ele>294.625</ele>
        <time>2020-10-11T09:20:22Z</time>
      </trkpt>
      <trkpt lat="43.21987" lon="6.04895">
        <ele>294.09765625</ele>
        <time>2020-10-11T09:20:46Z</time>
      </trkpt>
      <trkpt lat="43.21979" lon="6.04867">
        <ele>289.58203125</ele>
        <time>2020-10-11T09:20:58Z</time>
      </trkpt>
      <trkpt lat="43.21979" lon="6.04864">
        <ele>288.9453125</ele>
        <time>2020-10-11T09:20:59Z</time>
      </trkpt>
      <trkpt lat="43.21979" lon="6.04861">
        <ele>288.25</ele>
        <time>2020-10-11T09:21:00Z</time>
      </trkpt>
      <trkpt lat="43.21979" lon="6.04857">
        <ele>287.58984375</ele>
        <time>2020-10-11T09:21:01Z</time>
      </trkpt>
      <trkpt lat="43.21979" lon="6.04854">
        <ele>286.90234375</ele>
        <time>2020-10-11T09:21:02Z</time>
      </trkpt>
      <trkpt lat="43.21978" lon="6.04851">
        <ele>286.4921875</ele>
        <time>2020-10-11T09:21:03Z</time>
      </trkpt>
      <trkpt lat="43.21977" lon="6.04847">
        <ele>286.25390625</ele>
        <time>2020-10-11T09:21:04Z</time>
      </trkpt>
      <trkpt lat="43.21976" lon="6.04844">
        <ele>286.13671875</ele>
        <time>2020-10-11T09:21:05Z</time>
      </trkpt>
      <trkpt lat="43.21975" lon="6.04842">
        <ele>286.1484375</ele>
        <time>2020-10-11T09:21:06Z</time>
      </trkpt>
      <trkpt lat="43.21974" lon="6.04839">
        <ele>286.125</ele>
        <time>2020-10-11T09:21:07Z</time>
      </trkpt>
      <trkpt lat="43.21973" lon="6.04836">
        <ele>285.984375</ele>
        <time>2020-10-11T09:21:08Z</time>
      </trkpt>
      <trkpt lat="43.21972" lon="6.04832">
        <ele>285.890625</ele>
        <time>2020-10-11T09:21:09Z</time>
      </trkpt>
      <trkpt lat="43.21971" lon="6.0483">
        <ele>286.01171875</ele>
        <time>2020-10-11T09:21:10Z</time>
      </trkpt>
      <trkpt lat="43.21969" lon="6.04827">
        <ele>286.3828125</ele>
        <time>2020-10-11T09:21:11Z</time>
      </trkpt>
      <trkpt lat="43.21967" lon="6.04825">
        <ele>286.7578125</ele>
        <time>2020-10-11T09:21:12Z</time>
      </trkpt>
      <trkpt lat="43.21966" lon="6.04823">
        <ele>287.125</ele>
        <time>2020-10-11T09:21:13Z</time>
      </trkpt>
      <trkpt lat="43.21965" lon="6.04821">
        <ele>287.33984375</ele>
        <time>2020-10-11T09:21:14Z</time>
      </trkpt>
      <trkpt lat="43.21964" lon="6.04818">
        <ele>287.4921875</ele>
        <time>2020-10-11T09:21:15Z</time>
      </trkpt>
      <trkpt lat="43.21963" lon="6.04816">
        <ele>287.69921875</ele>
        <time>2020-10-11T09:21:16Z</time>
      </trkpt>
      <trkpt lat="43.21962" lon="6.04813">
        <ele>287.8671875</ele>
        <time>2020-10-11T09:21:17Z</time>
      </trkpt>
      <trkpt lat="43.21961" lon="6.0481">
        <ele>288.05078125</ele>
        <time>2020-10-11T09:21:18Z</time>
      </trkpt>
      <trkpt lat="43.2196" lon="6.04808">
        <ele>288.1875</ele>
        <time>2020-10-11T09:21:19Z</time>
      </trkpt>
      <trkpt lat="43.21959" lon="6.04805">
        <ele>288.44921875</ele>
        <time>2020-10-11T09:21:20Z</time>
      </trkpt>
      <trkpt lat="43.21958" lon="6.04804">
        <ele>288.72265625</ele>
        <time>2020-10-11T09:21:21Z</time>
      </trkpt>
      <trkpt lat="43.21957" lon="6.04803">
        <ele>288.984375</ele>
        <time>2020-10-11T09:21:22Z</time>
      </trkpt>
      <trkpt lat="43.21956" lon="6.04802">
        <ele>289.234375</ele>
        <time>2020-10-11T09:21:23Z</time>
      </trkpt>
      <trkpt lat="43.21955" lon="6.04799">
        <ele>289.5078125</ele>
        <time>2020-10-11T09:21:25Z</time>
      </trkpt>
      <trkpt lat="43.21954" lon="6.04797">
        <ele>289.515625</ele>
        <time>2020-10-11T09:21:26Z</time>
      </trkpt>
      <trkpt lat="43.21953" lon="6.04795">
        <ele>289.6875</ele>
        <time>2020-10-11T09:21:27Z</time>
      </trkpt>
      <trkpt lat="43.21951" lon="6.04793">
        <ele>289.9765625</ele>
        <time>2020-10-11T09:21:28Z</time>
      </trkpt>
      <trkpt lat="43.21937" lon="6.04772">
        <ele>292.18359375</ele>
        <time>2020-10-11T09:21:40Z</time>
      </trkpt>
      <trkpt lat="43.21929" lon="6.04753">
        <ele>293.1484375</ele>
        <time>2020-10-11T09:21:45Z</time>
      </trkpt>
      <trkpt lat="43.21924" lon="6.0474">
        <ele>293.12890625</ele>
        <time>2020-10-11T09:21:47Z</time>
      </trkpt>
      <trkpt lat="43.21921" lon="6.0473">
        <ele>292.04296875</ele>
        <time>2020-10-11T09:21:49Z</time>
      </trkpt>
      <trkpt lat="43.2192" lon="6.04724">
        <ele>291.16015625</ele>
        <time>2020-10-11T09:21:50Z</time>
      </trkpt>
      <trkpt lat="43.21919" lon="6.04718">
        <ele>290.1328125</ele>
        <time>2020-10-11T09:21:51Z</time>
      </trkpt>
      <trkpt lat="43.21918" lon="6.04704">
        <ele>288.53515625</ele>
        <time>2020-10-11T09:21:53Z</time>
      </trkpt>
      <trkpt lat="43.21917" lon="6.04699">
        <ele>288.13671875</ele>
        <time>2020-10-11T09:21:54Z</time>
      </trkpt>
      <trkpt lat="43.21916" lon="6.04695">
        <ele>287.84375</ele>
        <time>2020-10-11T09:21:55Z</time>
      </trkpt>
      <trkpt lat="43.21914" lon="6.04691">
        <ele>287.64453125</ele>
        <time>2020-10-11T09:21:56Z</time>
      </trkpt>
      <trkpt lat="43.21912" lon="6.04687">
        <ele>287.48828125</ele>
        <time>2020-10-11T09:21:57Z</time>
      </trkpt>
      <trkpt lat="43.21906" lon="6.04673">
        <ele>286.5625</ele>
        <time>2020-10-11T09:22:00Z</time>
      </trkpt>
      <trkpt lat="43.21904" lon="6.04668">
        <ele>286.21484375</ele>
        <time>2020-10-11T09:22:01Z</time>
      </trkpt>
      <trkpt lat="43.21903" lon="6.04661">
        <ele>285.71875</ele>
        <time>2020-10-11T09:22:02Z</time>
      </trkpt>
      <trkpt lat="43.21899" lon="6.04645">
        <ele>284.265625</ele>
        <time>2020-10-11T09:22:05Z</time>
      </trkpt>
      <trkpt lat="43.21894" lon="6.04636">
        <ele>283.671875</ele>
        <time>2020-10-11T09:22:07Z</time>
      </trkpt>
      <trkpt lat="43.21891" lon="6.04631">
        <ele>283.296875</ele>
        <time>2020-10-11T09:22:08Z</time>
      </trkpt>
      <trkpt lat="43.21889" lon="6.04629">
        <ele>283.3046875</ele>
        <time>2020-10-11T09:22:09Z</time>
      </trkpt>
      <trkpt lat="43.21886" lon="6.04629">
        <ele>283.53515625</ele>
        <time>2020-10-11T09:22:10Z</time>
      </trkpt>
      <trkpt lat="43.21884" lon="6.04628">
        <ele>283.78125</ele>
        <time>2020-10-11T09:22:11Z</time>
      </trkpt>
      <trkpt lat="43.21881" lon="6.04628">
        <ele>283.9453125</ele>
        <time>2020-10-11T09:22:12Z</time>
      </trkpt>
      <trkpt lat="43.21878" lon="6.04625">
        <ele>283.98046875</ele>
        <time>2020-10-11T09:22:13Z</time>
      </trkpt>
      <trkpt lat="43.21877" lon="6.04622">
        <ele>283.65625</ele>
        <time>2020-10-11T09:22:14Z</time>
      </trkpt>
      <trkpt lat="43.21876" lon="6.04619">
        <ele>283.31640625</ele>
        <time>2020-10-11T09:22:15Z</time>
      </trkpt>
      <trkpt lat="43.21874" lon="6.04616">
        <ele>283.15234375</ele>
        <time>2020-10-11T09:22:16Z</time>
      </trkpt>
      <trkpt lat="43.21864" lon="6.0461">
        <ele>282.82421875</ele>
        <time>2020-10-11T09:22:19Z</time>
      </trkpt>
      <trkpt lat="43.21846" lon="6.04597">
        <ele>281.01953125</ele>
        <time>2020-10-11T09:22:24Z</time>
      </trkpt>
      <trkpt lat="43.21842" lon="6.04593">
        <ele>280.4921875</ele>
        <time>2020-10-11T09:22:25Z</time>
      </trkpt>
      <trkpt lat="43.21838" lon="6.0459">
        <ele>279.96484375</ele>
        <time>2020-10-11T09:22:26Z</time>
      </trkpt>
      <trkpt lat="43.21824" lon="6.04577">
        <ele>277.671875</ele>
        <time>2020-10-11T09:22:30Z</time>
      </trkpt>
      <trkpt lat="43.21801" lon="6.04558">
        <ele>272.359375</ele>
        <time>2020-10-11T09:22:35Z</time>
      </trkpt>
      <trkpt lat="43.2179" lon="6.04549">
        <ele>269.65625</ele>
        <time>2020-10-11T09:22:38Z</time>
      </trkpt>
      <trkpt lat="43.21784" lon="6.04544">
        <ele>267.99609375</ele>
        <time>2020-10-11T09:22:41Z</time>
      </trkpt>
      <trkpt lat="43.21776" lon="6.04536">
        <ele>265.63671875</ele>
        <time>2020-10-11T09:22:44Z</time>
      </trkpt>
      <trkpt lat="43.21774" lon="6.04535">
        <ele>265.2421875</ele>
        <time>2020-10-11T09:22:45Z</time>
      </trkpt>
      <trkpt lat="43.21773" lon="6.04534">
        <ele>264.89453125</ele>
        <time>2020-10-11T09:22:46Z</time>
      </trkpt>
      <trkpt lat="43.21771" lon="6.04533">
        <ele>264.47265625</ele>
        <time>2020-10-11T09:22:47Z</time>
      </trkpt>
      <trkpt lat="43.21768" lon="6.04531">
        <ele>264.03515625</ele>
        <time>2020-10-11T09:22:48Z</time>
      </trkpt>
      <trkpt lat="43.21765" lon="6.0453">
        <ele>263.46484375</ele>
        <time>2020-10-11T09:22:49Z</time>
      </trkpt>
      <trkpt lat="43.21761" lon="6.04527">
        <ele>262.6640625</ele>
        <time>2020-10-11T09:22:50Z</time>
      </trkpt>
      <trkpt lat="43.21758" lon="6.04523">
        <ele>261.6875</ele>
        <time>2020-10-11T09:22:51Z</time>
      </trkpt>
      <trkpt lat="43.21754" lon="6.04519">
        <ele>260.5078125</ele>
        <time>2020-10-11T09:22:52Z</time>
      </trkpt>
      <trkpt lat="43.21751" lon="6.04513">
        <ele>259.1171875</ele>
        <time>2020-10-11T09:22:53Z</time>
      </trkpt>
      <trkpt lat="43.2175" lon="6.04508">
        <ele>258.1328125</ele>
        <time>2020-10-11T09:22:54Z</time>
      </trkpt>
      <trkpt lat="43.21751" lon="6.04504">
        <ele>257.46875</ele>
        <time>2020-10-11T09:22:55Z</time>
      </trkpt>
      <trkpt lat="43.21752" lon="6.04499">
        <ele>256.65625</ele>
        <time>2020-10-11T09:22:56Z</time>
      </trkpt>
      <trkpt lat="43.21752" lon="6.04494">
        <ele>255.6796875</ele>
        <time>2020-10-11T09:22:57Z</time>
      </trkpt>
      <trkpt lat="43.21751" lon="6.04488">
        <ele>254.5</ele>
        <time>2020-10-11T09:22:58Z</time>
      </trkpt>
      <trkpt lat="43.21751" lon="6.04482">
        <ele>253.28125</ele>
        <time>2020-10-11T09:22:59Z</time>
      </trkpt>
      <trkpt lat="43.2175" lon="6.04476">
        <ele>252.1015625</ele>
        <time>2020-10-11T09:23:00Z</time>
      </trkpt>
      <trkpt lat="43.21746" lon="6.04466">
        <ele>250.2421875</ele>
        <time>2020-10-11T09:23:02Z</time>
      </trkpt>
      <trkpt lat="43.21743" lon="6.04462">
        <ele>249.55859375</ele>
        <time>2020-10-11T09:23:03Z</time>
      </trkpt>
      <trkpt lat="43.21739" lon="6.04458">
        <ele>248.93359375</ele>
        <time>2020-10-11T09:23:04Z</time>
      </trkpt>
      <trkpt lat="43.21737" lon="6.04453">
        <ele>248.1953125</ele>
        <time>2020-10-11T09:23:05Z</time>
      </trkpt>
      <trkpt lat="43.21735" lon="6.04448">
        <ele>247.3359375</ele>
        <time>2020-10-11T09:23:06Z</time>
      </trkpt>
      <trkpt lat="43.21732" lon="6.04441">
        <ele>246.37890625</ele>
        <time>2020-10-11T09:23:07Z</time>
      </trkpt>
      <trkpt lat="43.21731" lon="6.04434">
        <ele>245.51953125</ele>
        <time>2020-10-11T09:23:08Z</time>
      </trkpt>
      <trkpt lat="43.21732" lon="6.04429">
        <ele>244.90625</ele>
        <time>2020-10-11T09:23:09Z</time>
      </trkpt>
      <trkpt lat="43.21732" lon="6.04426">
        <ele>244.484375</ele>
        <time>2020-10-11T09:23:10Z</time>
      </trkpt>
      <trkpt lat="43.21729" lon="6.0442">
        <ele>244.01171875</ele>
        <time>2020-10-11T09:23:21Z</time>
      </trkpt>
      <trkpt lat="43.21727" lon="6.04419">
        <ele>244</ele>
        <time>2020-10-11T09:23:47Z</time>
      </trkpt>
      <trkpt lat="43.21726" lon="6.04422">
        <ele>244.23828125</ele>
        <time>2020-10-11T09:24:14Z</time>
      </trkpt>
      <trkpt lat="43.21724" lon="6.04423">
        <ele>244.2734375</ele>
        <time>2020-10-11T09:24:17Z</time>
      </trkpt>
      <trkpt lat="43.21722" lon="6.04423">
        <ele>244.24609375</ele>
        <time>2020-10-11T09:24:18Z</time>
      </trkpt>
      <trkpt lat="43.2172" lon="6.04424">
        <ele>244.2421875</ele>
        <time>2020-10-11T09:24:19Z</time>
      </trkpt>
      <trkpt lat="43.21717" lon="6.04425">
        <ele>244.19921875</ele>
        <time>2020-10-11T09:24:20Z</time>
      </trkpt>
      <trkpt lat="43.21714" lon="6.04424">
        <ele>244.06640625</ele>
        <time>2020-10-11T09:24:21Z</time>
      </trkpt>
      <trkpt lat="43.21711" lon="6.04423">
        <ele>243.88671875</ele>
        <time>2020-10-11T09:24:22Z</time>
      </trkpt>
      <trkpt lat="43.21709" lon="6.04421">
        <ele>243.6796875</ele>
        <time>2020-10-11T09:24:23Z</time>
      </trkpt>
      <trkpt lat="43.21708" lon="6.04419">
        <ele>243.51171875</ele>
        <time>2020-10-11T09:24:24Z</time>
      </trkpt>
      <trkpt lat="43.21707" lon="6.04417">
        <ele>243.40234375</ele>
        <time>2020-10-11T09:24:25Z</time>
      </trkpt>
      <trkpt lat="43.21707" lon="6.04415">
        <ele>243.28125</ele>
        <time>2020-10-11T09:24:26Z</time>
      </trkpt>
      <trkpt lat="43.21706" lon="6.04413">
        <ele>243.16015625</ele>
        <time>2020-10-11T09:24:27Z</time>
      </trkpt>
      <trkpt lat="43.21697" lon="6.04377">
        <ele>242.40625</ele>
        <time>2020-10-11T09:24:39Z</time>
      </trkpt>
      <trkpt lat="43.21694" lon="6.04368">
        <ele>241.7578125</ele>
        <time>2020-10-11T09:24:42Z</time>
      </trkpt>
      <trkpt lat="43.2169" lon="6.04368">
        <ele>241.2578125</ele>
        <time>2020-10-11T09:24:52Z</time>
      </trkpt>
      <trkpt lat="43.2169" lon="6.04368">
        <ele>241.25390625</ele>
        <time>2020-10-11T09:25:05Z</time>
      </trkpt>
      <trkpt lat="43.2169" lon="6.04366">
        <ele>241.16796875</ele>
        <time>2020-10-11T09:25:31Z</time>
      </trkpt>
      <trkpt lat="43.21689" lon="6.04367">
        <ele>241.0703125</ele>
        <time>2020-10-11T09:26:03Z</time>
      </trkpt>
      <trkpt lat="43.21686" lon="6.04368">
        <ele>240.73828125</ele>
        <time>2020-10-11T09:26:36Z</time>
      </trkpt>
      <trkpt lat="43.21685" lon="6.04367">
        <ele>240.55078125</ele>
        <time>2020-10-11T09:27:10Z</time>
      </trkpt>
      <trkpt lat="43.21686" lon="6.04366">
        <ele>240.640625</ele>
        <time>2020-10-11T09:27:34Z</time>
      </trkpt>
      <trkpt lat="43.21687" lon="6.04364">
        <ele>240.8125</ele>
        <time>2020-10-11T09:28:06Z</time>
      </trkpt>
      <trkpt lat="43.21688" lon="6.04364">
        <ele>240.83984375</ele>
        <time>2020-10-11T09:28:09Z</time>
      </trkpt>
      <trkpt lat="43.21689" lon="6.04365">
        <ele>240.99609375</ele>
        <time>2020-10-11T09:28:45Z</time>
      </trkpt>
      <trkpt lat="43.21688" lon="6.04365">
        <ele>240.9453125</ele>
        <time>2020-10-11T09:29:13Z</time>
      </trkpt>
      <trkpt lat="43.21688" lon="6.04365">
        <ele>240.89453125</ele>
        <time>2020-10-11T09:29:55Z</time>
      </trkpt>
      <trkpt lat="43.21689" lon="6.04365">
        <ele>240.98046875</ele>
        <time>2020-10-11T09:30:30Z</time>
      </trkpt>
      <trkpt lat="43.21689" lon="6.04366">
        <ele>241.1015625</ele>
        <time>2020-10-11T09:30:53Z</time>
      </trkpt>
      <trkpt lat="43.2169" lon="6.04365">
        <ele>241.19921875</ele>
        <time>2020-10-11T09:31:23Z</time>
      </trkpt>
      <trkpt lat="43.21693" lon="6.04368">
        <ele>241.58984375</ele>
        <time>2020-10-11T09:31:44Z</time>
      </trkpt>
      <trkpt lat="43.21696" lon="6.0437">
        <ele>242.015625</ele>
        <time>2020-10-11T09:32:00Z</time>
      </trkpt>
      <trkpt lat="43.21696" lon="6.04382">
        <ele>242.37109375</ele>
        <time>2020-10-11T09:32:10Z</time>
      </trkpt>
      <trkpt lat="43.21707" lon="6.04418">
        <ele>243.4375</ele>
        <time>2020-10-11T09:32:21Z</time>
      </trkpt>
      <trkpt lat="43.21709" lon="6.0442">
        <ele>243.61328125</ele>
        <time>2020-10-11T09:32:22Z</time>
      </trkpt>
      <trkpt lat="43.21723" lon="6.04422">
        <ele>244.1875</ele>
        <time>2020-10-11T09:32:29Z</time>
      </trkpt>
      <trkpt lat="43.21724" lon="6.04421">
        <ele>244.10546875</ele>
        <time>2020-10-11T09:32:30Z</time>
      </trkpt>
      <trkpt lat="43.21726" lon="6.0442">
        <ele>244.04296875</ele>
        <time>2020-10-11T09:32:31Z</time>
      </trkpt>
      <trkpt lat="43.21727" lon="6.04418">
        <ele>243.9453125</ele>
        <time>2020-10-11T09:32:32Z</time>
      </trkpt>
      <trkpt lat="43.21729" lon="6.04418">
        <ele>243.75390625</ele>
        <time>2020-10-11T09:32:33Z</time>
      </trkpt>
      <trkpt lat="43.21732" lon="6.04418">
        <ele>243.58984375</ele>
        <time>2020-10-11T09:32:34Z</time>
      </trkpt>
      <trkpt lat="43.21735" lon="6.04421">
        <ele>243.62890625</ele>
        <time>2020-10-11T09:32:35Z</time>
      </trkpt>
      <trkpt lat="43.21738" lon="6.04425">
        <ele>243.90234375</ele>
        <time>2020-10-11T09:32:36Z</time>
      </trkpt>
      <trkpt lat="43.21742" lon="6.0443">
        <ele>244.3828125</ele>
        <time>2020-10-11T09:32:37Z</time>
      </trkpt>
      <trkpt lat="43.21745" lon="6.04433">
        <ele>244.8203125</ele>
        <time>2020-10-11T09:32:38Z</time>
      </trkpt>
      <trkpt lat="43.21748" lon="6.04436">
        <ele>245.05859375</ele>
        <time>2020-10-11T09:32:41Z</time>
      </trkpt>
      <trkpt lat="43.21745" lon="6.0443">
        <ele>244.296875</ele>
        <time>2020-10-11T09:32:53Z</time>
      </trkpt>
      <trkpt lat="43.21745" lon="6.04433">
        <ele>244.72265625</ele>
        <time>2020-10-11T09:32:56Z</time>
      </trkpt>
      <trkpt lat="43.21746" lon="6.04434">
        <ele>244.8125</ele>
        <time>2020-10-11T09:32:57Z</time>
      </trkpt>
      <trkpt lat="43.21747" lon="6.04435">
        <ele>244.90625</ele>
        <time>2020-10-11T09:32:58Z</time>
      </trkpt>
      <trkpt lat="43.21752" lon="6.04439">
        <ele>245.44140625</ele>
        <time>2020-10-11T09:33:00Z</time>
      </trkpt>
      <trkpt lat="43.21765" lon="6.04446">
        <ele>245.953125</ele>
        <time>2020-10-11T09:33:04Z</time>
      </trkpt>
      <trkpt lat="43.21775" lon="6.04447">
        <ele>245.55859375</ele>
        <time>2020-10-11T09:33:06Z</time>
      </trkpt>
      <trkpt lat="43.21786" lon="6.04447">
        <ele>245.42578125</ele>
        <time>2020-10-11T09:33:08Z</time>
      </trkpt>
      <trkpt lat="43.21793" lon="6.04448">
        <ele>246.73046875</ele>
        <time>2020-10-11T09:33:09Z</time>
      </trkpt>
      <trkpt lat="43.218" lon="6.04451">
        <ele>248.4453125</ele>
        <time>2020-10-11T09:33:10Z</time>
      </trkpt>
      <trkpt lat="43.21807" lon="6.04455">
        <ele>250.2578125</ele>
        <time>2020-10-11T09:33:11Z</time>
      </trkpt>
      <trkpt lat="43.21813" lon="6.04457">
        <ele>251.484375</ele>
        <time>2020-10-11T09:33:12Z</time>
      </trkpt>
      <trkpt lat="43.21819" lon="6.04456">
        <ele>251.953125</ele>
        <time>2020-10-11T09:33:13Z</time>
      </trkpt>
      <trkpt lat="43.21825" lon="6.04453">
        <ele>252.0234375</ele>
        <time>2020-10-11T09:33:14Z</time>
      </trkpt>
      <trkpt lat="43.21829" lon="6.04447">
        <ele>251.52734375</ele>
        <time>2020-10-11T09:33:15Z</time>
      </trkpt>
      <trkpt lat="43.21833" lon="6.04439">
        <ele>250.546875</ele>
        <time>2020-10-11T09:33:16Z</time>
      </trkpt>
      <trkpt lat="43.21836" lon="6.04431">
        <ele>249.671875</ele>
        <time>2020-10-11T09:33:17Z</time>
      </trkpt>
      <trkpt lat="43.21839" lon="6.04422">
        <ele>248.78125</ele>
        <time>2020-10-11T09:33:18Z</time>
      </trkpt>
      <trkpt lat="43.21841" lon="6.04413">
        <ele>247.64453125</ele>
        <time>2020-10-11T09:33:19Z</time>
      </trkpt>
      <trkpt lat="43.21843" lon="6.04404">
        <ele>246.2890625</ele>
        <time>2020-10-11T09:33:20Z</time>
      </trkpt>
      <trkpt lat="43.21847" lon="6.04396">
        <ele>244.93359375</ele>
        <time>2020-10-11T09:33:21Z</time>
      </trkpt>
      <trkpt lat="43.21851" lon="6.04387">
        <ele>243.5234375</ele>
        <time>2020-10-11T09:33:22Z</time>
      </trkpt>
      <trkpt lat="43.21855" lon="6.0438">
        <ele>242.13671875</ele>
        <time>2020-10-11T09:33:23Z</time>
      </trkpt>
      <trkpt lat="43.2186" lon="6.04373">
        <ele>240.85546875</ele>
        <time>2020-10-11T09:33:24Z</time>
      </trkpt>
      <trkpt lat="43.21866" lon="6.04367">
        <ele>239.76953125</ele>
        <time>2020-10-11T09:33:25Z</time>
      </trkpt>
      <trkpt lat="43.21871" lon="6.04363">
        <ele>238.51953125</ele>
        <time>2020-10-11T09:33:26Z</time>
      </trkpt>
      <trkpt lat="43.21877" lon="6.04362">
        <ele>237.5859375</ele>
        <time>2020-10-11T09:33:27Z</time>
      </trkpt>
      <trkpt lat="43.21884" lon="6.04363">
        <ele>237.109375</ele>
        <time>2020-10-11T09:33:28Z</time>
      </trkpt>
      <trkpt lat="43.21891" lon="6.04366">
        <ele>237.00390625</ele>
        <time>2020-10-11T09:33:29Z</time>
      </trkpt>
      <trkpt lat="43.21897" lon="6.04369">
        <ele>236.7734375</ele>
        <time>2020-10-11T09:33:30Z</time>
      </trkpt>
      <trkpt lat="43.21903" lon="6.04374">
        <ele>236.2109375</ele>
        <time>2020-10-11T09:33:31Z</time>
      </trkpt>
      <trkpt lat="43.2194" lon="6.04413">
        <ele>232.90234375</ele>
        <time>2020-10-11T09:33:38Z</time>
      </trkpt>
      <trkpt lat="43.21944" lon="6.04418">
        <ele>232.78515625</ele>
        <time>2020-10-11T09:33:39Z</time>
      </trkpt>
      <trkpt lat="43.21955" lon="6.04432">
        <ele>231.76953125</ele>
        <time>2020-10-11T09:33:42Z</time>
      </trkpt>
      <trkpt lat="43.21958" lon="6.04437">
        <ele>231.77734375</ele>
        <time>2020-10-11T09:33:43Z</time>
      </trkpt>
      <trkpt lat="43.2197" lon="6.04459">
        <ele>232.55859375</ele>
        <time>2020-10-11T09:33:47Z</time>
      </trkpt>
      <trkpt lat="43.21979" lon="6.04478">
        <ele>233.8046875</ele>
        <time>2020-10-11T09:33:50Z</time>
      </trkpt>
      <trkpt lat="43.2199" lon="6.04497">
        <ele>234.40234375</ele>
        <time>2020-10-11T09:33:53Z</time>
      </trkpt>
      <trkpt lat="43.21993" lon="6.04503">
        <ele>234.421875</ele>
        <time>2020-10-11T09:33:54Z</time>
      </trkpt>
      <trkpt lat="43.21997" lon="6.04509">
        <ele>234.125</ele>
        <time>2020-10-11T09:33:55Z</time>
      </trkpt>
      <trkpt lat="43.22005" lon="6.04521">
        <ele>233.35546875</ele>
        <time>2020-10-11T09:33:58Z</time>
      </trkpt>
      <trkpt lat="43.22017" lon="6.04536">
        <ele>232.359375</ele>
        <time>2020-10-11T09:34:03Z</time>
      </trkpt>
      <trkpt lat="43.22021" lon="6.04539">
        <ele>231.9609375</ele>
        <time>2020-10-11T09:34:04Z</time>
      </trkpt>
      <trkpt lat="43.22024" lon="6.04544">
        <ele>231.9140625</ele>
        <time>2020-10-11T09:34:05Z</time>
      </trkpt>
      <trkpt lat="43.22026" lon="6.0455">
        <ele>232.25390625</ele>
        <time>2020-10-11T09:34:06Z</time>
      </trkpt>
      <trkpt lat="43.22028" lon="6.04555">
        <ele>232.7421875</ele>
        <time>2020-10-11T09:34:07Z</time>
      </trkpt>
      <trkpt lat="43.22029" lon="6.04561">
        <ele>233.28125</ele>
        <time>2020-10-11T09:34:08Z</time>
      </trkpt>
      <trkpt lat="43.22031" lon="6.04566">
        <ele>233.7578125</ele>
        <time>2020-10-11T09:34:09Z</time>
      </trkpt>
      <trkpt lat="43.22033" lon="6.04572">
        <ele>234.25</ele>
        <time>2020-10-11T09:34:10Z</time>
      </trkpt>
      <trkpt lat="43.22036" lon="6.04579">
        <ele>235.296875</ele>
        <time>2020-10-11T09:34:11Z</time>
      </trkpt>
      <trkpt lat="43.2204" lon="6.04586">
        <ele>236.35546875</ele>
        <time>2020-10-11T09:34:12Z</time>
      </trkpt>
      <trkpt lat="43.22044" lon="6.04593">
        <ele>237.4453125</ele>
        <time>2020-10-11T09:34:13Z</time>
      </trkpt>
      <trkpt lat="43.22049" lon="6.04599">
        <ele>238.3984375</ele>
        <time>2020-10-11T09:34:14Z</time>
      </trkpt>
      <trkpt lat="43.22055" lon="6.04603">
        <ele>238.98046875</ele>
        <time>2020-10-11T09:34:15Z</time>
      </trkpt>
      <trkpt lat="43.22061" lon="6.04604">
        <ele>239.0234375</ele>
        <time>2020-10-11T09:34:16Z</time>
      </trkpt>
      <trkpt lat="43.22067" lon="6.04602">
        <ele>238.98828125</ele>
        <time>2020-10-11T09:34:17Z</time>
      </trkpt>
      <trkpt lat="43.22073" lon="6.04597">
        <ele>238.22265625</ele>
        <time>2020-10-11T09:34:18Z</time>
      </trkpt>
      <trkpt lat="43.22079" lon="6.0459">
        <ele>237.03515625</ele>
        <time>2020-10-11T09:34:19Z</time>
      </trkpt>
      <trkpt lat="43.22085" lon="6.04583">
        <ele>235.6796875</ele>
        <time>2020-10-11T09:34:20Z</time>
      </trkpt>
      <trkpt lat="43.221" lon="6.04567">
        <ele>232.8671875</ele>
        <time>2020-10-11T09:34:23Z</time>
      </trkpt>
      <trkpt lat="43.22105" lon="6.04564">
        <ele>232.3671875</ele>
        <time>2020-10-11T09:34:24Z</time>
      </trkpt>
      <trkpt lat="43.22109" lon="6.04562">
        <ele>232.12109375</ele>
        <time>2020-10-11T09:34:25Z</time>
      </trkpt>
      <trkpt lat="43.22111" lon="6.0456">
        <ele>231.984375</ele>
        <time>2020-10-11T09:34:26Z</time>
      </trkpt>
      <trkpt lat="43.22116" lon="6.04562">
        <ele>232.7734375</ele>
        <time>2020-10-11T09:34:40Z</time>
      </trkpt>
      <trkpt lat="43.22114" lon="6.04559">
        <ele>231.98828125</ele>
        <time>2020-10-11T09:34:51Z</time>
      </trkpt>
      <trkpt lat="43.22114" lon="6.04557">
        <ele>231.4453125</ele>
        <time>2020-10-11T09:34:52Z</time>
      </trkpt>
      <trkpt lat="43.22115" lon="6.04555">
        <ele>230.78125</ele>
        <time>2020-10-11T09:34:53Z</time>
      </trkpt>
      <trkpt lat="43.22117" lon="6.04548">
        <ele>228.9765625</ele>
        <time>2020-10-11T09:34:55Z</time>
      </trkpt>
      <trkpt lat="43.2212" lon="6.04546">
        <ele>228.359375</ele>
        <time>2020-10-11T09:34:56Z</time>
      </trkpt>
      <trkpt lat="43.22123" lon="6.04544">
        <ele>227.97265625</ele>
        <time>2020-10-11T09:34:57Z</time>
      </trkpt>
      <trkpt lat="43.22127" lon="6.04542">
        <ele>227.65234375</ele>
        <time>2020-10-11T09:34:58Z</time>
      </trkpt>
      <trkpt lat="43.22129" lon="6.04541">
        <ele>227.42578125</ele>
        <time>2020-10-11T09:34:59Z</time>
      </trkpt>
      <trkpt lat="43.2213" lon="6.04538">
        <ele>226.86328125</ele>
        <time>2020-10-11T09:35:01Z</time>
      </trkpt>
      <trkpt lat="43.22128" lon="6.04537">
        <ele>226.43359375</ele>
        <time>2020-10-11T09:35:02Z</time>
      </trkpt>
      <trkpt lat="43.22125" lon="6.04535">
        <ele>225.83984375</ele>
        <time>2020-10-11T09:35:03Z</time>
      </trkpt>
      <trkpt lat="43.22123" lon="6.04532">
        <ele>225.0703125</ele>
        <time>2020-10-11T09:35:04Z</time>
      </trkpt>
      <trkpt lat="43.2212" lon="6.04528">
        <ele>224.1328125</ele>
        <time>2020-10-11T09:35:05Z</time>
      </trkpt>
      <trkpt lat="43.22118" lon="6.04526">
        <ele>223.375</ele>
        <time>2020-10-11T09:35:06Z</time>
      </trkpt>
      <trkpt lat="43.22114" lon="6.04524">
        <ele>222.859375</ele>
        <time>2020-10-11T09:35:07Z</time>
      </trkpt>
      <trkpt lat="43.2211" lon="6.04523">
        <ele>222.3203125</ele>
        <time>2020-10-11T09:35:08Z</time>
      </trkpt>
      <trkpt lat="43.22101" lon="6.0452">
        <ele>221.30078125</ele>
        <time>2020-10-11T09:35:10Z</time>
      </trkpt>
      <trkpt lat="43.22094" lon="6.04509">
        <ele>219.6484375</ele>
        <time>2020-10-11T09:35:13Z</time>
      </trkpt>
      <trkpt lat="43.22098" lon="6.04496">
        <ele>218.15234375</ele>
        <time>2020-10-11T09:35:17Z</time>
      </trkpt>
      <trkpt lat="43.22098" lon="6.04494">
        <ele>217.8359375</ele>
        <time>2020-10-11T09:35:18Z</time>
      </trkpt>
      <trkpt lat="43.22097" lon="6.04491">
        <ele>217.56640625</ele>
        <time>2020-10-11T09:35:19Z</time>
      </trkpt>
      <trkpt lat="43.22096" lon="6.04488">
        <ele>217.36328125</ele>
        <time>2020-10-11T09:35:20Z</time>
      </trkpt>
      <trkpt lat="43.22095" lon="6.04484">
        <ele>217.203125</ele>
        <time>2020-10-11T09:35:21Z</time>
      </trkpt>
      <trkpt lat="43.22096" lon="6.0448">
        <ele>217.1484375</ele>
        <time>2020-10-11T09:35:22Z</time>
      </trkpt>
      <trkpt lat="43.22097" lon="6.04476">
        <ele>217.2109375</ele>
        <time>2020-10-11T09:35:23Z</time>
      </trkpt>
      <trkpt lat="43.22099" lon="6.04473">
        <ele>217.2734375</ele>
        <time>2020-10-11T09:35:24Z</time>
      </trkpt>
      <trkpt lat="43.22099" lon="6.0447">
        <ele>217.19140625</ele>
        <time>2020-10-11T09:35:25Z</time>
      </trkpt>
      <trkpt lat="43.22098" lon="6.04468">
        <ele>217.07421875</ele>
        <time>2020-10-11T09:35:26Z</time>
      </trkpt>
      <trkpt lat="43.22099" lon="6.04465">
        <ele>217.09375</ele>
        <time>2020-10-11T09:35:27Z</time>
      </trkpt>
      <trkpt lat="43.22099" lon="6.04462">
        <ele>217.3515625</ele>
        <time>2020-10-11T09:35:28Z</time>
      </trkpt>
      <trkpt lat="43.22098" lon="6.04459">
        <ele>217.50390625</ele>
        <time>2020-10-11T09:35:31Z</time>
      </trkpt>
      <trkpt lat="43.22097" lon="6.04458">
        <ele>217.4609375</ele>
        <time>2020-10-11T09:35:32Z</time>
      </trkpt>
      <trkpt lat="43.22095" lon="6.04457">
        <ele>217.3125</ele>
        <time>2020-10-11T09:35:33Z</time>
      </trkpt>
      <trkpt lat="43.22093" lon="6.04457">
        <ele>217.1171875</ele>
        <time>2020-10-11T09:35:34Z</time>
      </trkpt>
      <trkpt lat="43.22091" lon="6.04456">
        <ele>216.94140625</ele>
        <time>2020-10-11T09:35:35Z</time>
      </trkpt>
      <trkpt lat="43.2209" lon="6.04455">
        <ele>216.84765625</ele>
        <time>2020-10-11T09:35:36Z</time>
      </trkpt>
      <trkpt lat="43.22087" lon="6.04452">
        <ele>216.7890625</ele>
        <time>2020-10-11T09:35:39Z</time>
      </trkpt>
      <trkpt lat="43.2208" lon="6.04441">
        <ele>216.56640625</ele>
        <time>2020-10-11T09:35:52Z</time>
      </trkpt>
      <trkpt lat="43.22073" lon="6.04433">
        <ele>216.0390625</ele>
        <time>2020-10-11T09:36:19Z</time>
      </trkpt>
      <trkpt lat="43.22062" lon="6.04423">
        <ele>215.234375</ele>
        <time>2020-10-11T09:36:22Z</time>
      </trkpt>
      <trkpt lat="43.22059" lon="6.04419">
        <ele>215.15625</ele>
        <time>2020-10-11T09:36:23Z</time>
      </trkpt>
      <trkpt lat="43.22054" lon="6.04415">
        <ele>215.08203125</ele>
        <time>2020-10-11T09:36:24Z</time>
      </trkpt>
      <trkpt lat="43.2205" lon="6.0441">
        <ele>214.7890625</ele>
        <time>2020-10-11T09:36:25Z</time>
      </trkpt>
      <trkpt lat="43.22045" lon="6.04404">
        <ele>214.69140625</ele>
        <time>2020-10-11T09:36:26Z</time>
      </trkpt>
      <trkpt lat="43.2204" lon="6.04398">
        <ele>214.40234375</ele>
        <time>2020-10-11T09:36:27Z</time>
      </trkpt>
      <trkpt lat="43.22035" lon="6.04392">
        <ele>213.9453125</ele>
        <time>2020-10-11T09:36:28Z</time>
      </trkpt>
      <trkpt lat="43.22031" lon="6.04385">
        <ele>213.72265625</ele>
        <time>2020-10-11T09:36:29Z</time>
      </trkpt>
      <trkpt lat="43.22007" lon="6.04351">
        <ele>212.64453125</ele>
        <time>2020-10-11T09:36:34Z</time>
      </trkpt>
      <trkpt lat="43.21992" lon="6.04331">
        <ele>211.89453125</ele>
        <time>2020-10-11T09:36:37Z</time>
      </trkpt>
      <trkpt lat="43.21987" lon="6.04325">
        <ele>210.94921875</ele>
        <time>2020-10-11T09:36:38Z</time>
      </trkpt>
      <trkpt lat="43.21982" lon="6.04318">
        <ele>209.9765625</ele>
        <time>2020-10-11T09:36:39Z</time>
      </trkpt>
      <trkpt lat="43.21978" lon="6.0431">
        <ele>209</ele>
        <time>2020-10-11T09:36:40Z</time>
      </trkpt>
      <trkpt lat="43.21974" lon="6.043">
        <ele>209.14453125</ele>
        <time>2020-10-11T09:36:41Z</time>
      </trkpt>
      <trkpt lat="43.21967" lon="6.04279">
        <ele>208.5859375</ele>
        <time>2020-10-11T09:36:43Z</time>
      </trkpt>
      <trkpt lat="43.21948" lon="6.04245">
        <ele>205.9296875</ele>
        <time>2020-10-11T09:36:47Z</time>
      </trkpt>
      <trkpt lat="43.21943" lon="6.04239">
        <ele>205.328125</ele>
        <time>2020-10-11T09:36:48Z</time>
      </trkpt>
      <trkpt lat="43.21937" lon="6.04235">
        <ele>204.76171875</ele>
        <time>2020-10-11T09:36:49Z</time>
      </trkpt>
      <trkpt lat="43.21931" lon="6.04231">
        <ele>204.203125</ele>
        <time>2020-10-11T09:36:50Z</time>
      </trkpt>
      <trkpt lat="43.21925" lon="6.04227">
        <ele>203.63671875</ele>
        <time>2020-10-11T09:36:51Z</time>
      </trkpt>
      <trkpt lat="43.21919" lon="6.04223">
        <ele>203.46484375</ele>
        <time>2020-10-11T09:36:52Z</time>
      </trkpt>
      <trkpt lat="43.21913" lon="6.0422">
        <ele>203.62109375</ele>
        <time>2020-10-11T09:36:53Z</time>
      </trkpt>
      <trkpt lat="43.21907" lon="6.04218">
        <ele>203.7578125</ele>
        <time>2020-10-11T09:36:54Z</time>
      </trkpt>
      <trkpt lat="43.21902" lon="6.04216">
        <ele>203.79296875</ele>
        <time>2020-10-11T09:36:55Z</time>
      </trkpt>
      <trkpt lat="43.21897" lon="6.04213">
        <ele>203.93359375</ele>
        <time>2020-10-11T09:36:56Z</time>
      </trkpt>
      <trkpt lat="43.21892" lon="6.04212">
        <ele>203.8671875</ele>
        <time>2020-10-11T09:36:57Z</time>
      </trkpt>
      <trkpt lat="43.21885" lon="6.0421">
        <ele>203.55859375</ele>
        <time>2020-10-11T09:36:58Z</time>
      </trkpt>
      <trkpt lat="43.21879" lon="6.0421">
        <ele>203.24609375</ele>
        <time>2020-10-11T09:36:59Z</time>
      </trkpt>
      <trkpt lat="43.21872" lon="6.04211">
        <ele>202.9453125</ele>
        <time>2020-10-11T09:37:00Z</time>
      </trkpt>
      <trkpt lat="43.21865" lon="6.04211">
        <ele>202.68359375</ele>
        <time>2020-10-11T09:37:01Z</time>
      </trkpt>
      <trkpt lat="43.21859" lon="6.0421">
        <ele>202.51171875</ele>
        <time>2020-10-11T09:37:02Z</time>
      </trkpt>
      <trkpt lat="43.21852" lon="6.04207">
        <ele>202.1171875</ele>
        <time>2020-10-11T09:37:03Z</time>
      </trkpt>
      <trkpt lat="43.21847" lon="6.04203">
        <ele>201.484375</ele>
        <time>2020-10-11T09:37:04Z</time>
      </trkpt>
      <trkpt lat="43.21841" lon="6.04199">
        <ele>200.73046875</ele>
        <time>2020-10-11T09:37:05Z</time>
      </trkpt>
      <trkpt lat="43.21836" lon="6.04195">
        <ele>199.8515625</ele>
        <time>2020-10-11T09:37:06Z</time>
      </trkpt>
      <trkpt lat="43.2183" lon="6.04193">
        <ele>198.9609375</ele>
        <time>2020-10-11T09:37:07Z</time>
      </trkpt>
      <trkpt lat="43.21824" lon="6.04191">
        <ele>198.01953125</ele>
        <time>2020-10-11T09:37:08Z</time>
      </trkpt>
      <trkpt lat="43.21819" lon="6.04188">
        <ele>196.94140625</ele>
        <time>2020-10-11T09:37:09Z</time>
      </trkpt>
      <trkpt lat="43.21815" lon="6.04185">
        <ele>196.6953125</ele>
        <time>2020-10-11T09:37:10Z</time>
      </trkpt>
      <trkpt lat="43.21804" lon="6.04179">
        <ele>196.13671875</ele>
        <time>2020-10-11T09:37:12Z</time>
      </trkpt>
      <trkpt lat="43.21799" lon="6.04177">
        <ele>195.81640625</ele>
        <time>2020-10-11T09:37:13Z</time>
      </trkpt>
      <trkpt lat="43.21794" lon="6.04174">
        <ele>195.38671875</ele>
        <time>2020-10-11T09:37:14Z</time>
      </trkpt>
      <trkpt lat="43.21784" lon="6.04167">
        <ele>194.0546875</ele>
        <time>2020-10-11T09:37:16Z</time>
      </trkpt>
      <trkpt lat="43.21779" lon="6.04163">
        <ele>194.23828125</ele>
        <time>2020-10-11T09:37:17Z</time>
      </trkpt>
      <trkpt lat="43.21773" lon="6.04159">
        <ele>194.41015625</ele>
        <time>2020-10-11T09:37:18Z</time>
      </trkpt>
      <trkpt lat="43.21768" lon="6.04157">
        <ele>194.8046875</ele>
        <time>2020-10-11T09:37:19Z</time>
      </trkpt>
      <trkpt lat="43.21761" lon="6.04155">
        <ele>194.9765625</ele>
        <time>2020-10-11T09:37:20Z</time>
      </trkpt>
      <trkpt lat="43.21742" lon="6.04149">
        <ele>194.234375</ele>
        <time>2020-10-11T09:37:23Z</time>
      </trkpt>
      <trkpt lat="43.21725" lon="6.04144">
        <ele>192.6484375</ele>
        <time>2020-10-11T09:37:26Z</time>
      </trkpt>
      <trkpt lat="43.21719" lon="6.04144">
        <ele>192.45703125</ele>
        <time>2020-10-11T09:37:27Z</time>
      </trkpt>
      <trkpt lat="43.21714" lon="6.04144">
        <ele>192.31640625</ele>
        <time>2020-10-11T09:37:28Z</time>
      </trkpt>
      <trkpt lat="43.21704" lon="6.04144">
        <ele>192.12109375</ele>
        <time>2020-10-11T09:37:30Z</time>
      </trkpt>
      <trkpt lat="43.21693" lon="6.04146">
        <ele>191.9609375</ele>
        <time>2020-10-11T09:37:33Z</time>
      </trkpt>
      <trkpt lat="43.21685" lon="6.04145">
        <ele>191.046875</ele>
        <time>2020-10-11T09:37:35Z</time>
      </trkpt>
      <trkpt lat="43.21675" lon="6.04145">
        <ele>190.109375</ele>
        <time>2020-10-11T09:37:37Z</time>
      </trkpt>
      <trkpt lat="43.21648" lon="6.04154">
        <ele>188.78125</ele>
        <time>2020-10-11T09:37:43Z</time>
      </trkpt>
      <trkpt lat="43.21644" lon="6.04158">
        <ele>189.41796875</ele>
        <time>2020-10-11T09:37:44Z</time>
      </trkpt>
      <trkpt lat="43.21641" lon="6.04164">
        <ele>190.09765625</ele>
        <time>2020-10-11T09:37:45Z</time>
      </trkpt>
      <trkpt lat="43.21639" lon="6.04171">
        <ele>190.95703125</ele>
        <time>2020-10-11T09:37:46Z</time>
      </trkpt>
      <trkpt lat="43.21636" lon="6.04178">
        <ele>191.73046875</ele>
        <time>2020-10-11T09:37:47Z</time>
      </trkpt>
      <trkpt lat="43.21633" lon="6.04184">
        <ele>191.9140625</ele>
        <time>2020-10-11T09:37:48Z</time>
      </trkpt>
      <trkpt lat="43.21629" lon="6.0419">
        <ele>191.9453125</ele>
        <time>2020-10-11T09:37:49Z</time>
      </trkpt>
      <trkpt lat="43.21625" lon="6.04197">
        <ele>192.0234375</ele>
        <time>2020-10-11T09:37:50Z</time>
      </trkpt>
      <trkpt lat="43.21621" lon="6.04202">
        <ele>191.921875</ele>
        <time>2020-10-11T09:37:51Z</time>
      </trkpt>
      <trkpt lat="43.21615" lon="6.04212">
        <ele>191.6875</ele>
        <time>2020-10-11T09:37:53Z</time>
      </trkpt>
      <trkpt lat="43.21611" lon="6.04216">
        <ele>190.7578125</ele>
        <time>2020-10-11T09:37:54Z</time>
      </trkpt>
      <trkpt lat="43.21607" lon="6.04219">
        <ele>189.78125</ele>
        <time>2020-10-11T09:37:55Z</time>
      </trkpt>
      <trkpt lat="43.21603" lon="6.04223">
        <ele>189.29296875</ele>
        <time>2020-10-11T09:37:56Z</time>
      </trkpt>
      <trkpt lat="43.21599" lon="6.04227">
        <ele>188.84765625</ele>
        <time>2020-10-11T09:37:57Z</time>
      </trkpt>
      <trkpt lat="43.21596" lon="6.04231">
        <ele>188.1640625</ele>
        <time>2020-10-11T09:37:58Z</time>
      </trkpt>
      <trkpt lat="43.21593" lon="6.04235">
        <ele>187.6171875</ele>
        <time>2020-10-11T09:37:59Z</time>
      </trkpt>
      <trkpt lat="43.21585" lon="6.04246">
        <ele>186.8828125</ele>
        <time>2020-10-11T09:38:08Z</time>
      </trkpt>
      <trkpt lat="43.21584" lon="6.04247">
        <ele>186.8046875</ele>
        <time>2020-10-11T09:38:39Z</time>
      </trkpt>
      <trkpt lat="43.21582" lon="6.0425">
        <ele>186.796875</ele>
        <time>2020-10-11T09:39:10Z</time>
      </trkpt>
      <trkpt lat="43.21581" lon="6.04251">
        <ele>186.59765625</ele>
        <time>2020-10-11T09:39:36Z</time>
      </trkpt>
      <trkpt lat="43.21579" lon="6.04252">
        <ele>186.16796875</ele>
        <time>2020-10-11T09:39:38Z</time>
      </trkpt>
      <trkpt lat="43.21577" lon="6.04254">
        <ele>185.48828125</ele>
        <time>2020-10-11T09:39:39Z</time>
      </trkpt>
      <trkpt lat="43.21568" lon="6.04258">
        <ele>182.859375</ele>
        <time>2020-10-11T09:39:41Z</time>
      </trkpt>
      <trkpt lat="43.21562" lon="6.04261">
        <ele>181.1484375</ele>
        <time>2020-10-11T09:39:42Z</time>
      </trkpt>
      <trkpt lat="43.21555" lon="6.04265">
        <ele>179.55859375</ele>
        <time>2020-10-11T09:39:43Z</time>
      </trkpt>
      <trkpt lat="43.21537" lon="6.04269">
        <ele>174.89453125</ele>
        <time>2020-10-11T09:39:45Z</time>
      </trkpt>
      <trkpt lat="43.21527" lon="6.0427">
        <ele>172.4375</ele>
        <time>2020-10-11T09:39:46Z</time>
      </trkpt>
      <trkpt lat="43.21499" lon="6.04269">
        <ele>167.27734375</ele>
        <time>2020-10-11T09:39:49Z</time>
      </trkpt>
      <trkpt lat="43.21489" lon="6.04267">
        <ele>166.453125</ele>
        <time>2020-10-11T09:39:50Z</time>
      </trkpt>
      <trkpt lat="43.21471" lon="6.04263">
        <ele>164.9765625</ele>
        <time>2020-10-11T09:39:52Z</time>
      </trkpt>
      <trkpt lat="43.21462" lon="6.04261">
        <ele>164.328125</ele>
        <time>2020-10-11T09:39:53Z</time>
      </trkpt>
      <trkpt lat="43.21452" lon="6.0426">
        <ele>163.73828125</ele>
        <time>2020-10-11T09:39:54Z</time>
      </trkpt>
      <trkpt lat="43.21443" lon="6.0426">
        <ele>162.64453125</ele>
        <time>2020-10-11T09:39:55Z</time>
      </trkpt>
      <trkpt lat="43.21433" lon="6.04261">
        <ele>161.37109375</ele>
        <time>2020-10-11T09:39:56Z</time>
      </trkpt>
      <trkpt lat="43.21423" lon="6.04264">
        <ele>160.1171875</ele>
        <time>2020-10-11T09:39:57Z</time>
      </trkpt>
      <trkpt lat="43.21415" lon="6.04268">
        <ele>158.96875</ele>
        <time>2020-10-11T09:39:58Z</time>
      </trkpt>
      <trkpt lat="43.21408" lon="6.04272">
        <ele>158.55078125</ele>
        <time>2020-10-11T09:39:59Z</time>
      </trkpt>
      <trkpt lat="43.21402" lon="6.04276">
        <ele>158.85546875</ele>
        <time>2020-10-11T09:40:00Z</time>
      </trkpt>
      <trkpt lat="43.21395" lon="6.04278">
        <ele>158.765625</ele>
        <time>2020-10-11T09:40:01Z</time>
      </trkpt>
      <trkpt lat="43.21388" lon="6.0428">
        <ele>158.484375</ele>
        <time>2020-10-11T09:40:02Z</time>
      </trkpt>
      <trkpt lat="43.2138" lon="6.04281">
        <ele>157.61328125</ele>
        <time>2020-10-11T09:40:03Z</time>
      </trkpt>
      <trkpt lat="43.21373" lon="6.04279">
        <ele>156.23828125</ele>
        <time>2020-10-11T09:40:04Z</time>
      </trkpt>
      <trkpt lat="43.21366" lon="6.04277">
        <ele>154.6328125</ele>
        <time>2020-10-11T09:40:05Z</time>
      </trkpt>
      <trkpt lat="43.21358" lon="6.04272">
        <ele>153.1171875</ele>
        <time>2020-10-11T09:40:06Z</time>
      </trkpt>
      <trkpt lat="43.21351" lon="6.04267">
        <ele>152.4140625</ele>
        <time>2020-10-11T09:40:07Z</time>
      </trkpt>
      <trkpt lat="43.21343" lon="6.04261">
        <ele>152.14453125</ele>
        <time>2020-10-11T09:40:08Z</time>
      </trkpt>
      <trkpt lat="43.21335" lon="6.04257">
        <ele>151.9296875</ele>
        <time>2020-10-11T09:40:09Z</time>
      </trkpt>
      <trkpt lat="43.21327" lon="6.04253">
        <ele>151.7265625</ele>
        <time>2020-10-11T09:40:10Z</time>
      </trkpt>
      <trkpt lat="43.21319" lon="6.04252">
        <ele>151.50390625</ele>
        <time>2020-10-11T09:40:11Z</time>
      </trkpt>
      <trkpt lat="43.21284" lon="6.04245">
        <ele>149.17578125</ele>
        <time>2020-10-11T09:40:15Z</time>
      </trkpt>
      <trkpt lat="43.21257" lon="6.04234">
        <ele>146.7734375</ele>
        <time>2020-10-11T09:40:18Z</time>
      </trkpt>
      <trkpt lat="43.21248" lon="6.04229">
        <ele>145.8125</ele>
        <time>2020-10-11T09:40:19Z</time>
      </trkpt>
      <trkpt lat="43.21224" lon="6.04212">
        <ele>142.72265625</ele>
        <time>2020-10-11T09:40:22Z</time>
      </trkpt>
      <trkpt lat="43.21217" lon="6.04206">
        <ele>142.1796875</ele>
        <time>2020-10-11T09:40:23Z</time>
      </trkpt>
      <trkpt lat="43.2121" lon="6.04203">
        <ele>141.6953125</ele>
        <time>2020-10-11T09:40:24Z</time>
      </trkpt>
      <trkpt lat="43.21203" lon="6.04201">
        <ele>141.2109375</ele>
        <time>2020-10-11T09:40:25Z</time>
      </trkpt>
      <trkpt lat="43.21197" lon="6.04201">
        <ele>140.8046875</ele>
        <time>2020-10-11T09:40:26Z</time>
      </trkpt>
      <trkpt lat="43.2119" lon="6.04202">
        <ele>140.4609375</ele>
        <time>2020-10-11T09:40:27Z</time>
      </trkpt>
      <trkpt lat="43.21184" lon="6.04203">
        <ele>140.12109375</ele>
        <time>2020-10-11T09:40:28Z</time>
      </trkpt>
      <trkpt lat="43.21177" lon="6.04202">
        <ele>139.72265625</ele>
        <time>2020-10-11T09:40:29Z</time>
      </trkpt>
      <trkpt lat="43.2117" lon="6.042">
        <ele>139.23828125</ele>
        <time>2020-10-11T09:40:30Z</time>
      </trkpt>
      <trkpt lat="43.21123" lon="6.04194">
        <ele>135.44921875</ele>
        <time>2020-10-11T09:40:36Z</time>
      </trkpt>
      <trkpt lat="43.21114" lon="6.04195">
        <ele>134.88671875</ele>
        <time>2020-10-11T09:40:37Z</time>
      </trkpt>
      <trkpt lat="43.21097" lon="6.04193">
        <ele>134.26953125</ele>
        <time>2020-10-11T09:40:39Z</time>
      </trkpt>
      <trkpt lat="43.21089" lon="6.04191">
        <ele>133.953125</ele>
        <time>2020-10-11T09:40:40Z</time>
      </trkpt>
      <trkpt lat="43.21081" lon="6.04187">
        <ele>133.41796875</ele>
        <time>2020-10-11T09:40:41Z</time>
      </trkpt>
      <trkpt lat="43.21075" lon="6.04183">
        <ele>132.9765625</ele>
        <time>2020-10-11T09:40:42Z</time>
      </trkpt>
      <trkpt lat="43.2107" lon="6.04179">
        <ele>132.61328125</ele>
        <time>2020-10-11T09:40:43Z</time>
      </trkpt>
      <trkpt lat="43.21066" lon="6.04175">
        <ele>132.296875</ele>
        <time>2020-10-11T09:40:44Z</time>
      </trkpt>
      <trkpt lat="43.21062" lon="6.04173">
        <ele>132.0546875</ele>
        <time>2020-10-11T09:40:45Z</time>
      </trkpt>
      <trkpt lat="43.2106" lon="6.04172">
        <ele>131.859375</ele>
        <time>2020-10-11T09:40:46Z</time>
      </trkpt>
      <trkpt lat="43.21058" lon="6.04173">
        <ele>131.71875</ele>
        <time>2020-10-11T09:40:47Z</time>
      </trkpt>
      <trkpt lat="43.21056" lon="6.04176">
        <ele>131.6171875</ele>
        <time>2020-10-11T09:40:48Z</time>
      </trkpt>
      <trkpt lat="43.21054" lon="6.04179">
        <ele>131.46484375</ele>
        <time>2020-10-11T09:40:49Z</time>
      </trkpt>
      <trkpt lat="43.21051" lon="6.04181">
        <ele>131.234375</ele>
        <time>2020-10-11T09:40:50Z</time>
      </trkpt>
      <trkpt lat="43.21047" lon="6.04183">
        <ele>130.9609375</ele>
        <time>2020-10-11T09:40:51Z</time>
      </trkpt>
      <trkpt lat="43.21033" lon="6.04192">
        <ele>129.96875</ele>
        <time>2020-10-11T09:40:54Z</time>
      </trkpt>
      <trkpt lat="43.21024" lon="6.042">
        <ele>129.28515625</ele>
        <time>2020-10-11T09:40:56Z</time>
      </trkpt>
      <trkpt lat="43.21019" lon="6.04207">
        <ele>128.953125</ele>
        <time>2020-10-11T09:40:57Z</time>
      </trkpt>
      <trkpt lat="43.20987" lon="6.04256">
        <ele>126.60546875</ele>
        <time>2020-10-11T09:41:04Z</time>
      </trkpt>
      <trkpt lat="43.20982" lon="6.04259">
        <ele>126.25</ele>
        <time>2020-10-11T09:41:05Z</time>
      </trkpt>
      <trkpt lat="43.20977" lon="6.04258">
        <ele>125.90234375</ele>
        <time>2020-10-11T09:41:06Z</time>
      </trkpt>
      <trkpt lat="43.20972" lon="6.04254">
        <ele>125.5703125</ele>
        <time>2020-10-11T09:41:07Z</time>
      </trkpt>
      <trkpt lat="43.20968" lon="6.04248">
        <ele>125.265625</ele>
        <time>2020-10-11T09:41:08Z</time>
      </trkpt>
      <trkpt lat="43.20963" lon="6.04244">
        <ele>124.91015625</ele>
        <time>2020-10-11T09:41:09Z</time>
      </trkpt>
      <trkpt lat="43.20958" lon="6.04243">
        <ele>124.515625</ele>
        <time>2020-10-11T09:41:10Z</time>
      </trkpt>
      <trkpt lat="43.20952" lon="6.04246">
        <ele>124.125</ele>
        <time>2020-10-11T09:41:11Z</time>
      </trkpt>
      <trkpt lat="43.20948" lon="6.04252">
        <ele>123.96875</ele>
        <time>2020-10-11T09:41:12Z</time>
      </trkpt>
      <trkpt lat="43.20945" lon="6.0426">
        <ele>123.86328125</ele>
        <time>2020-10-11T09:41:13Z</time>
      </trkpt>
      <trkpt lat="43.20941" lon="6.04269">
        <ele>123.6875</ele>
        <time>2020-10-11T09:41:14Z</time>
      </trkpt>
      <trkpt lat="43.2093" lon="6.04303">
        <ele>122.55078125</ele>
        <time>2020-10-11T09:41:18Z</time>
      </trkpt>
      <trkpt lat="43.20931" lon="6.04312">
        <ele>122.57421875</ele>
        <time>2020-10-11T09:41:19Z</time>
      </trkpt>
      <trkpt lat="43.20933" lon="6.04321">
        <ele>122.7109375</ele>
        <time>2020-10-11T09:41:20Z</time>
      </trkpt>
      <trkpt lat="43.20934" lon="6.04328">
        <ele>122.70703125</ele>
        <time>2020-10-11T09:41:21Z</time>
      </trkpt>
      <trkpt lat="43.20933" lon="6.04336">
        <ele>122.3671875</ele>
        <time>2020-10-11T09:41:22Z</time>
      </trkpt>
      <trkpt lat="43.20929" lon="6.04342">
        <ele>121.87890625</ele>
        <time>2020-10-11T09:41:23Z</time>
      </trkpt>
      <trkpt lat="43.20924" lon="6.04348">
        <ele>121.31640625</ele>
        <time>2020-10-11T09:41:24Z</time>
      </trkpt>
      <trkpt lat="43.20912" lon="6.04358">
        <ele>120.23828125</ele>
        <time>2020-10-11T09:41:26Z</time>
      </trkpt>
      <trkpt lat="43.20906" lon="6.04361">
        <ele>119.7578125</ele>
        <time>2020-10-11T09:41:27Z</time>
      </trkpt>
      <trkpt lat="43.20899" lon="6.0436">
        <ele>119.30078125</ele>
        <time>2020-10-11T09:41:28Z</time>
      </trkpt>
      <trkpt lat="43.20894" lon="6.04355">
        <ele>118.96875</ele>
        <time>2020-10-11T09:41:29Z</time>
      </trkpt>
      <trkpt lat="43.2089" lon="6.0435">
        <ele>118.94140625</ele>
        <time>2020-10-11T09:41:30Z</time>
      </trkpt>
      <trkpt lat="43.20885" lon="6.04345">
        <ele>118.83203125</ele>
        <time>2020-10-11T09:41:31Z</time>
      </trkpt>
      <trkpt lat="43.20879" lon="6.04343">
        <ele>118.5859375</ele>
        <time>2020-10-11T09:41:32Z</time>
      </trkpt>
      <trkpt lat="43.20873" lon="6.04341">
        <ele>118.28125</ele>
        <time>2020-10-11T09:41:33Z</time>
      </trkpt>
      <trkpt lat="43.20867" lon="6.04341">
        <ele>117.96875</ele>
        <time>2020-10-11T09:41:34Z</time>
      </trkpt>
      <trkpt lat="43.2086" lon="6.04341">
        <ele>117.71875</ele>
        <time>2020-10-11T09:41:35Z</time>
      </trkpt>
      <trkpt lat="43.20828" lon="6.04341">
        <ele>116.73046875</ele>
        <time>2020-10-11T09:41:40Z</time>
      </trkpt>
      <trkpt lat="43.20758" lon="6.04333">
        <ele>115.05078125</ele>
        <time>2020-10-11T09:41:50Z</time>
      </trkpt>
      <trkpt lat="43.20639" lon="6.04307">
        <ele>111.48046875</ele>
        <time>2020-10-11T09:42:06Z</time>
      </trkpt>
      <trkpt lat="43.20599" lon="6.04301">
        <ele>110.25</ele>
        <time>2020-10-11T09:42:11Z</time>
      </trkpt>
      <trkpt lat="43.20591" lon="6.04302">
        <ele>109.90234375</ele>
        <time>2020-10-11T09:42:12Z</time>
      </trkpt>
      <trkpt lat="43.20573" lon="6.04307">
        <ele>109.078125</ele>
        <time>2020-10-11T09:42:14Z</time>
      </trkpt>
      <trkpt lat="43.20564" lon="6.04312">
        <ele>108.59375</ele>
        <time>2020-10-11T09:42:15Z</time>
      </trkpt>
      <trkpt lat="43.20546" lon="6.04322">
        <ele>106.984375</ele>
        <time>2020-10-11T09:42:17Z</time>
      </trkpt>
      <trkpt lat="43.20526" lon="6.04331">
        <ele>105.5390625</ele>
        <time>2020-10-11T09:42:19Z</time>
      </trkpt>
      <trkpt lat="43.20514" lon="6.04331">
        <ele>105.10546875</ele>
        <time>2020-10-11T09:42:20Z</time>
      </trkpt>
      <trkpt lat="43.20481" lon="6.04334">
        <ele>103.8125</ele>
        <time>2020-10-11T09:42:23Z</time>
      </trkpt>
      <trkpt lat="43.20446" lon="6.04338">
        <ele>102.3359375</ele>
        <time>2020-10-11T09:42:26Z</time>
      </trkpt>
      <trkpt lat="43.20424" lon="6.04337">
        <ele>101.02734375</ele>
        <time>2020-10-11T09:42:28Z</time>
      </trkpt>
      <trkpt lat="43.20402" lon="6.04333">
        <ele>100.03515625</ele>
        <time>2020-10-11T09:42:30Z</time>
      </trkpt>
      <trkpt lat="43.20391" lon="6.04333">
        <ele>99.45703125</ele>
        <time>2020-10-11T09:42:31Z</time>
      </trkpt>
      <trkpt lat="43.2037" lon="6.04334">
        <ele>98.12109375</ele>
        <time>2020-10-11T09:42:33Z</time>
      </trkpt>
      <trkpt lat="43.20351" lon="6.04337">
        <ele>97.3984375</ele>
        <time>2020-10-11T09:42:35Z</time>
      </trkpt>
      <trkpt lat="43.20342" lon="6.0434">
        <ele>97.0859375</ele>
        <time>2020-10-11T09:42:36Z</time>
      </trkpt>
      <trkpt lat="43.20334" lon="6.04345">
        <ele>96.7890625</ele>
        <time>2020-10-11T09:42:37Z</time>
      </trkpt>
      <trkpt lat="43.20326" lon="6.04352">
        <ele>96.515625</ele>
        <time>2020-10-11T09:42:38Z</time>
      </trkpt>
      <trkpt lat="43.20319" lon="6.0436">
        <ele>96.4453125</ele>
        <time>2020-10-11T09:42:39Z</time>
      </trkpt>
      <trkpt lat="43.20311" lon="6.04366">
        <ele>96.34375</ele>
        <time>2020-10-11T09:42:40Z</time>
      </trkpt>
      <trkpt lat="43.20302" lon="6.0437">
        <ele>95.96875</ele>
        <time>2020-10-11T09:42:41Z</time>
      </trkpt>
      <trkpt lat="43.20293" lon="6.04372">
        <ele>95.48828125</ele>
        <time>2020-10-11T09:42:42Z</time>
      </trkpt>
      <trkpt lat="43.20285" lon="6.04373">
        <ele>95.0390625</ele>
        <time>2020-10-11T09:42:43Z</time>
      </trkpt>
      <trkpt lat="43.20279" lon="6.04373">
        <ele>94.80859375</ele>
        <time>2020-10-11T09:42:44Z</time>
      </trkpt>
      <trkpt lat="43.20274" lon="6.04374">
        <ele>94.63671875</ele>
        <time>2020-10-11T09:42:45Z</time>
      </trkpt>
      <trkpt lat="43.2027" lon="6.04376">
        <ele>94.49609375</ele>
        <time>2020-10-11T09:42:46Z</time>
      </trkpt>
      <trkpt lat="43.20267" lon="6.04378">
        <ele>94.3828125</ele>
        <time>2020-10-11T09:42:47Z</time>
      </trkpt>
      <trkpt lat="43.20265" lon="6.04381">
        <ele>94.31640625</ele>
        <time>2020-10-11T09:42:48Z</time>
      </trkpt>
      <trkpt lat="43.20265" lon="6.04386">
        <ele>94.3046875</ele>
        <time>2020-10-11T09:42:49Z</time>
      </trkpt>
      <trkpt lat="43.20266" lon="6.04389">
        <ele>94.33984375</ele>
        <time>2020-10-11T09:42:50Z</time>
      </trkpt>
      <trkpt lat="43.20268" lon="6.04392">
        <ele>94.41015625</ele>
        <time>2020-10-11T09:42:51Z</time>
      </trkpt>
      <trkpt lat="43.2027" lon="6.04393">
        <ele>94.4921875</ele>
        <time>2020-10-11T09:42:52Z</time>
      </trkpt>
      <trkpt lat="43.20273" lon="6.04394">
        <ele>94.58203125</ele>
        <time>2020-10-11T09:42:53Z</time>
      </trkpt>
      <trkpt lat="43.20276" lon="6.04394">
        <ele>94.68359375</ele>
        <time>2020-10-11T09:42:54Z</time>
      </trkpt>
      <trkpt lat="43.20279" lon="6.04395">
        <ele>94.7890625</ele>
        <time>2020-10-11T09:42:55Z</time>
      </trkpt>
      <trkpt lat="43.20282" lon="6.04397">
        <ele>94.90234375</ele>
        <time>2020-10-11T09:42:56Z</time>
      </trkpt>
      <trkpt lat="43.20285" lon="6.04398">
        <ele>95.0390625</ele>
        <time>2020-10-11T09:42:57Z</time>
      </trkpt>
      <trkpt lat="43.20309" lon="6.04409">
        <ele>96.7890625</ele>
        <time>2020-10-11T09:43:05Z</time>
      </trkpt>
      <trkpt lat="43.20352" lon="6.04429">
        <ele>98.4453125</ele>
        <time>2020-10-11T09:43:20Z</time>
      </trkpt>
      <trkpt lat="43.20404" lon="6.04453">
        <ele>100.296875</ele>
        <time>2020-10-11T09:43:36Z</time>
      </trkpt>
      <trkpt lat="43.20422" lon="6.04461">
        <ele>100.953125</ele>
        <time>2020-10-11T09:43:42Z</time>
      </trkpt>
      <trkpt lat="43.20473" lon="6.0451">
        <ele>102.7890625</ele>
        <time>2020-10-11T09:44:00Z</time>
      </trkpt>
      <trkpt lat="43.20515" lon="6.04576">
        <ele>103.32421875</ele>
        <time>2020-10-11T09:44:17Z</time>
      </trkpt>
      <trkpt lat="43.20534" lon="6.04591">
        <ele>103.98046875</ele>
        <time>2020-10-11T09:44:25Z</time>
      </trkpt>
      <trkpt lat="43.20532" lon="6.04598">
        <ele>103.9375</ele>
        <time>2020-10-11T09:44:34Z</time>
      </trkpt>
      <trkpt lat="43.20532" lon="6.04605">
        <ele>103.9140625</ele>
        <time>2020-10-11T09:44:38Z</time>
      </trkpt>
      <trkpt lat="43.20531" lon="6.04609">
        <ele>103.890625</ele>
        <time>2020-10-11T09:44:41Z</time>
      </trkpt>
      <trkpt lat="43.2053" lon="6.04619">
        <ele>103.8359375</ele>
        <time>2020-10-11T09:44:45Z</time>
      </trkpt>
      <trkpt lat="43.20524" lon="6.04708">
        <ele>102.16796875</ele>
        <time>2020-10-11T09:44:59Z</time>
      </trkpt>
      <trkpt lat="43.20523" lon="6.04712">
        <ele>102.0546875</ele>
        <time>2020-10-11T09:45:01Z</time>
      </trkpt>
      <trkpt lat="43.20512" lon="6.04722">
        <ele>101.78515625</ele>
        <time>2020-10-11T09:45:07Z</time>
      </trkpt>
      <trkpt lat="43.20511" lon="6.04725">
        <ele>101.69921875</ele>
        <time>2020-10-11T09:45:08Z</time>
      </trkpt>
      <trkpt lat="43.20512" lon="6.04726">
        <ele>101.671875</ele>
        <time>2020-10-11T09:45:19Z</time>
      </trkpt>
    </trkseg>
  </trk>
</gpx>